[[{"header":{"parameterUnit":"m.s-1","parameterCategory":1,"la1":30.6,"la2":29.2853,"lo1":-89.7004,"lo2":-87.6739,"dy":0.0162,"dx":0.0183,"nx":112,"ny":82,"refTime":"2026-04-23T00:00:00:Z","depth":0,"parameterNumber":2,"parameterNumberName":"U-component_of_WINDS"},"data":[0.0,0.0,0.0,0.0,0.0,0.0,0.0,0.0,0.0,0.0,0.0,0.0,0.0,0.0,0.0,0.0,0.0,0.0,0.0,0.0,0.0,0.0,0.0,0.0,0.0,0.0,0.0,0.0,0.0,0.0,0.0,0.0,0.0,0.0,0.0,0.0,0.0,0.0,0.0,0.0,0.0,0.0,0.0,0.0,0.0,0.0,0.0,0.0,0.0,0.0,0.0,0.0,0.0,0.0,0.0,0.0,0.0,0.0,0.0,0.0,0.0,0.0,0.0,0.0,0.0,0.0,0.0,0.0,0.0,0.0,0.0,0.0,0.0,0.0,0.0,0.0,0.0,0.0,0.0,0.0,0.0,0.0,0.0,0.0,0.0,0.0,0.0,0.0,0.0,0.0,-5.3559,-6.1017,-6.8708,-7.2573,-7.0855,-6.8435,-6.4414,-5.8363,0.0,0.0,0.0,0.0,0.0,0.0,0.0,0.0,0.0,0.0,0.0,0.0,0.0,0.0,0.0,0.0,0.0,0.0,0.0,0.0,0.0,0.0,0.0,0.0,0.0,0.0,0.0,0.0,0.0,0.0,0.0,0.0,0.0,0.0,0.0,0.0,0.0,0.0,0.0,0.0,0.0,0.0,0.0,0.0,0.0,0.0,0.0,0.0,0.0,0.0,0.0,0.0,0.0,0.0,0.0,0.0,0.0,0.0,0.0,0.0,0.0,0.0,0.0,0.0,0.0,0.0,0.0,0.0,0.0,0.0,0.0,0.0,0.0,0.0,0.0,0.0,0.0,0.0,0.0,0.0,0.0,0.0,0.0,0.0,0.0,0.0,0.0,0.0,0.0,0.0,0.0,0.0,0.0,0.0,0.0,0.0,0.0,0.0,0.0,0.0,0.0,0.0,0.0,0.0,-5.7153,-6.699,-7.1206,-7.2573,-7.0855,-6.8981,-6.5312,-5.93,0.0,0.0,0.0,0.0,0.0,0.0,0.0,0.0,0.0,0.0,0.0,0.0,0.0,0.0,0.0,0.0,0.0,0.0,0.0,0.0,0.0,0.0,0.0,0.0,0.0,0.0,0.0,0.0,0.0,0.0,0.0,0.0,0.0,0.0,0.0,0.0,0.0,0.0,0.0,0.0,0.0,0.0,0.0,0.0,0.0,0.0,0.0,0.0,0.0,0.0,0.0,0.0,0.0,0.0,0.0,0.0,0.0,0.0,0.0,0.0,0.0,0.0,0.0,0.0,0.0,0.0,0.0,0.0,0.0,0.0,0.0,0.0,0.0,0.0,0.0,0.0,0.0,0.0,0.0,0.0,0.0,0.0,0.0,0.0,0.0,0.0,0.0,0.0,0.0,0.0,0.0,0.0,0.0,0.0,0.0,0.0,0.0,0.0,0.0,0.0,0.0,0.0,0.0,-5.5318,-6.1915,-6.8044,-7.0621,-7.1167,-6.945,-6.6873,-6.3164,-5.8089,-5.1261,0.0,0.0,0.0,0.0,0.0,0.0,0.0,0.0,0.0,0.0,0.0,0.0,0.0,0.0,0.0,0.0,0.0,0.0,0.0,0.0,0.0,0.0,0.0,0.0,0.0,0.0,0.0,0.0,0.0,0.0,0.0,0.0,0.0,0.0,0.0,0.0,0.0,0.0,0.0,0.0,0.0,0.0,0.0,0.0,0.0,0.0,0.0,0.0,0.0,0.0,0.0,0.0,0.0,0.0,0.0,0.0,0.0,0.0,0.0,0.0,0.0,0.0,0.0,0.0,0.0,0.0,0.0,0.0,0.0,0.0,0.0,0.0,0.0,0.0,0.0,0.0,0.0,0.0,0.0,0.0,0.0,0.0,0.0,0.0,0.0,0.0,0.0,0.0,0.0,0.0,0.0,0.0,0.0,0.0,0.0,0.0,0.0,0.0,0.0,0.0,0.0,0.0,-6.0159,-6.5194,-6.7537,-6.9333,-6.9528,-6.7381,-6.4258,-6.0393,-5.5671,-4.9277,0.0,0.0,0.0,0.0,0.0,0.0,0.0,0.0,0.0,0.0,0.0,0.0,0.0,0.0,0.0,0.0,0.0,0.0,0.0,0.0,0.0,0.0,0.0,0.0,0.0,0.0,0.0,0.0,0.0,0.0,0.0,0.0,0.0,0.0,0.0,0.0,0.0,0.0,0.0,0.0,0.0,0.0,0.0,0.0,0.0,0.0,0.0,0.0,0.0,0.0,0.0,0.0,0.0,0.0,0.0,0.0,0.0,0.0,0.0,0.0,0.0,0.0,0.0,0.0,0.0,0.0,0.0,0.0,0.0,0.0,0.0,0.0,0.0,0.0,0.0,0.0,0.0,0.0,0.0,0.0,0.0,0.0,0.0,0.0,0.0,0.0,0.0,0.0,0.0,0.0,0.0,0.0,0.0,0.0,0.0,0.0,0.0,0.0,0.0,0.0,0.0,0.0,-6.0512,-6.4963,-6.6717,-6.8435,-6.8161,-6.4846,-6.211,-5.8053,-5.2126,-4.6826,0.0,0.0,0.0,0.0,0.0,0.0,0.0,0.0,0.0,0.0,0.0,0.0,0.0,0.0,0.0,0.0,0.0,0.0,0.0,0.0,0.0,0.0,0.0,0.0,0.0,0.0,0.0,0.0,0.0,0.0,0.0,0.0,0.0,0.0,0.0,0.0,0.0,0.0,0.0,0.0,0.0,0.0,0.0,0.0,0.0,0.0,0.0,0.0,0.0,0.0,0.0,0.0,0.0,0.0,0.0,0.0,0.0,0.0,0.0,0.0,0.0,0.0,0.0,0.0,0.0,0.0,0.0,0.0,0.0,0.0,0.0,0.0,0.0,0.0,0.0,0.0,0.0,0.0,0.0,0.0,0.0,0.0,0.0,0.0,0.0,0.0,0.0,0.0,0.0,0.0,0.0,0.0,0.0,0.0,0.0,0.0,0.0,0.0,0.0,0.0,0.0,0.0,-6.059,-6.4924,-6.66,-6.7888,-6.742,-6.4533,-6.09,-5.6686,-5.1691,0.0,0.0,0.0,0.0,0.0,0.0,0.0,0.0,0.0,0.0,0.0,0.0,0.0,0.0,0.0,0.0,0.0,0.0,0.0,0.0,0.0,0.0,0.0,0.0,0.0,0.0,0.0,0.0,0.0,0.0,0.0,0.0,0.0,0.0,0.0,0.0,0.0,0.0,0.0,0.0,0.0,0.0,0.0,0.0,0.0,0.0,0.0,0.0,0.0,0.0,0.0,0.0,0.0,0.0,0.0,0.0,0.0,0.0,0.0,0.0,0.0,0.0,0.0,0.0,0.0,0.0,0.0,0.0,0.0,0.0,0.0,0.0,0.0,0.0,0.0,0.0,0.0,0.0,0.0,0.0,0.0,0.0,0.0,0.0,0.0,0.0,0.0,0.0,0.0,0.0,0.0,0.0,0.0,0.0,0.0,0.0,0.0,0.0,0.0,0.0,0.0,0.0,-5.399,-5.9924,-6.4101,-6.5819,-6.6795,-6.6131,-6.3282,-5.9339,-5.4929,-5.009,0.0,0.0,0.0,0.0,0.0,0.0,0.0,0.0,0.0,0.0,0.0,0.0,0.0,0.0,0.0,0.0,0.0,0.0,0.0,0.0,0.0,0.0,0.0,0.0,0.0,0.0,0.0,0.0,0.0,0.0,0.0,0.0,0.0,0.0,0.0,0.0,0.0,0.0,0.0,0.0,0.0,0.0,0.0,0.0,0.0,0.0,0.0,0.0,0.0,0.0,0.0,0.0,0.0,0.0,0.0,0.0,0.0,0.0,0.0,0.0,0.0,0.0,0.0,0.0,0.0,0.0,0.0,0.0,0.0,0.0,0.0,0.0,0.0,0.0,0.0,0.0,0.0,0.0,0.0,0.0,0.0,0.0,0.0,0.0,0.0,0.0,0.0,0.0,0.0,0.0,0.0,0.0,0.0,0.0,0.0,0.0,0.0,0.0,0.0,0.0,0.0,0.0,-5.3093,-5.848,-6.2345,-6.4104,-6.5077,-6.4179,-6.0705,-5.727,-5.2745,0.0,0.0,0.0,0.0,0.0,0.0,0.0,0.0,0.0,0.0,0.0,0.0,0.0,0.0,0.0,0.0,0.0,0.0,0.0,0.0,0.0,0.0,0.0,0.0,0.0,0.0,0.0,0.0,0.0,0.0,0.0,0.0,0.0,0.0,0.0,0.0,0.0,0.0,0.0,0.0,0.0,0.0,0.0,0.0,0.0,0.0,0.0,0.0,0.0,0.0,0.0,0.0,0.0,0.0,0.0,0.0,0.0,0.0,0.0,0.0,0.0,0.0,0.0,0.0,0.0,0.0,0.0,0.0,0.0,0.0,0.0,0.0,0.0,0.0,0.0,0.0,0.0,0.0,0.0,0.0,0.0,0.0,0.0,0.0,0.0,0.0,0.0,0.0,0.0,0.0,0.0,0.0,0.0,0.0,0.0,0.0,0.0,0.0,0.0,0.0,0.0,0.0,0.0,-5.2273,-5.7582,-6.1447,-6.3204,-6.414,-6.3516,-6.0627,-5.7822,-5.3884,-4.8419,0.0,0.0,0.0,0.0,0.0,0.0,0.0,0.0,0.0,0.0,0.0,0.0,0.0,0.0,0.0,0.0,0.0,0.0,0.0,0.0,0.0,0.0,0.0,0.0,0.0,0.0,0.0,0.0,0.0,0.0,0.0,0.0,0.0,0.0,0.0,0.0,0.0,0.0,0.0,0.0,0.0,0.0,0.0,0.0,0.0,0.0,0.0,0.0,0.0,0.0,0.0,0.0,0.0,0.0,0.0,0.0,0.0,0.0,0.0,0.0,0.0,0.0,0.0,0.0,0.0,0.0,0.0,0.0,0.0,0.0,0.0,0.0,0.0,0.0,0.0,0.0,0.0,0.0,0.0,0.0,0.0,0.0,0.0,0.0,0.0,0.0,0.0,0.0,0.0,0.0,0.0,0.0,0.0,0.0,0.0,0.0,0.0,0.0,0.0,0.0,0.0,0.0,-5.1414,-5.6996,-6.0939,-6.2345,-6.3243,-6.2855,-6.0595,-5.8028,-5.4325,-4.9133,0.0,0.0,0.0,0.0,0.0,0.0,0.0,0.0,0.0,0.0,0.0,0.0,0.0,0.0,0.0,0.0,0.0,0.0,0.0,0.0,0.0,0.0,0.0,0.0,0.0,0.0,0.0,0.0,0.0,0.0,0.0,0.0,0.0,0.0,0.0,0.0,0.0,0.0,0.0,0.0,0.0,0.0,0.0,0.0,0.0,0.0,0.0,0.0,0.0,0.0,0.0,0.0,0.0,0.0,0.0,0.0,0.0,0.0,0.0,0.0,0.0,0.0,0.0,0.0,0.0,0.0,0.0,0.0,0.0,0.0,0.0,0.0,0.0,0.0,0.0,0.0,0.0,0.0,0.0,0.0,0.0,0.0,0.0,0.0,0.0,0.0,0.0,0.0,0.0,0.0,0.0,0.0,0.0,0.0,0.0,0.0,0.0,0.0,0.0,0.0,0.0,0.0,-5.0516,-5.6489,-6.0512,-6.1486,-6.2347,-6.2158,-6.0411,-5.7962,-5.4335,-4.9258,0.0,0.0,0.0,0.0,0.0,0.0,0.0,0.0,0.0,0.0,0.0,0.0,0.0,0.0,0.0,0.0,0.0,0.0,0.0,0.0,0.0,0.0,0.0,0.0,0.0,0.0,0.0,0.0,0.0,0.0,0.0,0.0,0.0,0.0,0.0,0.0,0.0,0.0,0.0,0.0,0.0,0.0,0.0,0.0,0.0,0.0,0.0,0.0,0.0,0.0,0.0,0.0,0.0,0.0,0.0,0.0,0.0,0.0,0.0,0.0,-5.7808,-5.722,0.0,0.0,0.0,0.0,0.0,0.0,0.0,0.0,0.0,0.0,0.0,0.0,0.0,0.0,0.0,0.0,0.0,0.0,0.0,0.0,0.0,0.0,0.0,0.0,0.0,0.0,0.0,0.0,0.0,0.0,0.0,0.0,0.0,0.0,0.0,0.0,0.0,0.0,0.0,0.0,-4.9694,-5.5052,-5.8961,-6.0522,-6.1467,-6.128,-5.953,-5.7617,-5.4608,-5.0107,-4.4789,0.0,0.0,0.0,0.0,0.0,0.0,0.0,0.0,0.0,0.0,0.0,0.0,0.0,0.0,0.0,0.0,0.0,0.0,0.0,0.0,0.0,0.0,0.0,0.0,0.0,0.0,0.0,0.0,0.0,0.0,0.0,0.0,0.0,0.0,0.0,0.0,0.0,0.0,0.0,0.0,0.0,0.0,0.0,0.0,0.0,0.0,0.0,0.0,0.0,0.0,0.0,0.0,0.0,0.0,0.0,0.0,0.0,0.0,0.0,-6.3236,-6.1785,0.0,0.0,0.0,0.0,0.0,0.0,0.0,0.0,0.0,0.0,0.0,0.0,0.0,0.0,0.0,0.0,0.0,0.0,0.0,0.0,0.0,0.0,0.0,0.0,0.0,0.0,0.0,0.0,0.0,0.0,0.0,0.0,0.0,0.0,0.0,0.0,0.0,0.0,0.0,0.0,-4.8805,-5.397,-5.7687,-5.9017,-5.992,-5.9922,-5.859,-5.6865,-5.4239,-5.0356,-4.5614,0.0,0.0,0.0,0.0,0.0,0.0,0.0,0.0,0.0,0.0,0.0,0.0,0.0,0.0,0.0,0.0,0.0,0.0,0.0,0.0,0.0,0.0,0.0,0.0,0.0,0.0,0.0,0.0,0.0,0.0,0.0,0.0,0.0,0.0,0.0,0.0,0.0,0.0,0.0,0.0,0.0,0.0,0.0,0.0,0.0,0.0,0.0,0.0,0.0,0.0,0.0,0.0,0.0,-6.5976,-6.7147,-6.8159,-6.8886,-7.0516,-7.2629,-6.928,-6.7475,-6.6745,-6.573,0.0,0.0,0.0,0.0,0.0,0.0,0.0,0.0,0.0,0.0,0.0,0.0,0.0,0.0,0.0,0.0,0.0,0.0,0.0,0.0,0.0,0.0,-5.2656,-5.2377,-5.1747,-5.026,-4.6701,0.0,0.0,0.0,0.0,0.0,0.0,0.0,0.0,0.0,0.0,0.0,-4.8349,-5.3278,-5.6679,-5.7695,-5.8589,-5.8698,-5.7672,-5.6094,-5.3735,-5.0282,-4.6274,-4.2588,0.0,0.0,0.0,0.0,0.0,0.0,0.0,0.0,0.0,0.0,0.0,0.0,0.0,0.0,0.0,0.0,0.0,0.0,0.0,0.0,0.0,0.0,0.0,0.0,0.0,0.0,0.0,0.0,0.0,0.0,0.0,0.0,-4.5563,-4.5911,0.0,0.0,0.0,0.0,0.0,0.0,0.0,0.0,0.0,0.0,0.0,0.0,0.0,-6.3241,-6.5853,-6.6796,-6.8437,-7.082,-7.1052,-7.1981,-7.3486,-7.3588,-7.4675,-7.6435,-7.6633,0.0,-7.2073,-7.0417,0.0,0.0,0.0,0.0,0.0,0.0,0.0,0.0,0.0,0.0,0.0,0.0,0.0,0.0,0.0,0.0,0.0,0.0,0.0,0.0,0.0,0.0,-5.769,-5.6209,-5.5742,-5.5505,-5.4997,-5.1398,-4.7445,-4.4827,-4.2802,-4.0737,0.0,0.0,0.0,0.0,0.0,0.0,-4.9258,-5.3164,-5.6051,-5.7642,-5.857,-5.8439,-5.6812,-5.5753,-5.3709,-5.024,-4.7388,-4.4656,-4.1926,-3.8539,0.0,0.0,0.0,0.0,0.0,0.0,0.0,0.0,0.0,0.0,0.0,0.0,0.0,0.0,0.0,0.0,0.0,0.0,0.0,0.0,0.0,0.0,0.0,0.0,0.0,0.0,0.0,0.0,0.0,-4.5068,-4.8057,-4.9032,-4.9501,-4.923,0.0,0.0,0.0,0.0,0.0,0.0,0.0,0.0,0.0,-6.2615,-6.5659,-6.8276,-7.0428,-7.2692,-7.4406,-7.5534,-7.6534,-7.7372,-7.8129,-7.8564,-7.9169,-7.9954,-8.0812,-7.9803,-7.7233,-7.409,-7.0762,-6.7174,0.0,0.0,0.0,0.0,-5.9815,-6.0204,-6.0126,-5.9854,-5.9464,-5.8957,0.0,0.0,0.0,0.0,0.0,0.0,0.0,-5.2016,-5.4203,-5.6565,-5.83,-5.8033,-5.7574,-5.7226,-5.7264,-5.5117,-5.2421,-4.9841,-4.7148,-4.4452,-4.1913,-3.9295,0.0,0.0,0.0,-4.5311,-4.9564,-5.225,-5.4231,-5.5465,-5.5951,-5.5851,-5.5092,-5.4234,-5.2668,-5.0151,-4.8514,-4.6254,-4.3172,-4.0679,-3.7954,0.0,0.0,0.0,0.0,0.0,0.0,0.0,0.0,0.0,0.0,0.0,0.0,0.0,0.0,0.0,0.0,0.0,0.0,0.0,0.0,0.0,0.0,0.0,0.0,0.0,0.0,0.0,0.0,-4.7486,-5.0516,-5.2507,-5.2897,-5.2782,0.0,0.0,0.0,0.0,0.0,0.0,-6.0577,-6.2332,-6.4438,-6.7047,-7.0247,-7.2668,-7.4193,-7.7163,-7.8757,-7.8975,-8.0279,-8.0991,-8.1231,-8.1816,-8.2104,-8.2143,-8.2805,-8.2182,-8.0545,-7.7165,-7.3885,-7.0609,-6.7335,-6.5972,-6.5777,-6.5114,-6.5114,-6.5387,-6.4997,-6.4725,-6.4413,-6.3789,-6.149,-5.8646,-5.6503,0.0,0.0,0.0,0.0,-5.4092,-5.6237,-5.7619,-5.8616,-5.9254,-5.8726,-5.8112,-5.8146,-5.7096,-5.5462,-5.3162,-5.0423,-4.7679,-4.51,-4.2521,0.0,-4.3419,-4.4593,-4.6505,-4.9971,-5.1674,-5.2944,-5.3823,-5.3911,-5.381,-5.358,-5.2762,-5.1515,-4.98,-4.8904,-4.6995,-4.3757,-4.2198,-3.9786,-3.6317,0.0,0.0,0.0,0.0,0.0,0.0,0.0,0.0,0.0,0.0,0.0,0.0,0.0,0.0,0.0,0.0,0.0,0.0,0.0,0.0,0.0,0.0,0.0,0.0,0.0,0.0,0.0,0.0,0.0,-5.602,-5.6996,0.0,0.0,0.0,0.0,-5.863,-6.0351,-6.2447,-6.5041,-6.6848,-6.895,-7.1498,-7.4164,-7.5966,-7.6903,-7.866,-7.9931,-8.0748,-8.0865,-8.1309,-8.2032,-8.2071,-8.2104,-8.2104,-8.2143,-8.1636,-8.0734,-7.9688,-7.7701,-7.5129,-7.244,-7.0959,-7.0258,-7.0219,-6.9712,-6.9133,-6.9946,-6.9679,-6.8977,-6.8938,-6.605,-6.1997,-5.8607,-5.6308,0.0,0.0,-5.5645,-5.6511,-5.7403,-5.8884,-6.0179,-6.0239,-5.957,-5.897,-5.9009,-5.7058,-5.4765,-5.3027,-5.1888,-5.0358,-4.774,0.0,-4.4343,-4.6882,-4.6608,-4.7383,-5.079,-5.2035,-5.2922,-5.3818,-5.3892,-5.358,-5.2723,-5.1865,-5.0657,-4.8982,-4.8047,-4.6371,-4.3718,-4.2705,-4.064,-3.7214,-3.5304,0.0,0.0,0.0,0.0,0.0,0.0,0.0,0.0,0.0,0.0,0.0,0.0,0.0,0.0,0.0,0.0,0.0,0.0,0.0,0.0,0.0,0.0,0.0,0.0,0.0,0.0,0.0,0.0,-5.9571,-6.1603,0.0,-6.2045,-6.1673,-6.2421,-6.4726,-6.6479,-6.8302,-7.0358,-7.2062,-7.341,-7.432,-7.6327,-7.756,-7.7877,-7.8969,-7.97,-7.999,-8.0575,-8.0992,-8.1286,-8.1831,-8.1792,-8.1247,-8.1247,-8.0779,-7.9955,-7.9649,-7.8324,-7.6298,-7.3648,-7.2791,-7.2908,-7.1778,-7.1544,-7.1622,-7.0881,-7.0029,-6.9016,-6.7335,-6.5387,-6.3322,-6.1568,-5.9854,-5.849,-5.849,-5.8295,-5.8299,-5.9152,-5.9815,-6.0287,-6.0296,-5.9666,-5.8907,-5.8336,-5.7063,-5.5708,-5.4528,-5.3156,-5.1707,-5.0186,-4.874,-4.8077,-4.8977,-4.8821,-4.9286,-5.1066,-5.1573,-5.1881,-5.2177,-5.2216,-5.1865,-5.1008,-5.0657,-4.9761,-4.8086,-4.715,-4.5981,-4.4501,-4.3056,-4.1497,-3.9747,-3.7448,-3.4876,0.0,0.0,0.0,0.0,0.0,0.0,0.0,0.0,0.0,0.0,0.0,0.0,0.0,0.0,0.0,0.0,0.0,0.0,0.0,0.0,0.0,0.0,0.0,0.0,0.0,-5.5489,-6.008,-6.2696,-6.5312,-6.6761,-6.65,-6.6402,-6.7344,-6.9686,-7.0846,-7.2232,-7.3933,-7.5085,-7.5838,-7.6118,-7.7523,-7.8285,-7.8285,-7.9104,-7.9493,-7.9532,-8.0072,-8.0344,-8.0383,-8.0974,-8.0896,-8.0344,-8.0344,-8.0033,-7.9493,-7.922,-7.8441,-7.7272,-7.5519,-7.4856,-7.47,-7.3531,-7.3103,-7.2869,-7.1193,-7.0029,-6.8977,-6.6946,-6.5699,-6.4803,-6.3984,-6.2737,-6.1529,-6.1257,-6.0555,-5.9932,-6.0243,-6.0282,-6.0243,-5.9932,-5.9217,-5.8449,-5.7836,-5.7073,-5.6223,-5.5377,-5.4043,-5.2762,-5.1904,-5.0774,-5.0112,-5.0385,-5.019,-5.0307,-5.1203,-5.132,-5.132,-5.132,-5.1047,-5.0618,-5.0034,-4.9488,-4.8553,-4.715,-4.6258,-4.5244,-4.4072,-4.2903,-4.177,-4.0679,-3.7798,-3.5226,-3.2969,0.0,0.0,0.0,0.0,0.0,0.0,0.0,0.0,0.0,0.0,0.0,0.0,0.0,0.0,0.0,0.0,0.0,0.0,0.0,0.0,0.0,0.0,0.0,-5.3776,-5.8566,-6.2811,-6.5468,-6.8005,-6.9848,-7.0757,-7.0857,-7.1562,-7.3238,-7.333,-7.4034,-7.5638,-7.5751,-7.6118,-7.696,-7.7818,-7.8246,-7.8246,-7.9026,-7.9415,-7.9415,-7.9454,-7.9454,-7.9454,-7.9493,-7.9493,-7.9454,-7.9454,-7.9454,-7.9376,-7.8597,-7.8246,-7.8207,-7.8207,-7.7194,-7.5674,-7.5635,-7.4544,-7.283,-7.1154,-7.0029,-6.9128,-6.8271,-6.7369,-6.6556,-6.566,-6.4803,-6.3945,-6.3127,-6.227,-6.1412,-6.0516,-6.0282,-6.0088,-5.9152,-5.8295,-5.7676,-5.7676,-5.7052,-5.6234,-5.5372,-5.4511,-5.3615,-5.2762,-5.1164,-5.0346,-5.1164,-5.0579,0.0,-5.1203,-5.132,-5.1281,-5.1242,-5.0502,-4.9995,-4.9917,-4.8397,-4.7072,-4.6219,-4.5283,-4.4033,-4.2354,-4.2237,-4.1458,-3.9825,-3.6434,-3.3826,-3.2111,0.0,0.0,0.0,0.0,0.0,0.0,0.0,0.0,0.0,0.0,0.0,0.0,0.0,0.0,0.0,0.0,0.0,0.0,0.0,0.0,0.0,-5.1406,-5.527,-5.6589,-6.1182,-6.5663,-6.8903,-7.1011,-7.2583,-7.3422,-7.4062,-7.4596,-7.5087,-7.5651,-7.618,-7.6632,-7.6632,-7.6744,-7.6999,-7.7233,-7.735,-7.735,-7.7584,-7.7701,-7.7701,-7.8324,-7.8636,-7.8636,-7.922,-7.9181,-7.8636,-7.8636,-7.8285,-7.7662,-7.7467,-7.6999,-7.6415,-7.6415,-7.6103,-7.5558,-7.4272,-7.3103,-7.1934,-7.0219,-6.9484,-6.905,-6.7569,-6.6902,-6.6556,-6.566,-6.4803,-6.3945,-6.3127,-6.227,-6.1412,-6.0516,-6.0282,-5.9932,-5.8412,-5.7871,-5.7559,-5.6974,-5.6663,-5.6234,-5.5372,-5.4511,-5.3615,-5.2762,-5.1671,-5.1008,-5.1242,-5.1086,-5.1047,-5.1281,-5.132,-5.1047,-5.0424,-5.0151,-4.9527,-4.828,-4.7189,-4.618,-4.5322,-4.3293,-4.2202,-4.2315,-4.1146,-4.0253,-3.9825,-3.7603,-3.5343,0.0,0.0,0.0,0.0,0.0,0.0,0.0,0.0,0.0,0.0,0.0,0.0,0.0,0.0,0.0,0.0,0.0,0.0,0.0,0.0,0.0,0.0,-5.554,-5.9374,-6.1289,-6.4482,-6.7748,-7.0872,-7.2785,-7.4162,-7.5037,-7.5855,-7.6339,-7.6301,-7.6737,-7.6999,-7.6999,-7.6999,-7.6999,-7.6999,-7.6999,-7.6999,-7.6999,-7.6999,-7.6999,-7.6999,-7.7506,-7.7779,-7.7779,-7.8246,-7.8207,-7.7779,-7.7779,-7.7467,-7.6999,-7.6999,-7.6493,-7.5713,0.0,0.0,0.0,0.0,-7.2245,-7.1544,-6.9874,-6.9289,-6.9011,-6.7257,-6.6439,-6.605,-6.5543,-6.4569,-6.3517,-6.3049,-6.1997,-6.0867,-5.9971,-5.9464,-5.888,-5.752,-5.7208,-5.7052,-5.6585,-5.6191,-5.5684,-5.4823,-5.3966,0.0,-5.2216,-5.1632,-5.132,-5.132,-5.132,-5.132,-5.132,-5.132,-5.0969,-5.0073,-4.9683,-4.8943,-4.7618,-4.6686,0.0,0.0,0.0,-4.2042,-4.1809,-4.0874,0.0,0.0,0.0,0.0,0.0,0.0,0.0,0.0,-3.1408,-3.2265,0.0,0.0,0.0,0.0,0.0,0.0,0.0,0.0,0.0,0.0,0.0,0.0,0.0,0.0,0.0,0.0,-5.9232,-6.3186,-6.6468,-6.7773,-6.9331,-7.183,-7.3587,-7.492,-7.5738,-7.6583,-7.7062,-7.7012,-7.6994,-7.6999,-7.6999,-7.6999,0.0,0.0,0.0,-7.6999,-7.6999,-7.6999,-7.6999,-7.6999,-7.6999,-7.6999,-7.6999,-7.6999,-7.6999,-7.6999,-7.6999,-7.696,-7.6843,-7.6843,-7.6298,-7.5402,-7.5402,-7.4388,-7.2869,-7.2089,-7.1739,-7.1427,-6.9835,0.0,0.0,-6.7219,-6.6127,-6.5387,-6.527,-6.414,-6.2893,-6.2776,-6.1568,-6.0088,-5.923,-5.8334,-5.752,-5.6702,-5.6507,-5.6507,-5.6507,-5.5879,-5.5061,-5.4082,-5.3268,-5.245,-5.1476,-5.132,-5.132,-5.132,-5.132,-5.132,-5.132,-5.132,-5.093,-4.9956,0.0,0.0,-4.7423,-4.6569,-4.5712,-4.4933,-4.4072,-4.29,-4.1302,-4.1341,-4.0951,-4.0097,-4.0097,-3.9279,-3.7642,-3.772,-3.8188,-3.8889,-3.624,-3.6434,0.0,0.0,0.0,0.0,0.0,0.0,0.0,0.0,0.0,0.0,0.0,0.0,0.0,0.0,0.0,-5.7821,-6.1942,-6.547,-6.7542,-6.9152,-7.0842,-7.273,-7.3902,-7.4875,-7.5724,-7.6558,-7.6997,-7.7008,-7.6994,-7.6999,-7.6999,-7.6999,-7.6999,-7.6999,-7.6999,-7.6999,-7.6999,-7.6999,-7.6999,-7.6999,-7.6999,0.0,-7.6999,-7.6999,-7.6999,-7.6999,-7.6999,-7.661,-7.5947,-7.5947,-7.5012,-7.3609,-7.3609,-7.2986,-7.2011,-7.1856,-7.1388,-7.0687,-6.9679,-6.8855,-6.8076,-6.7024,-6.6127,-6.527,-6.4569,-6.3672,0.0,-6.2036,-6.1101,-6.0088,-5.923,-5.8334,-5.752,-5.6702,-5.6507,-5.6507,-5.6507,-5.639,-5.5762,-5.4203,-5.3771,-5.3151,-5.1554,-5.132,-5.132,-5.132,-5.132,-5.132,-5.132,-5.132,-5.0735,-4.9177,-4.8904,-4.8164,-4.6608,-4.5634,-4.5089,-4.4894,-4.4072,-4.3133,-4.212,-4.2744,-4.2705,-4.1848,-4.1809,-4.1341,-4.037,-4.099,-4.138,-4.1497,-3.8928,-3.9123,0.0,0.0,0.0,0.0,0.0,0.0,0.0,0.0,0.0,0.0,0.0,-4.9021,-5.2103,0.0,-5.8601,-6.1175,-6.4505,-6.7208,-6.8539,-7.0138,-7.1682,-7.3059,-7.357,-7.4186,-7.5062,-7.551,-7.5721,-7.5684,-7.5691,-7.5908,-7.6337,-7.6337,-7.6532,-7.6999,-7.6999,-7.6999,-7.6999,-7.6999,-7.6999,-7.6999,-7.6571,-7.6337,-7.6337,-7.5908,-7.5713,-7.5713,-7.5713,-7.5441,-7.5012,-7.4583,-7.3882,-7.3064,-7.2635,-7.2167,-7.1739,-7.1349,-7.0959,-7.0414,-6.9089,-6.8349,-6.7876,-6.698,-6.5816,-6.4686,-6.4218,-6.3244,-6.2153,-6.1724,-6.0672,-5.9542,-5.9113,-5.8066,-5.7013,-5.6585,-5.6507,-5.6507,-5.6507,-5.6152,-5.5606,-5.4706,-5.3849,-5.2957,-5.2099,-5.1593,-5.132,-5.132,-5.132,-5.132,-5.132,-5.132,-5.0813,-4.9527,-4.9021,-4.828,-4.6956,-4.6063,-4.5361,-4.4933,-4.4501,-4.3877,-4.2978,-4.3367,-4.3406,-4.2978,-4.2939,-4.2744,-4.2354,-4.2744,-4.3172,-4.3565,-4.2318,-4.2396,0.0,0.0,0.0,0.0,0.0,0.0,0.0,0.0,-4.5004,-4.8319,-5.0891,-5.3502,-5.6663,-5.9308,-6.1763,-6.3984,-6.64,-6.8271,-6.8933,-7.0375,-7.158,-7.2356,-7.287,-7.3442,-7.4147,-7.4377,-7.4475,-7.4394,-7.4388,-7.47,-7.5402,-7.5441,-7.5752,-7.6454,-7.6649,-7.6688,-7.6493,-7.6649,-7.6649,-7.6493,-7.5791,-7.5441,-7.5402,-7.4739,-7.4388,-7.4388,-7.4233,-7.4155,-7.4077,-7.3219,-7.283,-7.2752,-7.1895,-7.1583,-7.1505,-7.0842,-7.0375,-6.9907,-6.8504,-6.7876,-6.7642,-6.6941,-6.5504,-6.4101,-6.4101,-6.2932,-6.1607,-6.1607,-6.0477,-5.9191,-5.9035,-5.7871,-5.6702,-5.6546,-5.6507,-5.6507,-5.6507,-5.5957,-5.5411,-5.5212,-5.3927,-5.2801,-5.2645,-5.1865,-5.132,-5.132,-5.132,-5.132,-5.132,-5.132,-5.0969,-5.0073,-4.9294,-4.8397,-4.7345,-4.6608,-4.5907,-4.5205,-4.5166,-4.4851,-4.4147,-4.4108,-4.4108,-4.4108,-4.4108,-4.4108,-4.4108,-4.4108,-4.4462,-4.5166,-4.5166,-4.5166,-4.3328,-4.4734,-4.6332,-4.5631,-4.7189,-4.9099,0.0,0.0,-5.1047,-5.3771,-5.5762,-5.7594,-5.9503,-6.1958,-6.4023,-6.5075,-6.6785,-6.8032,-6.8115,-6.8972,-6.9606,-6.9733,-7.1721,-7.3158,-7.323,-7.3971,-7.4394,-7.4388,-7.4388,-7.4427,-7.4544,-7.4544,-7.4583,-7.47,-7.5441,-7.548,-7.47,-7.548,-7.548,-7.47,-7.4583,-7.4544,-7.4544,-7.4427,-7.4388,-7.435,-7.357,-7.3258,-7.3181,-7.2284,-7.1934,-7.1856,-7.1037,-7.0726,-7.0726,-7.0609,-6.9634,-6.8271,-6.8071,-6.7486,-6.6824,-6.6751,-6.5504,-6.4101,-6.4101,-6.2932,-6.1607,-6.1607,-6.0906,-5.9971,-5.9191,-5.8295,-5.7403,-5.6663,-5.6507,-5.6507,-5.6507,-5.6429,-5.6113,-5.5333,-5.4433,-5.3502,-5.2723,-5.1865,-5.132,-5.132,-5.132,-5.132,-5.132,-5.132,-5.0969,-5.0073,-4.9294,-4.8125,-4.6491,-4.6258,-4.618,-4.6063,-4.6063,-4.6024,-4.5903,-4.5903,-4.5903,-4.5903,-4.5903,-4.5903,-4.5903,-4.5903,-4.5942,-4.6063,-4.6063,-4.6063,-4.6098,-4.7735,-4.9761,-4.9878,-5.1865,-5.4009,-5.4827,-5.5411,-5.6386,-5.849,-6.0243,-6.1802,-6.3049,-6.4569,-6.5738,-6.6088,-6.7174,-6.7993,-6.7993,-6.8738,-6.9289,-6.9289,-7.0219,-7.1076,-7.1583,-7.2401,-7.2908,-7.2908,-7.2908,-7.3103,-7.3609,-7.3648,-7.3882,-7.4388,-7.4739,-7.4778,-7.4388,-7.4778,-7.4778,-7.4388,-7.3882,-7.3648,-7.3648,-7.3103,-7.2908,-7.2869,-7.2518,-7.2323,-7.2323,-7.1934,-7.1505,-7.1076,-7.0726,-6.9985,-6.9089,-6.9089,-6.8621,-6.7915,-6.7408,-6.698,-6.6634,-6.6127,-6.5114,-6.4023,-6.3556,-6.2542,-6.1607,-6.1607,-6.0984,-6.0088,-5.923,-5.8334,-5.752,-5.6702,-5.6507,-5.6507,-5.6507,-5.6507,-5.639,-5.6035,-5.4827,-5.3771,-5.3424,-5.2216,-5.132,-5.132,-5.132,-5.132,-5.132,-5.132,-5.0774,-4.9449,-4.8982,-4.8086,-4.6336,-4.6219,-4.6219,-4.6219,-4.6219,-4.6219,-4.6219,-4.6219,-4.6219,-4.6219,-4.6219,-4.6219,-4.6219,-4.6725,-4.6959,-4.6956,-4.7462,-4.7696,-4.8592,-5.0618,-5.2879,-5.3502,-5.5801,-5.7988,-5.8334,-5.9074,-6.0088,-6.1334,-6.2581,-6.3672,-6.4569,-6.5231,-6.5816,-6.6283,-6.6863,-6.7369,-6.7603,-6.8193,-6.8582,-6.8582,-6.8816,-6.9206,-6.9829,-7.0648,-7.1193,-7.1466,-7.1466,-7.1856,-7.2713,-7.2752,-7.3025,-7.3648,-7.3921,-7.3921,-7.3687,-7.3921,-7.3921,-7.3687,-7.3025,-7.2752,-7.2713,-7.2089,-7.1817,-7.1778,-7.1583,-7.1466,-7.1466,-7.1193,-7.0765,-7.0219,-6.9985,-6.9128,-6.7954,-6.772,-6.7642,-6.7564,-6.6902,-6.6712,-6.6556,-6.5699,-6.4803,-6.3945,-6.3127,-6.2309,-6.1607,-6.1607,-6.114,-6.0399,-5.9269,-5.8529,-5.7793,-5.6741,-5.6507,-5.6507,-5.6507,-5.6507,-5.6507,-5.6507,-5.51,-5.3888,-5.3888,-5.245,-5.132,-5.132,-5.132,-5.132,-5.132,-5.132,-5.0657,-4.8982,-4.8787,-4.8086,-4.6336,-4.6219,-4.6219,-4.6219,-4.6219,-4.6219,-4.6219,-4.6414,-4.6569,-4.6569,-4.6803,-4.692,-4.692,-4.754,-4.7852,-4.7852,-4.8514,-4.8787,-5.0735,-5.3697,-5.6351,-5.639,-5.8918,-6.1218,-6.0399,-6.0906,-6.1529,-6.1607,-6.1646,-6.1958,-6.2815,-6.301,-6.3556,-6.5192,-6.5465,-6.5777,-6.6634,-6.6751,-6.679,-6.679,-6.7525,-6.8032,-6.8071,-6.8855,-6.9718,-7.057,-7.0648,-7.0998,-7.1817,-7.1856,-7.1856,-7.1895,-7.2713,-7.2713,-7.1895,-7.2713,-7.2713,-7.1895,-7.1856,-7.1856,-7.1856,-7.1817,-7.1817,-7.1778,-7.0959,-7.0648,-7.057,-6.9718,-6.9367,-6.925,-6.8427,-6.8032,-6.7915,-6.7057,-6.6751,-6.6751,-6.6712,-6.6712,-6.6556,-6.5699,-6.4803,-6.3945,-6.3127,-6.2309,-6.1607,-6.1607,-6.1568,-6.1179,-5.9464,-5.8996,-5.8529,-5.6896,-5.6507,-5.6507,-5.6507,-5.6507,-5.6507,-5.6507,-5.51,-5.3888,-5.3888,-5.245,-5.132,-5.132,-5.132,-5.132,-5.132,-5.132,-5.0657,-4.8982,-4.8787,-4.8086,-4.6336,-4.6219,-4.6219,-4.6219,-4.6219,-4.6219,-4.6219,-4.6995,-4.7462,-4.7462,-4.828,-4.8709,-4.8709,-4.8748,-4.8748,-4.8748,-4.8787,-4.8787,-5.1865,-5.51,-5.8299,-5.888,-6.1179,-6.3166,-6.2893,-6.3049,-6.3127,-6.2581,-6.1997,-6.1685,-6.1997,-6.2036,-6.2581,-6.4257,-6.5036,-6.5699,-6.6595,-6.6712,-6.6712,-6.6712,-6.6941,-6.7135,-6.7135,-6.8465,-6.9679,-7.0531,-7.0609,-7.0959,-7.1778,-7.1817,-7.1817,-7.1817,-7.2089,-7.2089,-7.1817,-7.2089,-7.2089,-7.1817,-7.1817,-7.1817,-7.1778,-7.1232,-7.0998,-7.0959,-7.0107,-6.9757,-6.9718,-6.9406,-6.8972,-6.8427,-6.8115,-6.7642,-6.7096,-6.6829,-6.6712,-6.6712,-6.6712,-6.6322,-6.5699,-6.4803,-6.3984,-6.3166,-6.2309,-6.1841,-6.1607,-6.1607,-6.1607,-6.1218,-5.9464,-5.8996,-5.8568,-5.6896,-5.6507,-5.6507,-5.6507,-5.6507,-5.6507,-5.6507,-5.51,-5.3888,-5.3888,-5.245,-5.132,-5.132,-5.132,-5.132,-5.132,-5.132,-5.0852,-4.9722,-4.9605,-4.9138,-4.8008,-4.793,-4.793,-4.793,-4.793,-4.793,-4.793,-4.8202,-4.8358,-4.8358,-4.8631,-4.8787,-4.8787,-4.9333,-4.9605,-4.9605,-5.019,-5.0463,-5.4009,-5.7126,-6.0049,-6.0633,-6.2465,-6.3867,-6.2932,-6.2971,-6.2776,-6.1334,-6.0126,-5.9425,-5.9737,-5.9503,-6.0088,-6.2387,-6.3711,-6.4919,-6.6088,-6.6517,-6.6712,-6.6712,-6.6712,-6.6712,-6.6712,-6.7725,-6.8738,-6.9596,-6.9946,-7.0492,-7.131,-7.1622,-7.1817,-7.1817,-7.1817,-7.1817,-7.1817,-7.1817,-7.1661,-7.1349,-7.1076,-7.092,-7.0881,-7.0375,-7.0146,-7.0107,-6.9206,-6.8855,-6.8816,-6.8504,-6.8037,-6.7525,-6.7525,-6.7174,-6.6712,-6.6712,-6.6712,-6.6712,-6.6712,-6.6127,-6.527,-6.4374,-6.3556,-6.2737,-6.1841,-6.1607,-6.1607,-6.1607,-6.1607,-6.1218,-5.9464,-5.8996,-5.8568,-5.6896,-5.6507,-5.6507,-5.6507,-5.6507,-5.6507,-5.6507,-5.51,-5.3888,-5.3888,-5.245,-5.132,-5.132,-5.132,-5.132,-5.132,-5.132,-5.0969,-5.0073,-4.9995,-4.9683,-4.8865,-4.8787,-4.8787,-4.8787,-4.8787,-4.8787,-4.8787,-4.9099,-4.9216,-4.9216,-4.9527,-4.9683,-4.9683,-5.0229,-5.0463,-5.0463,-5.1047,-5.132,-5.7165,-5.9776,-6.1763,-6.1724,-6.2932,-6.3439,-6.0945,-6.0945,-6.0711,-5.81,-5.6191,-5.5256,0.0,0.0,-5.6191,-5.962,-6.1685,-6.3478,-6.5153,-6.6166,-6.6712,-6.6712,-6.6712,-6.6712,-6.6712,-6.6712,-6.7019,-6.7876,-6.8777,-6.9679,-7.0531,-7.1349,-7.1817,-7.1817,-7.1817,-7.1778,-7.1739,-7.17,-7.1271,-7.0531,-6.9718,-6.9289,-6.9289,-6.925,-6.925,-6.9167,-6.831,-6.7915,-6.7876,-6.7019,-6.6712,-6.6712,-6.6712,-6.6712,-6.6712,-6.6712,-6.6712,-6.6668,-6.6634,-6.605,-6.5192,-6.4374,-6.3517,-6.2698,-6.1841,-6.1607,-6.1607,-6.1607,-6.1568,-6.114,-5.9425,-5.8957,-5.8529,-5.6896,-5.6507,-5.6507,-5.6507,-5.6507,-5.6507,-5.6507,-5.51,-5.3849,-5.3771,-5.2411,-5.132,-5.132,-5.132,-5.132,-5.132,-5.132,-5.0965,-5.0151,-5.0069,-4.9757,-4.8982,-4.8943,-4.8943,-4.8943,-4.8943,-4.8943,-4.8943,-4.9644,-5.0073,-5.0073,-5.0891,-5.132,-5.132,-5.132,-5.132,-5.132,-5.132,-5.132,-5.9113,-6.1997,-6.4296,-6.3634,-6.3789,-6.3595,-6.1685,-6.0438,-5.8957,-5.6386,-5.397,-5.2372,-5.2567,-5.2957,-5.4398,-5.7827,-6.0906,0.0,-6.5153,-6.6166,0.0,-6.6712,-6.6712,-6.6712,-6.6712,-6.6712,-6.679,-6.7019,-6.8427,-6.9679,-7.0531,-7.1349,-7.1817,-7.1817,-7.1817,-7.1505,-7.092,-7.0258,-6.9835,-6.964,-6.9406,-6.9289,-6.9289,-6.8621,-6.8349,-6.8271,-6.7413,-6.7019,-6.7019,-6.679,-6.6712,-6.6712,-6.6712,-6.6712,-6.6712,-6.6712,-6.6712,-6.6595,-6.5972,-6.5153,-6.4374,-6.4179,-6.3127,-6.188,-6.1685,-6.1607,-6.1607,-6.1607,-6.114,-6.036,-5.9269,-5.8529,-5.7754,-5.6741,-5.6507,-5.6507,-5.6507,-5.6507,-5.6507,-5.6507,-5.51,-5.3502,-5.2177,-5.1593,-5.132,-5.132,-5.132,-5.132,-5.132,-5.1308,-5.1217,-5.0984,-5.0927,-5.0849,-5.0672,-5.0676,-5.0641,-5.0657,-5.0657,-5.0657,-5.0657,-5.0852,-5.0969,-5.0969,-5.1203,-5.132,-5.132,-5.132,-5.132,-5.132,-5.132,-5.132,-6.1412,-6.3634,-6.5192,-6.4335,-6.3828,-6.2927,-6.0463,-5.8281,-5.6022,-5.3437,-5.0559,-4.8733,-4.9465,-4.9975,-5.1572,0.0,0.0,0.0,-6.3969,-6.5338,-6.6278,0.0,-6.6696,0.0,-6.6674,-6.6674,-6.6674,-6.6674,-6.8299,-6.9362,-6.944,-7.0609,-7.1115,-7.0726,-7.0687,-7.0492,-7.0029,-6.9167,-6.8738,-6.8738,-6.8349,-6.8154,-6.8154,-6.7647,-6.7408,-6.7408,-6.6902,-6.6712,-6.6712,-6.6712,-6.6712,-6.6712,-6.6712,-6.6712,-6.6712,-6.6712,-6.6478,-6.605,-6.5582,-6.4608,-6.3556,-6.3556,-6.2698,-6.1607,-6.1607,-6.1607,-6.1607,-6.1607,-6.0984,-6.0088,-5.923,-5.8334,-5.752,-5.6702,-5.6507,-5.6507,-5.6507,-5.6507,-5.6386,-5.5987,-5.5117,-5.3978,-5.2611,-5.2065,-5.1836,-5.1836,-5.1486,-5.1252,-5.1252,-5.1291,-5.1287,-5.1273,-5.122,-5.1215,-5.123,-5.1282,-5.13,-5.1316,-5.132,-5.132,-5.132,-5.132,-5.132,-5.132,-5.132,-5.132,-5.132,-5.132,-5.132,-5.132,-5.132,-5.132,-6.3634,-6.4919,-6.5309,-6.4218,-6.3322,-6.1797,-5.8189,-5.5302,-5.265,-5.0018,-4.6757,-4.4853,-4.6433,-4.6909,-4.8431,-5.2616,0.0,-5.9698,-6.2118,-6.4164,-6.5689,-6.6441,-6.663,-6.6651,-6.6581,-6.6575,-6.6607,-6.6607,-6.8143,-6.8761,-6.8021,-6.9546,-7.0052,-6.9312,-6.9156,-6.9123,-6.9123,-6.826,-6.7831,-6.7837,-6.7057,-6.6707,-6.6712,-6.6712,-6.6712,-6.6712,-6.6712,-6.6712,-6.6712,-6.6712,-6.6712,-6.6712,-6.6712,-6.6712,-6.6712,-6.6712,-6.6166,-6.5387,-6.527,-6.4218,-6.2893,-6.2893,-6.2309,-6.1607,-6.1607,-6.1607,-6.1607,-6.1607,-6.0906,-5.9932,-5.9191,-5.8256,-5.7364,-5.6663,-5.6507,-5.6507,-5.6507,-5.6503,-5.6221,-5.5263,-5.5078,-5.4824,-5.3958,-5.3141,-5.264,-5.2485,-5.1857,-5.1312,-5.1196,-5.1264,-5.1269,-5.1201,-5.1201,-5.1201,-5.1201,-5.1264,-5.1291,-5.1308,-5.1273,-5.1273,-5.1273,-5.1273,-5.1273,-5.1273,-5.1273,-5.1273,-5.1316,-5.1316,-5.1316,-5.132,-5.132,-5.132,-6.488,-6.5816,-6.5933,-6.3672,-6.2465,-6.0706,-5.6514,-5.3034,0.0,0.0,-4.4063,-4.2,-4.3008,-4.4331,-4.6429,-5.0087,-5.4767,-5.8597,-6.0477,-6.3424,-6.5455,0.0,-6.6217,-6.6581,-6.6503,-6.6507,-6.6531,-6.6531,-6.7479,-6.802,-6.7924,-6.8897,-6.9364,-6.9208,-6.8507,-6.8118,-6.8118,-6.7262,-6.6885,-6.6914,-6.6758,-6.6691,-6.6712,-6.6712,-6.6712,-6.6712,-6.6712,-6.6712,-6.6712,-6.6712,-6.6712,-6.6712,-6.6712,-6.6712,-6.6712,-6.6712,-6.6166,-6.5309,-6.4569,-6.3711,-6.2893,-6.2893,-6.2309,-6.1607,-6.1607,-6.1607,-6.1607,-6.1607,-6.0438,-5.9191,-5.9035,-5.7871,-5.6663,-5.6546,-5.6507,-5.6507,-5.6507,-5.645,-5.6154,-5.5273,-5.5047,-5.4747,-5.3862,-5.3584,-5.3234,-5.2529,-5.2296,-5.1913,-5.1214,-5.1169,-5.1175,-5.1103,-5.1175,-5.1175,-5.1136,-5.1169,-5.1234,-5.122,-5.122,-5.122,-5.122,-5.122,-5.122,-5.122,-5.122,-5.1234,-5.1295,-5.1295,-5.1304,-5.132,-5.132,-5.132,-6.5738,-6.64,-6.6088,-6.3556,-6.188,-5.9767,-5.541,0.0,0.0,0.0,-4.1686,-3.9392,-4.0714,-4.1954,0.0,-4.7364,-5.1885,-5.5864,-5.8526,-6.1863,-6.4354,-6.5258,-6.6043,-6.6514,-6.6431,-6.6469,-6.6445,-6.6445,-6.6833,-6.7107,-6.7182,-6.7578,-6.7772,-6.7772,-6.7384,-6.7189,-6.7189,-6.6743,-6.6575,-6.6645,-6.6663,-6.6686,-6.6712,-6.6712,-6.6712,-6.6712,-6.6712,-6.6712,-6.6712,-6.6712,-6.6712,-6.6712,-6.6712,-6.6712,-6.6634,-6.6205,-6.5465,-6.4608,-6.3789,-6.2932,-6.2231,-6.2231,-6.1958,-6.1607,-6.1607,-6.1607,-6.1607,-6.1607,-6.0321,-5.8996,-5.8996,-5.7754,-5.6503,-5.645,-5.6437,-5.6466,-5.6466,-5.6407,-5.6225,-5.5802,-5.565,-5.5502,-5.5073,-5.464,-5.4174,-5.374,-5.2932,-5.2195,-5.1768,-5.1399,-5.1127,-5.1069,-5.1108,-5.1108,-5.103,-5.1107,-5.1136,-5.1164,-5.1164,-5.1164,-5.1164,-5.1164,-5.1164,-5.1164,-5.118,-5.1206,-5.1269,-5.1282,-5.13,-5.132,-5.132,-5.132,-6.6011,-6.6556,-6.605,-6.3283,-6.1295,-5.8792,-5.4071,-4.9143,0.0,-4.3044,-3.9534,-3.7281,-3.883,-3.9806,-4.1398,0.0,-4.8594,-5.2496,-5.6018,-5.9814,-6.2854,0.0,-6.577,0.0,-6.6381,-6.6376,0.0,-6.6349,-6.6349,-6.6394,-6.6477,-6.6485,-6.6485,-6.6485,-6.6485,-6.6485,-6.6485,-6.6485,-6.6521,-6.6562,-6.6633,-6.6669,-6.6691,-6.6691,-6.6696,-6.6702,-6.6696,-6.6696,-6.6702,-6.6696,-6.6696,-6.6702,-6.6702,-6.659,-6.6361,-6.566,-6.4725,-6.375,-6.3127,-6.2348,-6.1607,-6.1607,-6.1607,-6.1607,-6.1607,-6.1607,-6.1607,-6.1607,-6.0321,-5.8996,-5.8996,-5.7754,-5.6498,-5.6388,-5.6363,-5.6375,-5.637,-5.6308,-5.6272,-5.6278,-5.6199,-5.6163,-5.6157,-5.5606,-5.5064,-5.4909,-5.3708,-5.2707,-5.232,-5.1894,-5.1538,-5.1266,-5.1164,-5.1055,-5.1009,-5.1043,-5.1114,-5.1101,-5.1101,-5.1101,-5.1101,-5.1101,-5.1101,-5.1101,-5.1136,-5.1164,-5.119,-5.1259,-5.1364,-5.1576,-5.1576,-5.1658,-6.527,-6.6088,-6.5894,-6.2542,-6.0399,-5.7585,-5.1697,0.0,-4.3025,-4.0495,-3.7749,-3.6101,-3.7075,-3.7967,-3.9402,-4.2045,0.0,-4.8896,-5.2382,-5.7185,-6.096,-6.2664,0.0,0.0,-6.6322,-6.6235,-6.6205,-6.6205,-6.6205,-6.6284,-6.6394,-6.6394,-6.6394,-6.6394,-6.6394,-6.6394,-6.6394,-6.6398,-6.6439,-6.6516,-6.6599,-6.6601,-6.6594,-6.6594,-6.6651,-6.6713,-6.6645,-6.6651,-6.6713,-6.6645,-6.6651,-6.6713,-6.6713,-6.6223,-6.5504,-6.5426,-6.4374,-6.301,-6.2932,-6.2348,-6.1607,-6.1607,-6.1607,-6.1607,-6.1607,-6.1607,-6.1607,-6.1607,-6.0321,-5.8996,-5.8996,-5.7754,-5.6455,-5.6329,-5.6292,-5.6302,-5.6233,-5.6194,-5.6199,-5.6117,-5.6118,-5.6078,-5.6029,-5.5943,-5.5634,-5.4899,-5.4666,-5.4017,-5.2392,-5.2856,-5.2972,-5.216,-5.1484,-5.1087,-5.1012,-5.1041,-5.1107,-5.1107,-5.1107,-5.1107,-5.1107,-5.1107,-5.1107,-5.1107,-5.1108,-5.1101,-5.1092,-5.1164,-5.1624,-5.2383,-5.2383,-5.2826,-6.347,-6.4482,-6.4438,-6.1484,-5.907,-5.6101,-5.1084,0.0,-4.2107,-4.0019,-3.7541,-3.5805,-3.6135,-3.6934,-3.8169,-4.025,-4.3418,-4.6836,-5.0358,-5.4834,-5.8559,-6.0748,-6.2801,0.0,0.0,0.0,-6.5682,-6.6147,-6.6185,-6.6205,-6.6284,-6.6293,-6.6293,-6.6293,-6.6293,-6.6293,-6.6293,-6.634,-6.6346,-6.6398,-6.6439,-6.6516,-6.656,-6.6542,-6.6569,-6.6645,-6.6627,-6.6322,-6.5867,-6.5809,-6.5504,-6.5088,-6.5105,-6.4938,-6.4569,-6.4062,-6.3478,-6.2815,-6.2309,-6.188,-6.1607,-6.1607,-6.1607,-6.1607,-6.1607,-6.1607,-6.1602,-6.1549,-6.0302,-5.8973,-5.8953,-5.7653,-5.6386,-5.6308,-5.6272,-5.6233,-5.6199,-5.6216,-5.6194,-5.611,-5.6086,-5.6062,-5.6012,-5.6012,-5.5896,-5.5586,-5.5122,-5.4542,-5.3846,-5.3614,-5.3382,-5.3033,-5.2717,-5.2307,-5.1788,-5.1757,-5.1532,-5.1029,-5.1455,-5.1765,-5.1765,-5.2268,-5.2307,-5.1765,-5.1809,-5.1573,-5.1024,-5.1638,-5.2102,-5.2436,-5.2964,-5.3413,-6.1544,-6.3016,-6.3366,-6.0487,-5.8076,-5.5114,-5.022,-4.5525,-4.1611,-3.9611,-3.736,-3.5702,-3.5679,-3.6211,-3.7174,-3.89,-4.1368,-4.4389,-4.8134,-5.2087,-5.5568,0.0,0.0,-6.1986,-6.3689,-6.4551,-6.5334,-6.6147,-6.6185,-6.6185,-6.6185,-6.6185,-6.6185,-6.6185,-6.6185,-6.6185,-6.6185,-6.6284,-6.6283,-6.6281,-6.6364,-6.6406,-6.6477,-6.6477,-6.6514,-6.6549,-6.6315,-6.5855,-6.5239,-6.4999,-6.4526,-6.3988,-6.4025,-6.3943,-6.3663,-6.3078,-6.2732,-6.2426,-6.1792,-6.1559,-6.1559,-6.1588,-6.1549,-6.1559,-6.1588,-6.1403,-6.1213,-6.1149,-5.9921,-5.8504,-5.8198,-5.719,-5.6265,-5.6233,-5.6192,-5.6156,-5.6149,-5.6141,-5.6133,-5.6062,-5.6054,-5.6046,-5.6012,-5.6012,-5.6012,-5.6012,-5.5509,-5.5084,-5.4813,-5.4465,-5.4155,-5.3923,-5.4116,-5.3807,-5.2693,-5.2577,-5.2337,-5.1718,-5.2221,-5.2577,-5.2577,-5.3149,-5.3188,-5.2616,-5.2647,-5.2329,-5.1739,-5.2433,-5.2893,-5.3146,-5.3766,-5.423,-5.9646,-6.1977,-6.3065,-5.9678,-5.7548,-5.4744,-4.8687,-4.4627,-4.138,-3.8822,-3.6931,-3.5709,-3.5709,-3.5709,-3.6245,-3.7947,-3.8959,-4.1048,-4.5343,-4.8856,-5.195,0.0,0.0,-5.93,-6.0963,-6.3478,-6.5334,-6.6147,-6.6185,-6.6185,-6.6185,-6.6185,-6.6185,-6.6185,-6.6185,-6.6185,-6.6185,-6.6284,-6.6303,-6.6312,-6.6358,-6.6385,-6.6385,-6.6389,-6.6431,-6.6431,-6.5576,-6.5226,-6.5156,-6.434,-6.3983,-6.3913,-6.3955,-6.3501,-6.2819,-6.2819,-6.2289,-6.1602,-6.1539,-6.1495,-6.1489,-6.1495,-6.1507,-6.1489,-6.1495,-6.0939,-6.0317,-6.0292,-5.8999,-5.7391,-5.646,-5.6226,-5.6192,-5.6109,-5.611,-5.6062,-5.602,-5.6012,-5.6012,-5.6012,-5.6012,-5.6012,-5.6012,-5.6012,-5.6012,-5.6012,-5.6012,-5.5702,-5.489,-5.5509,-5.5664,-5.4851,-5.5509,-5.5316,-5.3614,-5.3498,-5.3459,-5.3459,-5.3459,-5.3498,-5.3498,-5.3498,-5.3498,-5.3498,-5.3499,-5.3476,-5.3476,-5.356,-5.4047,-5.4854,-5.4897,-5.5385,-5.5183,-5.7123,-5.8093,-5.5804,-5.3553,-5.0914,-4.7248,-4.3236,-3.9957,-3.8584,-3.6931,-3.5704,-3.5704,-3.5704,-3.6245,-3.7941,-3.8914,0.0,0.0,0.0,0.0,-5.3614,-5.7714,-6.1002,0.0,0.0,-6.5334,-6.6147,-6.6185,-6.6185,-6.6185,-6.6185,-6.6185,-6.6185,-6.6185,-6.6185,-6.6185,-6.6205,-6.6215,-6.6215,-6.6264,-6.5964,-6.5432,-6.544,-6.5136,-6.4635,-6.4364,-6.3906,-6.3324,-6.3083,-6.2618,-6.2083,-6.2189,-6.2102,-6.189,-6.1912,-6.1783,-6.1602,-6.15,-6.1518,-6.1495,-6.1484,-6.149,-6.1495,-6.1484,-6.0928,-6.0015,-5.8737,-5.7981,-5.732,-5.6425,-5.6209,-5.6187,-5.611,-5.6086,-5.6062,-5.602,-5.6012,-5.6012,-5.6012,-5.6012,-5.6012,-5.6012,-5.6012,-5.6012,-5.6012,-5.6012,-5.5896,-5.5664,-5.5857,-5.5896,-5.5664,-5.5857,-5.5548,-5.4465,-5.4387,-5.4116,-5.3536,-5.4039,-5.4387,-5.4387,-5.4929,-5.4967,-5.4387,-5.4404,-5.4094,-5.3514,-5.411,-5.487,-5.5707,-5.5714,-5.5913,-5.1414,-5.339,-5.4281,-5.2577,-5.0446,-4.805,-4.5138,-4.191,-3.9187,-3.802,-3.6687,-3.5704,-3.5704,-3.5704,-3.6245,-3.7941,-3.8644,-4.0307,0.0,0.0,0.0,-5.4465,0.0,0.0,0.0,-6.429,-6.5334,-6.6147,-6.6185,-6.6185,-6.6185,-6.6185,-6.6185,-6.6185,-6.6185,-6.6185,-6.6185,-6.6185,-6.6031,-6.576,-6.576,-6.5296,-6.4493,-6.4541,-6.4268,-6.3791,-6.346,-6.2995,0.0,-6.2181,-6.1716,-6.1203,-6.1322,-6.1394,-6.1447,-6.1445,-6.1518,-6.1534,-6.1507,-6.1478,-6.1447,-6.1447,-6.1447,-6.1408,-6.1058,-6.0377,-5.9365,-5.7489,-5.6968,-5.6846,-5.6257,-5.6133,-5.6125,-5.6054,-5.6054,-5.6046,-5.6012,-5.6012,-5.6012,-5.6012,-5.6012,-5.6012,-5.6012,-5.6012,-5.6012,-5.6012,-5.6012,-5.6012,-5.6012,-5.6012,-5.6012,-5.6012,-5.6012,-5.5818,-5.5316,-5.5238,-5.5006,-5.4465,-5.4967,-5.5238,-5.5238,-5.5741,-5.578,-5.5277,-5.5238,-5.5006,-5.4426,-5.5006,-5.5534,-5.6117,-5.6102,-5.6141,0.0,-5.048,-5.1447,-4.9823,-4.8121,-4.5955,-4.2667,-4.0584,0.0,-3.7212,-3.6245,-3.5704,-3.5704,-3.5742,-3.6323,-3.7941,-3.829,-3.9837,0.0,-4.6999,0.0,0.0,-5.899,0.0,-6.2433,-6.4058,-6.5334,-6.6147,-6.6185,-6.6185,-6.6108,-6.6108,-6.6108,-6.6031,-6.6031,-6.6031,-6.6108,-6.6108,-6.5721,-6.4919,-6.4919,-6.4454,-6.3603,-6.368,-6.366,-6.3553,-6.2736,-6.2388,-6.2352,-6.1582,-6.1264,-6.1191,-6.1275,-6.1337,-6.1373,-6.1376,-6.1447,-6.1472,-6.1402,-6.1401,-6.1405,-6.1405,-6.1405,-6.1211,-6.0363,-5.9516,-5.8531,-5.6706,-5.6188,-5.614,-5.602,-5.6012,-5.6012,-5.6012,-5.6012,-5.6012,-5.6012,-5.6012,-5.6012,-5.6012,-5.6012,-5.6012,-5.6012,-5.6012,-5.6012,-5.6012,-5.6012,-5.6012,-5.6012,-5.6012,-5.6012,-5.6012,-5.6012,-5.6012,-5.6012,-5.6012,-5.6012,-5.6012,-5.6012,-5.6012,-5.6012,-5.6012,-5.6012,-5.6012,-5.6012,-5.6012,-5.6012,-5.6012,-5.6029,-5.607,-5.607,-5.6133,-4.3363,0.0,-4.8043,-4.7045,-4.549,-4.3634,0.0,-3.9224,-3.7406,-3.698,-3.6245,-3.5704,-3.5704,-3.6207,-3.698,-3.8019,-3.9301,-4.1235,-4.4168,-4.9049,0.0,-5.9571,-6.0576,-6.1776,-6.4174,-6.4754,-6.5334,-6.6147,-6.6185,-6.5915,-6.5296,-6.5257,-6.4986,-6.43,-6.43,-6.4609,-6.5257,-6.5257,-6.4831,-6.4029,-6.4029,-6.3555,-6.2704,-6.2714,-6.2375,-6.1717,-6.1533,-6.1417,-6.1407,-6.1223,-6.1146,-6.1137,-6.1199,-6.125,-6.1252,-6.1298,-6.1373,-6.1401,-6.1366,-6.1283,-6.1252,-6.1252,-6.1291,-6.1174,-6.0282,-5.9917,-5.9413,-5.7583,-5.7085,-5.6914,-5.6175,-5.6012,-5.6012,-5.6012,-5.6012,-5.6012,-5.6012,-5.6012,-5.6012,-5.6012,-5.6012,-5.6012,-5.6012,-5.6012,-5.6012,-5.6012,-5.6012,-5.6012,-5.6012,-5.6012,-5.6012,-5.6012,-5.6012,-5.6012,-5.6012,-5.6012,-5.6012,-5.6012,-5.6012,-5.6012,-5.6012,-5.6012,-5.6012,-5.6012,-5.6012,-5.6012,-5.6012,-5.6012,-5.6012,-5.602,-5.602,-5.6029,-4.1661,-4.3363,-4.4639,-4.4221,-4.3131,-4.1699,-3.9997,-3.8218,-3.6787,-3.6439,-3.6013,-3.582,-3.6168,-3.6942,-3.7909,-3.9185,-4.081,-4.3518,0.0,0.0,-5.7018,-6.1737,-6.2278,-6.3129,-6.5334,-6.5528,-6.5566,-6.5644,-6.5644,-6.5296,-6.4454,-6.4416,-6.4184,-6.3719,-6.3719,-6.3952,-6.4416,-6.4416,-6.398,-6.3091,-6.3091,-6.2665,-6.1814,-6.1814,-6.1543,-6.1118,-6.1118,-6.1118,-6.1118,-6.1118,-6.1118,-6.1118,-6.1164,-6.1199,-6.1195,-6.1275,-6.1306,-6.1368,-6.1306,-6.1283,-6.1259,-6.1195,-6.1242,-6.122,-6.0691,-6.0583,-6.0157,-5.7959,-5.7362,-5.716,-5.6244,-5.6012,-5.6012,-5.6012,-5.6012,-5.6012,-5.6012,-5.6012,-5.6012,-5.6012,-5.6012,-5.6012,-5.6012,-5.6012,-5.6012,-5.6012,-5.6012,-5.6012,-5.6012,-5.6012,-5.6012,-5.6012,-5.6012,-5.6012,-5.6012,-5.6012,-5.6012,-5.6012,-5.6012,-5.6012,-5.6012,-5.6012,-5.6012,-5.6012,-5.6012,-5.6012,-5.6012,-5.6012,-5.6012,-5.6012,-5.6012,-5.6197,-4.1351,-4.1893,-4.2048,-4.2318,-4.1893,-4.0887,-3.903,0.0,0.0,0.0,0.0,0.0,0.0,-3.8102,0.0,0.0,0.0,0.0,-5.2995,-5.5857,-5.8874,-6.3178,-6.3719,0.0,-6.6031,-6.6108,-6.5721,-6.5064,-6.488,-6.4416,-6.3565,-6.3487,-6.3449,-6.3333,-6.3294,-6.3294,-6.3294,-6.3449,-6.3052,-6.2201,-6.2201,-6.1814,-6.1118,-6.1118,-6.1118,-6.1118,-6.1118,0.0,-6.1118,-6.1118,-6.1118,-6.1118,-6.1164,-6.1173,-6.1182,-6.1264,-6.1281,-6.1281,-6.1281,-6.1281,-6.1272,-6.1191,-6.1208,-6.1272,-6.1191,-6.1173,-6.0699,-5.8342,-5.7705,-5.7512,-5.6631,-5.6399,-5.6399,-5.6399,-5.6399,-5.6399,-5.6399,-5.6399,-5.6399,-5.6399,-5.6399,-5.6399,-5.6399,-5.6399,-5.636,-5.6205,-5.6197,-5.6158,-5.6012,-5.6012,-5.6012,-5.6012,-5.6012,-5.6012,-5.6012,-5.6012,-5.6012,-5.6012,-5.6012,-5.6012,-5.6012,-5.6012,-5.6012,-5.6012,-5.6012,-5.6012,-5.6012,-5.6012,-5.6089,-5.6197,-5.6197,-5.6661,-4.05,-4.1467,-4.2357,-4.3827,-4.4098,-4.3363,-4.0965,-3.9733,0.0,0.0,0.0,0.0,0.0,-4.0384,-4.1738,0.0,0.0,-5.0326,0.0,0.0,-5.8874,-6.3178,0.0,-6.4377,-6.6031,-6.5566,-6.5141,-6.4986,-6.4338,-6.3516,-6.2665,-6.2588,-6.2278,-6.1505,-6.1505,-6.1505,-6.1505,-6.224,-6.2162,-6.1311,-6.1311,-6.1234,-6.1118,-6.1118,-6.1118,-6.1118,-6.1118,-6.1118,-6.1118,-6.1118,-6.1118,-6.1118,-6.1127,-6.1127,-6.1127,-6.1137,-6.1137,-6.1137,-6.1137,-6.1137,-6.1137,-6.1127,-6.1137,-6.1137,-6.1127,-6.1127,-6.0895,-5.9803,-5.9493,-5.93,-5.841,-5.8178,-5.8178,-5.8178,-5.8178,-5.8178,-5.8178,-5.8178,-5.8178,-5.8178,-5.8178,-5.8178,-5.8178,-5.8178,-5.7946,-5.7202,-5.7086,-5.6815,-5.6081,-5.6012,-5.6012,-5.6012,-5.6012,-5.6012,-5.6012,-5.6012,-5.6012,-5.6012,-5.6012,-5.6012,-5.6012,-5.6012,-5.6012,-5.6012,-5.6012,-5.6012,-5.6012,-5.6012,-5.639,-5.7086,-5.7086,-5.7559,-4.0352,-4.139,-4.2434,-4.4168,-4.4949,-4.4755,-4.2628,-4.1467,-4.0616,0.0,0.0,0.0,0.0,0.0,-4.5104,-4.8275,0.0,-5.3614,-5.694,-5.8178,-5.9764,-6.2665,-6.3013,-6.3478,-6.4715,-6.4532,-6.4097,-6.3632,-6.3207,-6.2627,-6.1737,-6.1698,-6.1505,-6.1118,-6.1118,-6.1118,-6.1118,-6.1505,-6.1505,-6.1118,-6.1118,-6.1118,-6.1118,-6.1118,-6.1118,-6.1118,0.0,-6.1118,-6.1118,-6.1118,-6.1118,-6.1118,-6.1118,-6.1118,-6.1118,-6.1118,-6.1118,-6.1118,-6.1118,-6.1118,-6.1118,-6.1118,-6.1118,-6.1118,-6.1118,-6.1118,-6.1041,-6.0654,-6.0228,-5.9687,-5.8845,-5.8613,-5.8613,-5.8613,-5.8613,-5.8613,-5.8613,-5.8613,-5.8613,-5.8613,-5.8613,-5.8613,-5.8613,-5.8613,-5.8449,-5.8062,-5.7985,-5.7869,-5.7443,-5.7404,-5.7404,-5.7404,-5.7404,-5.7404,-5.7404,-5.7404,-5.7018,-5.6051,-5.6429,-5.6699,-5.6699,-5.7134,-5.7404,-5.7404,-5.7404,-5.7404,-5.7404,-5.7404,-5.7598,-5.7985,-5.7985,-5.8488,-4.0081,-4.1087,-4.2164,-4.4136,-4.5413,-4.5768,-4.4253,-4.3518,-4.2976,-4.2131,0.0,0.0,0.0,-4.5722,0.0,-5.3072,-5.4503,-5.5973,-5.8526,-5.9493,-6.0538,-6.2201,-6.2394,-6.2743,-6.3642,-6.3526,-6.3129,-6.2472,-6.2201,-6.1814,-6.1157,-6.1118,-6.1118,-6.1118,-6.1118,-6.1118,-6.1118,-6.1118,-6.1118,-6.1118,-6.1118,-6.1118,-6.1118,-6.1118,-6.1118,-6.1118,-6.1118,-6.1118,-6.1118,-6.1118,-6.1118,-6.1118,-6.1118,-6.1118,-6.1118,-6.1118,-6.1118,-6.1118,-6.1118,-6.1118,-6.1118,-6.1118,-6.1118,-6.1118,-6.1118,-6.1118,-6.1118,-6.1118,-6.0654,-6.0035,-5.9339,-5.9184,-5.9184,-5.9184,-5.9184,-5.9184,-5.9184,-5.9184,-5.9184,-5.9184,-5.9184,-5.9184,-5.9184,-5.9184,-5.9106,-5.8913,-5.8913,-5.8845,-5.8651,-5.8613,-5.8613,-5.8613,-5.8613,-5.8613,-5.8613,-5.8613,-5.8023,-5.6708,-5.725,-5.7598,-5.7598,-5.8255,-5.8613,-5.8613,-5.8613,-5.8613,-5.8613,-5.8613,-5.869,-5.8913,-5.8913,-5.9339,-3.9346,-4.0236,-4.1467,-4.3982,-4.5838,-4.6767,-4.5845,-4.6194,-4.6496,-4.5613,-4.6078,0.0,0.0,-4.8856,-5.1439,-5.4233,-5.5393,-5.6824,-5.9455,-5.9841,-6.0538,-6.2201,-6.2394,-6.2743,-6.3642,-6.2975,-6.2472,-6.2394,-6.166,-6.1157,-6.1118,-6.1118,-6.1118,-6.1118,-6.1118,-6.1118,-6.1118,-6.1118,-6.1118,-6.1118,-6.1118,-6.1118,-6.1118,-6.1118,-6.1118,-6.1118,-6.1118,-6.1118,-6.1118,-6.1118,-6.1118,-6.1118,-6.1118,-6.1118,-6.1118,-6.1118,-6.1118,-6.1118,-6.1118,-6.1118,-6.1118,-6.1118,-6.1118,-6.1118,-6.1118,-6.1118,-6.1118,-6.1118,-6.1079,-6.1002,-6.0925,-6.0925,-6.0925,-6.0925,-6.0925,-6.0925,-6.0925,-6.0925,-6.0925,-6.0925,-6.0925,-6.0925,-6.0925,-6.0925,-6.0654,-5.9919,-5.9803,-5.9493,-5.869,-5.8613,-5.8613,-5.8613,-5.8613,-5.8613,-5.8613,-5.8613,-5.8535,-5.841,-5.8449,-5.8488,-5.8488,-5.8574,-5.8613,-5.8613,-5.8613,-5.8613,-5.8613,-5.8613,-5.9029,-5.9803,-5.9803,-6.0228,-4.0081,-4.0545,-4.128,-4.3285,-4.5065,-4.6612,-4.7927,-4.8856,-4.9513,-4.9753,-5.0024,-5.0256,-5.0256,0.0,-5.4,-5.6012,-5.7056,-5.8333,-6.0344,-6.0654,-6.0886,-6.1505,-6.1582,-6.1737,-6.2046,-6.1776,-6.1582,-6.1582,-6.1273,-6.1118,-6.1118,-6.1118,-6.0886,-6.0383,-6.0344,-6.0074,-5.9532,-5.9532,-5.9532,-5.9571,-6.0615,-6.1118,-6.1118,-6.1118,-6.1118,-6.1118,-6.1118,-6.1118,-6.1118,-6.1118,-6.1118,-6.1118,-6.1118,-6.1118,-6.1118,-6.1118,-6.1118,-6.1118,-6.1118,-6.1118,-6.1118,-6.1118,-6.1118,-6.1118,-6.1118,-6.1118,-6.1118,-6.1118,-6.1118,-6.1118,-6.1118,-6.1118,-6.1118,-6.1118,-6.1118,-6.1118,-6.1118,-6.1118,-6.1118,-6.1118,-6.1118,-6.1118,-6.1118,-6.1118,-6.1002,-6.0692,-6.0654,-6.0538,-6.019,-6.0151,-6.0151,-6.0151,-6.0151,-6.0151,-6.0151,-6.0151,-6.0151,-6.0151,-5.9687,-5.9416,-5.9416,-5.988,-6.0151,-6.0151,-6.0151,-6.0151,-6.0151,-6.0151,-6.0306,-6.0654,-6.0654,-6.0809,-4.0313,-4.0584,-4.1203,-4.2899,0.0,0.0,-4.9784,-5.1138,-5.1989,-5.284,-5.3033,-5.3033,-5.3033,-5.4,-5.5354,-5.7009,-5.8023,-5.9184,-6.0847,-6.1118,-6.1118,-6.1118,-6.1118,-6.1118,-6.1118,-6.1118,-6.1002,-6.0731,-6.0731,-6.0615,-6.0344,-6.0306,-6.0074,-5.9493,-5.9493,-5.9184,-5.8613,-5.8613,-5.8613,-5.8613,-5.9764,-6.0306,-6.0306,-6.0306,-6.0306,-6.0344,-6.0615,-6.0731,-6.0731,-6.1002,-6.1118,-6.1118,-6.1118,-6.1118,-6.1118,-6.1118,-6.1118,-6.1118,-6.1118,-6.1118,-6.1118,-6.1118,-6.1118,-6.1118,-6.1118,-6.1118,-6.1118,-6.1118,-6.1118,-6.1118,-6.1118,-6.1118,-6.1118,-6.1118,-6.1118,-6.1118,-6.1118,-6.1118,-6.1118,-6.1118,-6.1118,-6.1118,-6.1118,-6.1118,-6.1118,-6.1118,-6.1118,-6.1118,-6.1118,-6.1118,-6.1118,-6.1118,-6.1118,-6.1118,-6.1118,-6.1118,-6.1118,-6.1118,-6.0576,-6.0267,-6.0267,-6.0809,-6.1118,-6.1118,-6.1118,-6.1118,-6.1118,-6.1118,-6.1118,-6.1118,-6.1118,-6.1118,-3.9771,-4.0158,-4.1242,-4.2899,0.0,0.0,-5.1262,-5.2879,-5.3768,-5.4658,-5.4851,-5.4851,-5.4813,-5.4813,-5.5393,-5.7048,-5.8023,-5.9184,-6.0886,-6.1118,-6.1118,-6.1118,-6.1118,-6.1118,-6.1079,-6.1079,-6.0731,-5.9957,-5.988,-5.9493,-5.8651,-5.8613,-5.8613,-5.8613,-5.8613,-5.8574,-5.8574,-5.8574,-5.8574,-5.8574,-5.8574,-5.8574,-5.8613,-5.8613,-5.8613,-5.8651,-5.9493,-5.988,-5.9957,-6.077,-6.1118,-6.1118,-6.1118,-6.1118,-6.1118,-6.1118,-6.1118,-6.1118,-6.1118,-6.1118,-6.1118,-6.1118,-6.1118,-6.1118,-6.1118,-6.1118,-6.1118,-6.1118,-6.1118,-6.1118,-6.1118,-6.1118,-6.1118,-6.1118,-6.1118,-6.1118,-6.1118,-6.1118,-6.1118,-6.1118,-6.1118,-6.1118,-6.1118,-6.1118,-6.1118,-6.1118,-6.1118,-6.1118,-6.1118,-6.1118,-6.1118,-6.1118,-6.1118,-6.1118,-6.1118,-6.1118,-6.1118,-6.1118,-6.1118,-6.1118,-6.1118,-6.1118,-6.1118,-6.1118,-6.1118,-6.1118,-6.1118,-6.1118,-6.1118,-6.1118,-6.1118,-6.1118,-4.1158,-4.1893,0.0,-4.4639,0.0,0.0,0.0,-5.4233,0.0,0.0,-5.8372,-5.8023,-5.6786,-5.7056,-5.7637,-5.8139,-5.8952,-5.988,-6.0963,-6.1118,-6.1118,-6.1118,-6.1118,-6.0886,-6.0306,-6.0267,-5.988,-5.9029,-5.899,-5.8874,-5.8613,-5.8613,-5.8333,-5.7714,-5.7675,-5.7404,-5.6786,-5.6786,-5.6786,-5.6786,-5.6786,-5.7404,-5.8613,-5.8613,-5.8613,-5.8613,-5.8874,-5.9339,-5.9957,-6.077,-6.1118,-6.1118,-6.1118,-6.1118,-6.1118,-6.1118,-6.1118,-6.1118,-6.1118,-6.1118,-6.1118,-6.1118,-6.1118,-6.1118,-6.1118,-6.1118,-6.1118,-6.1118,-6.1118,-6.1118,-6.1118,-6.1118,-6.1118,-6.1118,-6.1118,-6.1118,-6.1118,-6.1118,-6.1118,-6.1118,-6.1118,-6.1118,-6.1118,-6.1118,-6.1118,-6.1118,-6.1118,-6.1118,-6.1118,-6.1118,-6.1118,-6.1118,-6.1118,-6.1118,-6.1118,-6.1118,-6.1118,-6.1118,-6.1118,-6.1118,-6.1118,-6.1118,-6.1118,-6.1118,-6.1118,-6.1118,-6.1118,-6.1118,-6.1118,-6.1118,-6.1118,-6.1118,-4.1777,-4.3131,0.0,-4.6419,-4.8778,-5.1641,-5.52,0.0,0.0,0.0,-6.0112,-5.9571,-5.8526,-5.8488,-5.8729,-5.9068,-5.9571,-6.019,-6.1002,-6.1118,-6.1118,-6.1118,-6.0809,-6.0422,-5.9957,-5.9571,-5.9029,-5.8139,-5.8062,-5.7946,-5.7598,-5.7559,-5.7327,-5.6815,-5.6777,-5.6545,-5.6012,-5.6012,-5.6012,-5.6012,-5.6012,-5.6553,-5.7559,-5.7559,-5.7559,-5.7598,-5.7946,-5.8758,-5.9919,-6.0422,-6.0809,-6.1118,-6.1118,-6.1118,-6.1118,-6.1118,-6.1118,-6.1118,-6.1118,-6.1118,-6.1118,-6.1118,-6.1118,-6.1118,-6.1118,-6.1118,-6.1118,-6.1118,-6.1118,-6.1118,-6.1118,-6.1118,-6.1118,-6.1118,-6.1118,-6.1118,-6.1118,-6.1118,-6.1118,-6.1118,-6.1118,-6.1118,-6.1118,-6.1118,-6.1118,-6.1118,-6.1118,-6.1118,-6.1118,-6.1118,-6.1118,-6.1118,-6.1118,-6.1118,-6.1118,-6.1118,-6.1118,-6.1118,-6.1118,-6.1118,-6.1118,-6.1118,-6.1118,-6.1118,-6.1118,-6.1118,-6.1118,-6.1118,-6.1118,-6.1118,-6.1118,-6.1118,-4.1738,-4.3904,0.0,-4.8082,-5.0596,0.0,-5.8874,-5.9996,-6.0228,-6.0963,0.0,-5.9996,-5.9996,-5.9339,-5.9068,-5.988,-5.9996,-6.0267,-6.1002,-6.1118,-6.1079,-6.1002,-6.0344,-5.9841,-5.9687,-5.8952,-5.8101,-5.7241,-5.7164,-5.6854,-5.6051,-5.6012,-5.6012,-5.6012,-5.6012,-5.6012,-5.6012,-5.6012,-5.6012,-5.6012,-5.6012,-5.6012,-5.6012,-5.6012,-5.6012,-5.6051,-5.6932,-5.8217,-5.9687,-5.9841,-6.0344,-6.1002,-6.1079,-6.1118,-6.1118,-6.1118,-6.1118,-6.1118,-6.1118,-6.1118,-6.1118,-6.1118,-6.1118,-6.1118,-6.1118,-6.1118,-6.1118,-6.1118,-6.1118,-6.1118,-6.1118,-6.1118,-6.1118,-6.1118,-6.1118,-6.1118,-6.1118,-6.1118,-6.1118,-6.1118,-6.1118,-6.1118,-6.1118,-6.1118,-6.1118,-6.1118,-6.1118,-6.1118,-6.1118,-6.1118,-6.1118,-6.1118,-6.1118,-6.1118,-6.1118,-6.1118,-6.1118,-6.1118,-6.1118,-6.1118,-6.1118,-6.1118,-6.1118,-6.1118,-6.1118,-6.1118,-6.1118,-6.1118,-6.1118,-6.1118,-6.1118,-6.1118,-4.1429,-4.4369,0.0,0.0,-5.284,-5.7018,-6.0112,-6.0847,-6.0886,-6.1079,-6.0963,-6.0847,-6.0847,-6.0692,-6.0615,-6.0809,-6.0847,-6.0886,-6.1079,-6.1118,-6.0886,-6.0228,-5.9996,-5.9377,-5.7985,-5.7675,-5.7211,-5.6351,-5.6274,-5.6197,-5.6012,-5.6012,-5.6012,-5.6012,-5.6012,-5.6012,-5.6012,-5.6012,-5.6012,-5.6012,-5.6012,-5.6012,-5.6012,-5.6012,-5.6012,-5.6051,-5.6932,-5.7512,-5.7985,-5.9339,-5.9996,-6.0228,-6.0847,-6.1118,-6.1118,-6.1118,-6.1118,-6.1118,-6.1118,-6.1118,-6.1118,-6.1118,-6.1118,-6.1118,-6.1118,-6.1118,-6.1118,-6.1118,-6.1118,-6.1118,-6.1118,-6.1118,-6.1118,-6.1118,-6.1118,-6.1118,-6.1118,-6.1118,-6.1118,-6.1118,-6.1118,-6.1118,-6.1118,-6.1118,-6.1118,-6.1118,-6.1118,-6.1118,-6.1118,-6.1118,-6.1118,-6.1118,-6.1118,-6.1118,-6.1118,-6.1118,-6.1118,-6.1118,-6.1118,-6.1118,-6.1118,-6.1118,-6.1118,-6.1118,-6.1118,-6.1118,-6.1118,-6.1118,-6.1118,-6.1118,-6.1118,-6.1118,-4.1197,0.0,0.0,-5.2414,0.0,-5.8488,-6.0615,-6.1118,-6.1118,-6.1118,-6.1118,-6.1118,-6.1118,-6.1118,-6.1118,-6.1118,-6.1118,-6.1118,-6.1118,-6.077,-6.0383,-5.9957,-5.9145,-5.8294,-5.7396,-5.6932,-5.6467,-5.6051,-5.6012,-5.6012,-5.6012,-5.6012,-5.6012,-5.6012,-5.6012,-5.6012,-5.6012,-5.6012,-5.6012,-5.6012,-5.6012,-5.6012,-5.6012,-5.6012,-5.6012,-5.6051,-5.6467,-5.6893,-5.7357,-5.8294,-5.8913,-5.93,-5.9725,-6.0151,-6.0538,-6.0538,-6.077,-6.1118,-6.1118,-6.1118,-6.1118,-6.1118,-6.1118,-6.1118,-6.1118,-6.1118,-6.1118,-6.1118,-6.1118,-6.1118,-6.1118,-6.1118,-6.1118,-6.1118,-6.1118,-6.1118,-6.1118,-6.1118,-6.1118,-6.1118,-6.1118,-6.1118,-6.1118,-6.1118,-6.1118,-6.1118,-6.1118,-6.1118,-6.1118,-6.1118,-6.1118,-6.1118,-6.1118,-6.1118,-6.1118,-6.1118,-6.1118,-6.1118,-6.1118,-6.1118,-6.1118,-6.1118,-6.1118,-6.1118,-6.1118,-6.1118,-6.1118,-6.1118,-6.1118,-6.1118,-6.1118,-6.1118,-4.0462,0.0,-4.9977,-5.5655,-5.7714,0.0,-6.0306,-6.077,-6.0886,-6.0886,-6.1002,-6.1118,-6.1118,-6.1118,-6.1041,-6.0925,-6.0886,-6.0847,-6.0692,-6.0112,-5.9609,-5.9455,-5.8178,-5.7241,-5.7086,-5.6429,-5.6012,-5.6012,-5.6012,-5.5935,-5.5818,-5.578,-5.5741,-5.5586,-5.5586,-5.5586,-5.5586,-5.5741,-5.578,-5.578,-5.5935,-5.6012,-5.6012,-5.6012,-5.6012,-5.6012,-5.6012,-5.639,-5.7086,-5.7241,-5.7714,-5.8372,-5.8526,-5.9145,-5.988,-5.988,-6.0422,-6.1118,-6.1118,-6.1118,-6.1118,-6.1118,-6.1118,-6.1118,-6.1118,-6.1118,-6.1118,-6.1118,-6.1118,-6.1118,-6.1118,-6.1118,-6.1118,-6.1118,-6.1118,-6.1118,-6.1118,-6.1118,-6.1118,-6.1118,-6.1118,-6.1118,-6.1118,-6.1118,-6.1118,-6.1118,-6.1118,-6.1118,-6.1118,-6.1118,-6.1118,-6.1118,-6.1118,-6.1118,-6.1118,-6.1118,-6.1118,-6.1118,-6.1118,-6.1118,-6.1118,-6.1118,-6.1118,-6.1118,-6.1118,-6.1118,-6.1118,-6.1118,-6.1118,-6.1118,-6.1118,-6.1118,-3.7986,0.0,-5.0596,0.0,-5.6815,-5.7714,0.0,0.0,-6.0074,0.0,-6.0615,-6.1118,-6.1118,-6.1118,-6.0886,-6.0151,-6.0074,-5.9803,-5.9029,-5.8836,-5.8488,-5.7744,-5.7434,-5.7009,-5.6235,-5.6089,-5.6012,-5.6012,-5.6012,-5.5702,-5.5006,-5.4967,-5.4619,-5.3846,-5.3846,-5.3846,-5.3846,-5.4581,-5.4967,-5.4967,-5.5664,-5.6012,-5.6012,-5.6012,-5.6012,-5.6012,-5.6012,-5.6089,-5.6235,-5.697,-5.7357,-5.7559,-5.8294,-5.9145,-5.988,-5.988,-6.0422,-6.1118,-6.1118,-6.1118,-6.1118,-6.1118,-6.1118,-6.1118,-6.1118,-6.1118,-6.1118,-6.1118,-6.1118,-6.1118,-6.1118,-6.1118,-6.1118,-6.1118,-6.1118,-6.1118,-6.1118,-6.1118,-6.1118,-6.1118,-6.1118,-6.1118,-6.1118,-6.1118,-6.1118,-6.1118,-6.1118,-6.1118,-6.1118,-6.1118,-6.1118,-6.1118,-6.1118,-6.1118,-6.1118,-6.1118,-6.1118,-6.1118,-6.1118,-6.1118,-6.1118,-6.1118,-6.1118,-6.1118,-6.1118,-6.1118,-6.1118,-6.1118,-6.1118,-6.1118,-6.1118,-6.1118,-4.0301,-4.5297,-5.0094,0.0,-5.6274,-5.694,-5.8294,0.0,-5.9184,-5.9184,-5.9455,-5.9841,-6.0344,-6.0422,-6.0151,-5.93,-5.9184,-5.9029,-5.8651,-5.8178,-5.7714,-5.7357,-5.6854,-5.6429,-5.6051,-5.6012,-5.5818,-5.5354,-5.5316,-5.4967,-5.4116,-5.4078,-5.3884,-5.3498,-5.3498,-5.3498,-5.3498,-5.3884,-5.431,-5.4813,-5.5625,-5.6012,-5.6012,-5.6012,-5.6012,-5.6012,-5.6012,-5.6012,-5.6051,-5.639,-5.6583,-5.6622,-5.6979,-5.7985,-5.9184,-5.9184,-5.9996,-6.1118,-6.1118,-6.1118,-6.1118,-6.1118,-6.1118,-6.1118,-6.1118,-6.1118,-6.1118,-6.1118,-6.1118,-6.1118,-6.1118,-6.1118,-6.1118,-6.1118,-6.1118,-6.1118,-6.1118,-6.1118,-6.1118,-6.1118,-6.1118,-6.1118,-6.1118,-6.1118,-6.1273,-6.1737,-6.1814,-6.2008,-6.2472,-6.2549,-6.2549,-6.2549,-6.2124,-6.2046,-6.2511,-6.2124,-6.2046,-6.2511,-6.2549,-6.2549,-6.2549,-6.2549,-6.2549,-6.2549,-6.1582,-6.1118,-6.1118,-6.1118,-6.1118,-6.1118,-6.1118,-6.1118,-4.1506,-4.5142,-4.8237,-5.2917,-5.4387,-5.5122,0.0,0.0,-5.7946,0.0,-5.8294,-5.872,-5.9145,-5.9416,-5.9261,-5.841,-5.8255,-5.8178,-5.7985,-5.7366,-5.697,-5.697,-5.639,-5.5935,-5.5702,-5.5702,-5.5354,-5.4542,-5.4465,-5.4078,-5.3227,-5.3149,-5.3072,-5.284,-5.284,-5.284,-5.284,-5.3072,-5.373,-5.4813,-5.5393,-5.5818,-5.6012,-5.6012,-5.6012,-5.6012,-5.6012,-5.6012,-5.6012,-5.6012,-5.6012,-5.6012,-5.6012,-5.7056,-5.8613,-5.8613,-5.9648,-6.1118,-6.1118,-6.1118,-6.1118,-6.1118,-6.1118,-6.1118,-6.1118,-6.1118,-6.1118,-6.1118,-6.1118,-6.1118,-6.1118,-6.1118,-6.1118,-6.1118,-6.1273,-6.1389,-6.1157,-6.1118,-6.1118,-6.1118,-6.1118,-6.1118,-6.1118,-6.1118,-6.1389,-6.2278,-6.2394,-6.2704,-6.3603,-6.3719,-6.3719,-6.3719,-6.3129,-6.2975,-6.3642,-6.3091,-6.3013,-6.3681,-6.3719,-6.3719,-6.3719,-6.3719,-6.3719,-6.3719,-6.2433,-6.1776,-6.1776,-6.1543,-6.1427,-6.1427,-6.1195,-6.1118,-3.8766,-4.1622,-4.4407,-4.7927,-4.9977,0.0,0.0,0.0,-5.6128,-5.6128,-5.7443,-5.8372,-5.7589,-5.8101,-5.8372,-5.7512,-5.7357,-5.7086,-5.6244,-5.6089,-5.6089,-5.6089,-5.6051,-5.5702,-5.4929,-5.4851,-5.4503,-5.3614,-5.3575,-5.3188,-5.2306,-5.2268,-5.1873,-5.1053,-5.1053,-5.1053,-5.1053,-5.1834,-5.3111,-5.4813,-5.4851,-5.5277,-5.6012,-5.6012,-5.6012,-5.6012,-5.6012,-5.6012,-5.6012,-5.6012,-5.6012,-5.6012,-5.6012,-5.7056,-5.8613,-5.8613,-5.9648,-6.1118,-6.1118,-6.1118,-6.1118,-6.1118,-6.1118,-6.1118,-6.1118,-6.1118,-6.1118,-6.1118,-6.1118,-6.1118,-6.1118,-6.1118,-6.1118,-6.1118,-6.1737,-6.2124,-6.1273,-6.1118,-6.1118,-6.1118,-6.1118,-6.1118,-6.1118,-6.1118,-6.1389,-6.2278,-6.2394,-6.2704,-6.3603,-6.3719,-6.3719,-6.3719,-6.3681,-6.3642,-6.3719,-6.3681,-6.3642,-6.3719,-6.3719,-6.3719,-6.3719,-6.3719,-6.3719,-6.3719,-6.3603,-6.3565,-6.3565,-6.2743,-6.2317,-6.2317,-6.1466,-6.1118,-3.4775,-3.7251,0.0,-4.344,-4.5955,-4.8159,-5.0132,-5.2144,-5.3884,-5.5006,-5.5741,-5.6205,-5.6437,-5.7172,-5.7482,-5.6622,-5.6467,-5.6351,-5.6051,-5.6012,-5.5818,-5.5277,-5.5238,-5.489,-5.4039,-5.3962,-5.3614,-5.2724,-5.2655,-5.2298,-5.1409,-5.137,-5.1215,-5.0898,-5.0898,-5.0898,-5.0898,-5.1757,-5.25,-5.3149,-5.4271,-5.4967,-5.5238,-5.578,-5.6012,-5.6012,-5.6012,-5.6012,-5.6012,-5.6012,-5.6012,-5.6012,-5.6012,-5.7056,-5.8613,-5.8613,-5.9648,-6.1118,-6.1118,-6.1118,-6.1118,-6.1118,-6.1118,-6.1118,-6.1118,-6.1118,-6.1118,-6.1118,-6.1118,-6.1118,-6.1118,-6.1505,-6.2085,-6.2627,-6.3013,-6.3129,-6.282,-6.2781,-6.2781,-6.2781,-6.2781,-6.2781,-6.2781,-6.2781,-6.3052,-6.3942,-6.4058,-6.4367,-6.518,-6.5296,-6.5296,-6.5296,-6.4831,-6.4754,-6.5257,-6.4831,-6.4754,-6.5257,-6.5296,-6.5296,-6.5296,-6.5296,-6.5296,-6.5296,-6.5296,-6.4793,-6.3719,-6.282,-6.2394,-6.2394,-6.1505,-6.1118,-3.272,-3.4538,0.0,0.0,0.0,-4.4375,-4.696,0.0,-5.0983,-5.2724,-5.3536,-5.4194,-5.5006,-5.5625,-5.6012,-5.6012,-5.6012,-5.5896,-5.5625,-5.5586,-5.5277,-5.4465,-5.4349,-5.4,-5.3149,-5.3072,-5.2685,-5.1834,-5.1757,-5.1525,-5.0937,-5.0898,-5.0898,-5.0898,-5.0898,-5.0898,-5.0898,-5.1486,-5.1912,-5.2229,-5.3382,-5.4233,-5.4813,-5.5354,-5.5741,-5.6012,-5.6012,-5.6012,-5.6012,-5.6012,-5.6012,-5.6012,-5.6012,-5.7056,-5.8613,-5.8613,-5.9648,-6.1118,-6.1118,-6.1118,-6.1118,-6.1118,-6.1118,-6.1118,-6.1118,-6.1118,-6.1118,-6.1118,-6.1311,-6.1543,-6.1543,-6.2162,-6.3052,-6.3952,-6.4145,-6.4222,-6.4493,-6.4106,-6.3719,-6.3719,-6.3719,-6.3719,-6.3719,-6.3719,-6.399,-6.488,-6.4986,-6.5296,-6.6108,-6.6185,-6.6185,-6.6185,-6.5721,-6.5605,-6.6147,-6.5721,-6.5644,-6.6185,-6.6185,-6.6185,-6.6185,-6.6185,-6.6185,-6.6185,-6.6185,-6.5644,-6.4532,-6.34,-6.2859,-6.282,-6.166,-6.1118,0.0,0.0,0.0,0.0,0.0,0.0,-4.2589,0.0,-4.7463,-4.9281,-5.0983,-5.2422,-5.3343,-5.3498,-5.4039,-5.5664,-5.5935,-5.5664,-5.4851,-5.4774,-5.4426,-5.3575,-5.3459,-5.3111,-5.2268,-5.2152,-5.1796,-5.0975,-5.0898,-5.0898,-5.0898,-5.0898,-5.0898,-5.0898,-5.0898,-5.0898,-5.0898,-5.0898,-5.1331,-5.2152,-5.219,-5.3111,-5.4774,-5.4774,-5.5238,-5.6012,-5.6012,-5.6012,-5.6012,-5.6012,-5.6012,-5.6012,-5.6012,-5.7056,-5.8574,-5.8613,-5.9648,-6.1079,-6.1079,-6.1118,-6.1118,-6.1118,-6.1118,-6.1118,-6.1118,-6.1118,-6.1118,-6.1118,-6.1737,-6.2433,-6.2472,-6.3091,-6.3952,-6.4841,-6.5025,-6.5257,-6.6031,-6.4909,-6.3758,-6.3758,-6.3758,-6.3758,-6.3758,-6.3758,-6.4068,-6.4919,-6.5025,-6.5334,-6.6108,-6.6185,-6.6185,-6.6185,-6.6185,-6.6185,-6.6185,-6.6185,-6.6185,-6.6185,-6.6185,-6.6185,-6.6185,-6.6185,-6.6185,-6.6185,-6.6185,-6.6185,-6.6185,-6.4532,-6.3719,-6.3681,-6.1892,-6.1118,-2.936,0.0,0.0,0.0,0.0,0.0,0.0,0.0,-4.4446,-4.8005,-4.9629,-5.1022,-5.3111,-5.3498,-5.3652,-5.4116,-5.4194,-5.4116,-5.3884,-5.3846,-5.3536,-5.2655,-5.2577,-5.2221,-5.1331,-5.1254,-5.1169,0.0,-5.0898,-5.0898,-5.0898,-5.0898,-5.0898,-5.0898,-5.0898,-5.0898,-5.0898,-5.0898,-5.1014,-5.1254,-5.1912,-5.2763,-5.3884,-5.4503,-5.5238,-5.6012,-5.6012,-5.6012,-5.6012,-5.6012,-5.6012,-5.6012,-5.6012,-5.667,-5.7753,-5.8372,-5.93,-6.0306,-6.0886,-6.1118,-6.1118,-6.1118,-6.1118,-6.1118,-6.1118,-6.1118,-6.1234,-6.1853,-6.2201,-6.2704,-6.3942,-6.4445,-6.4841,-6.5682,-6.5876,-6.5915,-6.6147,-6.5837,-6.5489,-6.5489,-6.5489,-6.5489,-6.5489,-6.5489,-6.5605,-6.5837,-6.5876,-6.5953,-6.6185,-6.6185,-6.6185,-6.6185,-6.6185,-6.6185,-6.6185,-6.6185,-6.6185,-6.6185,-6.6185,-6.6185,-6.6185,-6.6185,-6.6185,-6.6185,-6.6185,-6.6185,-6.6185,-6.4532,-6.3719,-6.3681,-6.1892,-6.1118,-3.0133,-3.0482,-3.1018,-3.1516,0.0,0.0,-3.6151,-3.8284,-4.0887,0.0,-4.6187,-4.7695,-4.9861,-5.0287,-5.0403,-5.0751,-5.0828,-5.1331,-5.2763,-5.2956,-5.2608,-5.1757,-5.1641,-5.1447,-5.0937,-5.0898,-5.0898,-5.0898,-5.0898,-5.0898,-5.0898,-5.0898,-5.0898,-5.0898,-5.0898,-5.0898,-5.0898,-5.0898,-5.0898,-5.0898,-5.1409,-5.2298,-5.3536,-5.4039,-5.489,-5.6012,-5.6012,-5.6012,-5.6012,-5.6012,-5.6012,-5.6012,-5.6012,-5.6545,-5.7396,-5.8294,-5.9145,-6.0035,-6.0809,-6.1118,-6.1118,-6.1118,-6.1118,-6.1118,-6.1118,-6.1118,-6.1273,-6.2162,-6.2936,-6.3787,-6.5141,-6.5489,-6.5605,-6.6108,-6.6185,-6.6185,-6.6185,-6.6185,-6.6185,-6.6185,-6.6185,-6.6185,-6.6185,-6.6185,-6.6185,-6.6185,-6.6185,-6.6185,-6.6185,-6.6185,-6.6185,-6.6185,-6.6185,-6.6185,-6.6185,-6.6185,-6.6185,-6.6185,-6.6185,-6.6185,-6.6185,-6.6185,-6.6185,-6.6185,-6.6185,-6.5876,-6.5141,-6.4184,-6.3333,-6.2588,-6.1582,-6.1118,-3.3378,-3.3295,-3.3213,-3.3114,-3.3004,0.0,-3.3843,-3.5289,-3.7207,0.0,-4.1622,-4.3285,-4.5072,-4.5381,-4.5652,-4.6535,-4.6767,-4.8005,-5.1447,-5.192,-5.1641,-5.0859,-5.0782,-5.0743,-5.0627,-5.0627,-5.0627,-5.0627,-5.0705,-5.0821,-5.0898,-5.0898,-5.0898,-5.0898,-5.0898,-5.0898,-5.0898,-5.0898,-5.0898,-5.0898,-5.0898,-5.1796,-5.3498,-5.3498,-5.4426,-5.6012,-5.6012,-5.6012,-5.6012,-5.6012,-5.6012,-5.6012,-5.6012,-5.6467,-5.728,-5.8255,-5.9068,-5.988,-6.0809,-6.1118,-6.1118,-6.1118,-6.1118,-6.1118,-6.1118,-6.1118,-6.1311,-6.2278,-6.3748,-6.518,-6.5992,-6.6185,-6.6185,-6.6185,-6.6185,-6.6185,-6.6185,-6.6185,-6.6185,-6.6185,-6.6185,-6.6185,-6.6185,-6.6185,-6.6185,-6.6185,-6.6185,-6.6185,-6.6185,-6.6185,-6.6185,-6.6185,-6.6185,-6.6185,-6.6185,-6.6185,-6.6185,-6.6185,-6.6185,-6.6185,-6.6185,-6.6185,-6.6185,-6.6185,-6.6185,-6.5373,-6.3719,-6.3603,-6.2704,-6.1118,-6.1118,-6.1118,-3.5201,-3.4643,-3.3881,-3.318,-3.2507,0.0,-3.2154,-3.3026,-3.4488,0.0,-3.8489,-3.992,-4.2318,-4.2744,-4.3015,-4.3904,-4.4639,-4.6264,-4.9707,-5.021,-5.0132,-4.9939,-4.9939,-4.9668,-4.8972,-4.8894,-4.8894,-4.8894,-4.9552,-5.0202,-5.0859,-5.0898,-5.0898,-5.0898,-5.0898,-5.0898,-5.0898,-5.0898,-5.0898,-5.0898,-5.0898,-5.1796,-5.3498,-5.3498,-5.4426,-5.6012,-5.6012,-5.6012,-5.6012,-5.6012,-5.6012,-5.6012,-5.6012,-5.6081,-5.6437,-5.8023,-5.8729,-5.9068,-6.0576,-6.1118,-6.1118,-6.1118,-6.1118,-6.1118,-6.1118,-6.1118,-6.1427,-6.3013,-6.4222,-6.518,-6.5992,-6.6185,-6.6185,-6.6185,-6.6185,-6.6185,-6.6185,-6.6185,-6.6185,-6.6185,-6.6185,-6.6185,-6.6185,-6.6185,-6.6185,-6.6185,-6.6185,-6.6185,-6.6185,-6.6185,-6.6185,-6.6185,-6.6185,-6.6185,-6.6185,-6.6185,-6.6185,-6.6185,-6.6185,-6.6185,-6.6185,-6.6185,-6.6185,-6.6185,-6.6185,-6.5373,-6.3719,-6.3013,-6.2124,-6.1118,-6.1118,-6.1118,-3.743,-3.6549,-3.5303,-3.4417,-3.3192,0.0,0.0,-3.169,-3.2931,-3.5151,-3.6315,-3.7552,-3.9683,-4.0069,-4.0185,-4.0655,-4.1422,-4.2883,-4.5457,-4.7318,-4.8546,-4.901,-4.9049,-4.8894,-4.843,-4.8392,-4.8392,-4.8392,-4.8817,-4.9436,-5.0241,-5.0279,-5.0473,-5.0898,-5.0898,-5.0898,-5.0898,-5.0898,-5.0898,-5.0898,-5.0898,-5.1796,-5.3498,-5.3498,-5.4426,-5.6012,-5.6012,-5.6012,-5.6012,-5.6012,-5.6012,-5.6012,-5.6012,-5.6012,-5.6205,-5.7946,-5.8613,-5.8836,-6.0538,-6.1118,-6.1118,-6.1118,-6.1118,-6.1118,-6.1118,-6.1389,-6.2008,-6.3333,-6.4338,-6.518,-6.5992,-6.6185,-6.6185,-6.6185,-6.6185,-6.6185,-6.6185,-6.6185,-6.6185,-6.6185,-6.6185,-6.6185,-6.6185,-6.6185,-6.6185,-6.6185,-6.6185,-6.6185,-6.6185,-6.6185,-6.6185,-6.6185,-6.6185,-6.6185,-6.6185,-6.6185,-6.6185,-6.6185,-6.6185,-6.6185,-6.6185,-6.6185,-6.6185,-6.6185,-6.5799,-6.4948,-6.3719,-6.282,-6.1969,-6.1118,-6.1118,-6.1118,-3.9868,-3.8746,-3.711,-3.5882,-3.4273,-3.2527,0.0,0.0,0.0,-3.3447,-3.4455,0.0,0.0,0.0,0.0,0.0,0.0,0.0,0.0,-4.3404,0.0,-4.7434,-4.7642,-4.7649,-4.7649,-4.7649,-4.7727,-4.7889,-4.7881,-4.8345,-4.9397,-4.9629,-5.0016,-5.0666,-5.0821,-5.0898,-5.0898,-5.0898,-5.0898,-5.0898,-5.089,-5.1818,-5.3489,-5.3481,-5.4362,-5.5977,-5.5977,-5.5986,-5.5995,-5.5995,-5.6003,-5.6012,-5.6012,-5.6012,-5.6205,-5.7946,-5.8613,-5.8836,-6.0538,-6.1118,-6.1118,-6.1118,-6.1118,-6.1118,-6.1118,-6.1582,-6.2317,-6.3207,-6.3942,-6.4677,-6.5489,-6.5721,-6.5721,-6.5721,-6.5721,-6.5721,-6.5721,-6.5721,-6.5721,-6.5721,-6.5721,-6.5837,-6.6147,-6.6185,-6.6185,-6.6185,-6.6185,-6.6185,-6.6185,-6.6185,-6.6185,-6.6185,-6.6185,-6.6185,-6.6185,-6.6185,-6.6185,-6.6185,-6.6185,-6.6185,-6.6185,-6.6185,-6.6185,-6.6185,-6.5566,-6.4725,-6.3719,-6.2975,-6.2124,-6.1118,-6.1118,-6.1118,-4.2409,-4.1185,-3.9303,-3.6901,-3.5005,-3.3126,-3.0684,0.0,-3.1489,-3.1749,0.0,0.0,0.0,0.0,0.0,0.0,0.0,0.0,-3.681,-3.8014,-4.0282,-4.4368,-4.4908,-4.4945,-4.4945,-4.4945,-4.5269,-4.6032,-4.6081,-4.6815,-4.8469,-4.9281,-4.9745,-4.9823,-5.0511,-5.0898,-5.0898,-5.0898,-5.0898,-5.0898,-5.0905,-5.1777,-5.34,-5.3356,-5.4264,-5.5914,-5.5914,-5.5943,-5.598,-5.598,-5.6007,-5.6012,-5.6012,-5.6012,-5.6205,-5.7946,-5.8613,-5.8836,-6.0538,-6.1118,-6.1118,-6.1118,-6.1118,-6.1118,-6.1118,-6.1157,-6.1427,-6.2317,-6.2627,-6.2897,-6.3748,-6.399,-6.399,-6.399,-6.399,-6.399,-6.399,-6.399,-6.399,-6.399,-6.399,-6.4454,-6.5953,-6.6185,-6.6185,-6.6185,-6.6185,-6.6185,-6.6185,-6.6185,-6.6185,-6.6185,-6.6185,-6.6185,-6.6185,-6.6185,-6.6185,-6.6185,-6.6185,-6.6185,-6.6185,-6.6185,-6.6185,-6.6185,-6.6108,-6.5296,-6.3719,-6.3603,-6.2704,-6.1118,-6.1118,-6.1118,-4.3369,-4.1867,-3.97,-3.7593,-3.5778,-3.3831,-3.1362,-3.1446,-3.2186,-3.276,0.0,0.0,0.0,0.0,0.0,0.0,-3.357,0.0,0.0,0.0,-3.6875,0.0,0.0,0.0,-4.298,-4.2995,-4.3118,-4.3511,-4.355,-4.4515,-4.67,-4.8176,-4.9165,-4.9668,-5.0473,-5.0898,-5.0898,-5.0898,-5.089,-5.0905,-5.0838,-5.1402,-5.2531,-5.2954,-5.3797,-5.4951,-5.544,-5.5703,-5.5766,-5.5865,-5.5924,-5.5941,-5.5986,-5.6012,-5.6197,-5.791,-5.8558,-5.879,-6.0451,-6.1021,-6.1021,-6.1021,-6.1021,-6.1021,-6.1021,-6.1021,-6.1214,-6.2035,-6.2267,-6.2509,-6.3428,-6.3631,-6.3796,-6.4329,-6.4454,-6.4571,-6.5064,-6.5141,-6.5141,-6.5141,-6.4754,-6.4687,-6.5373,-6.5064,-6.4754,-6.4754,-6.4754,-6.4909,-6.545,-6.5489,-6.5682,-6.6147,-6.576,-6.5682,-6.6147,-6.576,-6.5682,-6.6185,-6.6185,-6.6185,-6.6185,-6.6185,-6.6185,-6.6185,-6.6185,-6.5373,-6.3719,-6.3719,-6.2781,-6.1118,-6.1118,-6.1118,-4.4141,-4.2525,-4.0217,-3.808,-3.6388,-3.4548,-3.1868,-3.2079,-3.3039,-3.3928,-3.4243,0.0,0.0,0.0,0.0,0.0,0.0,-3.2747,0.0,-3.2531,0.0,0.0,0.0,0.0,0.0,-4.1208,-4.1486,-4.1517,-4.174,-4.288,-4.5264,-4.731,-4.8701,-4.932,-5.0357,-5.0898,-5.0898,-5.089,-5.0897,-5.0838,-5.0701,-5.1164,-5.2169,-5.2724,-5.3522,-5.4556,-5.5157,-5.5461,-5.557,-5.5692,-5.5776,-5.5837,-5.5932,-5.595,-5.6125,-5.7834,-5.8432,-5.8644,-6.0305,-6.0861,-6.0861,-6.0861,-6.0861,-6.0861,-6.0861,-6.0861,-6.0977,-6.1566,-6.172,-6.1885,-6.2596,-6.2794,-6.3057,-6.4008,-6.427,-6.4522,-6.5334,-6.5489,-6.5489,-6.5489,-6.4831,-6.429,-6.429,-6.3952,-6.3719,-6.3719,-6.3719,-6.4029,-6.488,-6.4986,-6.5296,-6.6108,-6.5682,-6.5566,-6.6147,-6.5644,-6.5566,-6.6147,-6.6185,-6.6185,-6.6185,-6.6185,-6.6185,-6.6185,-6.6185,-6.5373,-6.3719,-6.3719,-6.2781,-6.1118,-6.1118,-6.1118,-4.5078,-4.3625,-4.1541,-3.8216,-3.6775,-3.5287,-3.1951,-3.2446,-3.379,-3.4524,-3.5302,-3.6039,-3.681,-3.5661,-3.432,-3.3419,0.0,0.0,0.0,0.0,0.0,0.0,0.0,0.0,0.0,-3.9451,-4.0466,0.0,-4.1324,-4.2611,-4.4454,-4.7001,-4.8392,-4.843,-5.0047,-5.0898,-5.0898,-5.0905,-5.0838,-5.0701,-5.0557,-5.1327,-5.2862,-5.2841,-5.3722,-5.5288,-5.5288,-5.5326,-5.5439,-5.5531,-5.566,-5.5724,-5.5865,-5.5807,-5.5917,-5.7653,-5.8259,-5.8423,-5.9983,-6.0508,-6.0508,-6.0508,-6.0508,-6.0508,-6.0508,-6.0508,-6.0508,-6.0546,-6.0546,-6.0572,-6.0685,-6.0793,-6.1125,-6.2078,-6.2403,-6.2704,-6.3603,-6.3797,-6.3797,-6.3797,-6.3091,-6.2472,-6.2472,-6.3168,-6.3719,-6.3719,-6.3719,-6.4029,-6.488,-6.4986,-6.5296,-6.6108,-6.6185,-6.6185,-6.6185,-6.6185,-6.6185,-6.6185,-6.6185,-6.6185,-6.6185,-6.6185,-6.6185,-6.6185,-6.6185,-6.5373,-6.3719,-6.3719,-6.2781,-6.1118,-6.1118,-6.1118,-4.5912,-4.4815,-4.3114,-3.9751,-3.872,-3.7662,-3.4338,-3.4826,-3.6018,-3.6254,-3.6899,-3.7665,-3.8378,-3.7629,-3.6283,-3.4327,-3.3119,0.0,0.0,0.0,0.0,0.0,0.0,0.0,0.0,0.0,0.0,-3.8512,-3.8983,0.0,-4.3412,-4.5549,-4.7192,-4.8353,-4.9513,-5.0349,-5.0905,-5.0829,-5.0701,-5.0557,-5.0369,-5.0882,-5.1929,-5.2359,-5.318,-5.4282,-5.48,-5.5085,-5.5168,-5.5275,-5.5364,-5.5437,-5.5593,-5.5593,-5.5727,-5.752,-5.81,-5.8233,-5.9829,-6.0362,-6.0362,-6.0362,-6.0362,-6.0362,-6.0362,-6.0362,-6.0362,-6.0362,-6.0362,-6.039,-6.0456,-6.0622,-6.1127,-6.2629,-6.3113,-6.3593,-6.5054,-6.5334,-6.5334,-6.5334,-6.4677,-6.4135,-6.4135,-6.34,-6.2627,-6.2085,-6.1969,-6.2511,-6.3952,-6.4145,-6.4677,-6.6031,-6.5721,-6.5605,-6.6147,-6.6185,-6.6185,-6.6185,-6.6185,-6.6185,-6.6185,-6.6185,-6.6185,-6.6185,-6.6185,-6.5373,-6.3719,-6.3719,-6.2781,-6.1118,-6.1118,-6.1118,-4.6703,-4.5819,-4.442,-4.1632,-4.0728,-3.9712,-3.669,-3.7032,-3.8037,-3.8253,-3.8901,-3.977,-4.0784,-3.9839,-3.8087,-3.5628,0.0,0.0,0.0,-2.8879,0.0,0.0,0.0,0.0,0.0,0.0,-3.6084,-3.7034,-3.7547,0.0,0.0,-4.4183,-4.6119,-4.7866,-4.9065,-5.0046,-5.0829,-5.0692,-5.0537,-5.038,-5.0248,-5.071,-5.1747,-5.2196,-5.3025,-5.4162,-5.4655,-5.4912,-5.4971,-5.5127,-5.517,-5.5223,-5.5402,-5.5555,-5.5938,-5.743,-5.8245,-5.8744,-5.9807,-6.0173,-6.0173,-6.0173,-6.0173,-6.0173,-6.0173,-6.0173,-6.0173,-6.0173,-6.0173,-6.015,-6.0223,-6.0401,-6.0891,-6.2413,-6.2914,-6.3548,-6.5311,-6.574,-6.5876,-6.6147,-6.5528,-6.4986,-6.4986,-6.3555,-6.2317,-6.2046,-6.1776,-6.2201,-6.3952,-6.4145,-6.4677,-6.6031,-6.5721,-6.5644,-6.6147,-6.6185,-6.6185,-6.6185,-6.6185,-6.6185,-6.6185,-6.6185,-6.6185,-6.6185,-6.6185,-6.5373,-6.3719,-6.3719,-6.2781,-6.1118,-6.1118,-6.1118]},{"header":{"parameterUnit":"m.s-1","parameterCategory":1,"la1":30.6,"la2":29.2853,"lo1":-89.7004,"lo2":-87.6739,"dy":0.0162,"dx":0.0183,"nx":112,"ny":82,"refTime":"2026-04-23T00:00:00:Z","depth":0,"parameterNumber":3,"parameterNumberName":"V-component_of_WINDS"},"data":[0.0,0.0,0.0,0.0,0.0,0.0,0.0,0.0,0.0,0.0,0.0,0.0,0.0,0.0,0.0,0.0,0.0,0.0,0.0,0.0,0.0,0.0,0.0,0.0,0.0,0.0,0.0,0.0,0.0,0.0,0.0,0.0,0.0,0.0,0.0,0.0,0.0,0.0,0.0,0.0,0.0,0.0,0.0,0.0,0.0,0.0,0.0,0.0,0.0,0.0,0.0,0.0,0.0,0.0,0.0,0.0,0.0,0.0,0.0,0.0,0.0,0.0,0.0,0.0,0.0,0.0,0.0,0.0,0.0,0.0,0.0,0.0,0.0,0.0,0.0,0.0,0.0,0.0,0.0,0.0,0.0,0.0,0.0,0.0,0.0,0.0,0.0,0.0,0.0,0.0,-0.1929,-0.2131,-0.2399,-0.2534,-0.2474,-0.239,-0.2249,-0.2038,0.0,0.0,0.0,0.0,0.0,0.0,0.0,0.0,0.0,0.0,0.0,0.0,0.0,0.0,0.0,0.0,0.0,0.0,0.0,0.0,0.0,0.0,0.0,0.0,0.0,0.0,0.0,0.0,0.0,0.0,0.0,0.0,0.0,0.0,0.0,0.0,0.0,0.0,0.0,0.0,0.0,0.0,0.0,0.0,0.0,0.0,0.0,0.0,0.0,0.0,0.0,0.0,0.0,0.0,0.0,0.0,0.0,0.0,0.0,0.0,0.0,0.0,0.0,0.0,0.0,0.0,0.0,0.0,0.0,0.0,0.0,0.0,0.0,0.0,0.0,0.0,0.0,0.0,0.0,0.0,0.0,0.0,0.0,0.0,0.0,0.0,0.0,0.0,0.0,0.0,0.0,0.0,0.0,0.0,0.0,0.0,0.0,0.0,0.0,0.0,0.0,0.0,0.0,0.0,-0.1996,-0.2339,-0.2487,-0.2534,-0.2474,-0.2409,-0.2281,-0.2071,0.0,0.0,0.0,0.0,0.0,0.0,0.0,0.0,0.0,0.0,0.0,0.0,0.0,0.0,0.0,0.0,0.0,0.0,0.0,0.0,0.0,0.0,0.0,0.0,0.0,0.0,0.0,0.0,0.0,0.0,0.0,0.0,0.0,0.0,0.0,0.0,0.0,0.0,0.0,0.0,0.0,0.0,0.0,0.0,0.0,0.0,0.0,0.0,0.0,0.0,0.0,0.0,0.0,0.0,0.0,0.0,0.0,0.0,0.0,0.0,0.0,0.0,0.0,0.0,0.0,0.0,0.0,0.0,0.0,0.0,0.0,0.0,0.0,0.0,0.0,0.0,0.0,0.0,0.0,0.0,0.0,0.0,0.0,0.0,0.0,0.0,0.0,0.0,0.0,0.0,0.0,0.0,0.0,0.0,0.0,0.0,0.0,0.0,0.0,0.0,0.0,0.0,0.0,-0.1932,-0.2162,-0.2376,-0.2466,-0.2485,-0.2425,-0.2335,-0.2206,-0.2029,-0.1678,0.0,0.0,0.0,0.0,0.0,0.0,0.0,0.0,0.0,0.0,0.0,0.0,0.0,0.0,0.0,0.0,0.0,0.0,0.0,0.0,0.0,0.0,0.0,0.0,0.0,0.0,0.0,0.0,0.0,0.0,0.0,0.0,0.0,0.0,0.0,0.0,0.0,0.0,0.0,0.0,0.0,0.0,0.0,0.0,0.0,0.0,0.0,0.0,0.0,0.0,0.0,0.0,0.0,0.0,0.0,0.0,0.0,0.0,0.0,0.0,0.0,0.0,0.0,0.0,0.0,0.0,0.0,0.0,0.0,0.0,0.0,0.0,0.0,0.0,0.0,0.0,0.0,0.0,0.0,0.0,0.0,0.0,0.0,0.0,0.0,0.0,0.0,0.0,0.0,0.0,0.0,0.0,0.0,0.0,0.0,0.0,0.0,0.0,0.0,0.0,0.0,0.0,-0.2101,-0.2277,-0.2358,-0.2421,-0.2428,-0.2353,-0.2244,-0.2109,-0.1883,-0.1398,0.0,0.0,0.0,0.0,0.0,0.0,0.0,0.0,0.0,0.0,0.0,0.0,0.0,0.0,0.0,0.0,0.0,0.0,0.0,0.0,0.0,0.0,0.0,0.0,0.0,0.0,0.0,0.0,0.0,0.0,0.0,0.0,0.0,0.0,0.0,0.0,0.0,0.0,0.0,0.0,0.0,0.0,0.0,0.0,0.0,0.0,0.0,0.0,0.0,0.0,0.0,0.0,0.0,0.0,0.0,0.0,0.0,0.0,0.0,0.0,0.0,0.0,0.0,0.0,0.0,0.0,0.0,0.0,0.0,0.0,0.0,0.0,0.0,0.0,0.0,0.0,0.0,0.0,0.0,0.0,0.0,0.0,0.0,0.0,0.0,0.0,0.0,0.0,0.0,0.0,0.0,0.0,0.0,0.0,0.0,0.0,0.0,0.0,0.0,0.0,0.0,0.0,-0.2047,-0.2198,-0.233,-0.239,-0.238,-0.2194,-0.2169,-0.1964,-0.1536,-0.0971,0.0,0.0,0.0,0.0,0.0,0.0,0.0,0.0,0.0,0.0,0.0,0.0,0.0,0.0,0.0,0.0,0.0,0.0,0.0,0.0,0.0,0.0,0.0,0.0,0.0,0.0,0.0,0.0,0.0,0.0,0.0,0.0,0.0,0.0,0.0,0.0,0.0,0.0,0.0,0.0,0.0,0.0,0.0,0.0,0.0,0.0,0.0,0.0,0.0,0.0,0.0,0.0,0.0,0.0,0.0,0.0,0.0,0.0,0.0,0.0,0.0,0.0,0.0,0.0,0.0,0.0,0.0,0.0,0.0,0.0,0.0,0.0,0.0,0.0,0.0,0.0,0.0,0.0,0.0,0.0,0.0,0.0,0.0,0.0,0.0,0.0,0.0,0.0,0.0,0.0,0.0,0.0,0.0,0.0,0.0,0.0,0.0,0.0,0.0,0.0,0.0,0.0,-0.205,-0.2196,-0.2326,-0.2371,-0.2354,-0.2183,-0.2127,-0.1918,-0.1692,0.0,0.0,0.0,0.0,0.0,0.0,0.0,0.0,0.0,0.0,0.0,0.0,0.0,0.0,0.0,0.0,0.0,0.0,0.0,0.0,0.0,0.0,0.0,0.0,0.0,0.0,0.0,0.0,0.0,0.0,0.0,0.0,0.0,0.0,0.0,0.0,0.0,0.0,0.0,0.0,0.0,0.0,0.0,0.0,0.0,0.0,0.0,0.0,0.0,0.0,0.0,0.0,0.0,0.0,0.0,0.0,0.0,0.0,0.0,0.0,0.0,0.0,0.0,0.0,0.0,0.0,0.0,0.0,0.0,0.0,0.0,0.0,0.0,0.0,0.0,0.0,0.0,0.0,0.0,0.0,0.0,0.0,0.0,0.0,0.0,0.0,0.0,0.0,0.0,0.0,0.0,0.0,0.0,0.0,0.0,0.0,0.0,0.0,0.0,0.0,0.0,0.0,-0.1885,-0.2093,-0.2238,-0.2298,-0.2333,-0.2309,-0.221,-0.2072,-0.1858,-0.164,0.0,0.0,0.0,0.0,0.0,0.0,0.0,0.0,0.0,0.0,0.0,0.0,0.0,0.0,0.0,0.0,0.0,0.0,0.0,0.0,0.0,0.0,0.0,0.0,0.0,0.0,0.0,0.0,0.0,0.0,0.0,0.0,0.0,0.0,0.0,0.0,0.0,0.0,0.0,0.0,0.0,0.0,0.0,0.0,0.0,0.0,0.0,0.0,0.0,0.0,0.0,0.0,0.0,0.0,0.0,0.0,0.0,0.0,0.0,0.0,0.0,0.0,0.0,0.0,0.0,0.0,0.0,0.0,0.0,0.0,0.0,0.0,0.0,0.0,0.0,0.0,0.0,0.0,0.0,0.0,0.0,0.0,0.0,0.0,0.0,0.0,0.0,0.0,0.0,0.0,0.0,0.0,0.0,0.0,0.0,0.0,0.0,0.0,0.0,0.0,0.0,0.0,-0.1854,-0.2042,-0.2177,-0.2169,-0.2273,-0.2241,-0.212,-0.2,-0.1727,0.0,0.0,0.0,0.0,0.0,0.0,0.0,0.0,0.0,0.0,0.0,0.0,0.0,0.0,0.0,0.0,0.0,0.0,0.0,0.0,0.0,0.0,0.0,0.0,0.0,0.0,0.0,0.0,0.0,0.0,0.0,0.0,0.0,0.0,0.0,0.0,0.0,0.0,0.0,0.0,0.0,0.0,0.0,0.0,0.0,0.0,0.0,0.0,0.0,0.0,0.0,0.0,0.0,0.0,0.0,0.0,0.0,0.0,0.0,0.0,0.0,0.0,0.0,0.0,0.0,0.0,0.0,0.0,0.0,0.0,0.0,0.0,0.0,0.0,0.0,0.0,0.0,0.0,0.0,0.0,0.0,0.0,0.0,0.0,0.0,0.0,0.0,0.0,0.0,0.0,0.0,0.0,0.0,0.0,0.0,0.0,0.0,0.0,0.0,0.0,0.0,0.0,0.0,-0.1825,-0.2011,-0.2146,-0.2207,-0.224,-0.2218,-0.2117,-0.183,-0.1529,-0.1321,0.0,0.0,0.0,0.0,0.0,0.0,0.0,0.0,0.0,0.0,0.0,0.0,0.0,0.0,0.0,0.0,0.0,0.0,0.0,0.0,0.0,0.0,0.0,0.0,0.0,0.0,0.0,0.0,0.0,0.0,0.0,0.0,0.0,0.0,0.0,0.0,0.0,0.0,0.0,0.0,0.0,0.0,0.0,0.0,0.0,0.0,0.0,0.0,0.0,0.0,0.0,0.0,0.0,0.0,0.0,0.0,0.0,0.0,0.0,0.0,0.0,0.0,0.0,0.0,0.0,0.0,0.0,0.0,0.0,0.0,0.0,0.0,0.0,0.0,0.0,0.0,0.0,0.0,0.0,0.0,0.0,0.0,0.0,0.0,0.0,0.0,0.0,0.0,0.0,0.0,0.0,0.0,0.0,0.0,0.0,0.0,0.0,0.0,0.0,0.0,0.0,0.0,-0.1795,-0.199,-0.2128,-0.2177,-0.2208,-0.2126,-0.1917,-0.1456,-0.1067,-0.0858,0.0,0.0,0.0,0.0,0.0,0.0,0.0,0.0,0.0,0.0,0.0,0.0,0.0,0.0,0.0,0.0,0.0,0.0,0.0,0.0,0.0,0.0,0.0,0.0,0.0,0.0,0.0,0.0,0.0,0.0,0.0,0.0,0.0,0.0,0.0,0.0,0.0,0.0,0.0,0.0,0.0,0.0,0.0,0.0,0.0,0.0,0.0,0.0,0.0,0.0,0.0,0.0,0.0,0.0,0.0,0.0,0.0,0.0,0.0,0.0,0.0,0.0,0.0,0.0,0.0,0.0,0.0,0.0,0.0,0.0,0.0,0.0,0.0,0.0,0.0,0.0,0.0,0.0,0.0,0.0,0.0,0.0,0.0,0.0,0.0,0.0,0.0,0.0,0.0,0.0,0.0,0.0,0.0,0.0,0.0,0.0,0.0,0.0,0.0,0.0,0.0,0.0,-0.1764,-0.1973,-0.2047,-0.2147,-0.2109,-0.1899,-0.1516,-0.0885,-0.0356,0.0,0.0,0.0,0.0,0.0,0.0,0.0,0.0,0.0,0.0,0.0,0.0,0.0,0.0,0.0,0.0,0.0,0.0,0.0,0.0,0.0,0.0,0.0,0.0,0.0,0.0,0.0,0.0,0.0,0.0,0.0,0.0,0.0,0.0,0.0,0.0,0.0,0.0,0.0,0.0,0.0,0.0,0.0,0.0,0.0,0.0,0.0,0.0,0.0,0.0,0.0,0.0,0.0,0.0,0.0,0.0,0.0,0.0,0.0,0.0,0.0,0.0694,0.0874,0.0,0.0,0.0,0.0,0.0,0.0,0.0,0.0,0.0,0.0,0.0,0.0,0.0,0.0,0.0,0.0,0.0,0.0,0.0,0.0,0.0,0.0,0.0,0.0,0.0,0.0,0.0,0.0,0.0,0.0,0.0,0.0,0.0,0.0,0.0,0.0,0.0,0.0,0.0,0.0,-0.179,-0.1682,-0.1673,-0.1717,-0.1475,-0.107,-0.039,0.0,0.0417,0.0984,0.1173,0.0,0.0,0.0,0.0,0.0,0.0,0.0,0.0,0.0,0.0,0.0,0.0,0.0,0.0,0.0,0.0,0.0,0.0,0.0,0.0,0.0,0.0,0.0,0.0,0.0,0.0,0.0,0.0,0.0,0.0,0.0,0.0,0.0,0.0,0.0,0.0,0.0,0.0,0.0,0.0,0.0,0.0,0.0,0.0,0.0,0.0,0.0,0.0,0.0,0.0,0.0,0.0,0.0,0.0,0.0,0.0,0.0,0.0,0.0,0.0897,0.1213,0.0,0.0,0.0,0.0,0.0,0.0,0.0,0.0,0.0,0.0,0.0,0.0,0.0,0.0,0.0,0.0,0.0,0.0,0.0,0.0,0.0,0.0,0.0,0.0,0.0,0.0,0.0,0.0,0.0,0.0,0.0,0.0,0.0,0.0,0.0,0.0,0.0,0.0,0.0,0.0,-0.1491,-0.1237,-0.0944,-0.0837,-0.0392,0.0065,0.0639,0.1055,0.142,0.1868,0.2141,0.0,0.0,0.0,0.0,0.0,0.0,0.0,0.0,0.0,0.0,0.0,0.0,0.0,0.0,0.0,0.0,0.0,0.0,0.0,0.0,0.0,0.0,0.0,0.0,0.0,0.0,0.0,0.0,0.0,0.0,0.0,0.0,0.0,0.0,0.0,0.0,0.0,0.0,0.0,0.0,0.0,0.0,0.0,0.0,0.0,0.0,0.0,0.0,0.0,0.0,0.0,0.0,0.0,-0.0072,0.0366,0.0818,0.1653,0.2077,0.1981,0.1512,0.1841,0.2622,0.2583,0.0,0.0,0.0,0.0,0.0,0.0,0.0,0.0,0.0,0.0,0.0,0.0,0.0,0.0,0.0,0.0,0.0,0.0,0.0,0.0,0.0,0.0,0.0,-0.08,-0.1073,-0.1152,-0.1274,0.0,0.0,0.0,0.0,0.0,0.0,0.0,0.0,0.0,0.0,0.0,-0.1002,-0.0581,-0.0185,0.0189,0.0767,0.1217,0.1636,0.2081,0.2405,0.2635,0.2932,0.3025,0.0,0.0,0.0,0.0,0.0,0.0,0.0,0.0,0.0,0.0,0.0,0.0,0.0,0.0,0.0,0.0,0.0,0.0,0.0,0.0,0.0,0.0,0.0,0.0,0.0,0.0,0.0,0.0,0.0,0.0,0.0,0.0,-0.1442,-0.1553,0.0,0.0,0.0,0.0,0.0,0.0,0.0,0.0,0.0,0.0,0.0,0.0,0.0,-0.0345,-0.0934,-0.0364,0.0,0.0155,0.0543,0.1256,0.2085,0.257,0.2771,0.2753,0.2676,0.0,0.2281,0.269,0.0,0.0,0.0,0.0,0.0,0.0,0.0,0.0,0.0,0.0,0.0,0.0,0.0,0.0,0.0,0.0,0.0,0.0,0.0,0.0,0.0,0.0,0.0755,0.0429,-0.0122,-0.0545,-0.054,-0.0897,-0.1242,-0.1223,-0.0934,-0.0667,0.0,0.0,0.0,0.0,0.0,0.0,-0.0107,0.0174,0.0611,0.1258,0.1662,0.2105,0.2667,0.2739,0.2932,0.3348,0.3262,0.3123,0.2978,0.2695,0.0,0.0,0.0,0.0,0.0,0.0,0.0,0.0,0.0,0.0,0.0,0.0,0.0,0.0,0.0,0.0,0.0,0.0,0.0,0.0,0.0,0.0,0.0,0.0,0.0,0.0,0.0,0.0,0.0,-0.0934,-0.1678,-0.1712,-0.1729,-0.1665,0.0,0.0,0.0,0.0,0.0,0.0,0.0,0.0,0.0,0.0546,0.0788,0.0819,0.0461,0.0714,0.1055,0.1401,0.2088,0.2786,0.3411,0.4117,0.4496,0.4453,0.45,0.4357,0.4132,0.364,0.3708,0.4182,0.0,0.0,0.0,0.0,0.4183,0.421,0.4204,0.4185,0.4158,0.4123,0.0,0.0,0.0,0.0,0.0,0.0,0.0,0.2385,0.2426,0.2037,0.1527,0.1266,0.0691,0.0187,0.0375,0.006,-0.0286,-0.0489,-0.0103,0.0291,0.032,0.0386,0.0,0.0,0.0,0.0395,0.0757,0.1254,0.1716,0.2179,0.2688,0.311,0.337,0.3317,0.3337,0.3507,0.3392,0.3234,0.3066,0.2889,0.2654,0.0,0.0,0.0,0.0,0.0,0.0,0.0,0.0,0.0,0.0,0.0,0.0,0.0,0.0,0.0,0.0,0.0,0.0,0.0,0.0,0.0,0.0,0.0,0.0,0.0,0.0,0.0,0.0,-0.114,-0.1764,-0.1834,-0.1847,-0.1786,0.0,0.0,0.0,0.0,0.0,0.0,0.1057,0.1224,0.1406,0.1756,0.1916,0.1982,0.1943,0.1936,0.2234,0.2758,0.3417,0.4067,0.4702,0.5363,0.5741,0.5744,0.579,0.5747,0.5632,0.4635,0.4519,0.4937,0.4709,0.4613,0.46,0.4553,0.4553,0.4572,0.4545,0.4526,0.4504,0.4461,0.43,0.4101,0.3951,0.0,0.0,0.0,0.0,0.3072,0.3193,0.2957,0.2559,0.2263,0.1666,0.1205,0.1459,0.1246,0.0847,0.0464,0.0825,0.1249,0.123,0.1253,0.0,0.1279,0.1216,0.1319,0.169,0.2143,0.2601,0.2997,0.3474,0.3822,0.3747,0.3689,0.3602,0.3482,0.342,0.3286,0.3108,0.2997,0.2782,0.254,0.0,0.0,0.0,0.0,0.0,0.0,0.0,0.0,0.0,0.0,0.0,0.0,0.0,0.0,0.0,0.0,0.0,0.0,0.0,0.0,0.0,0.0,0.0,0.0,0.0,0.0,0.0,0.0,0.0,-0.1956,-0.199,0.0,0.0,0.0,0.0,-0.0512,0.0329,0.1294,0.22,0.1896,0.2182,0.3044,0.2833,0.2736,0.277,0.2833,0.3315,0.4232,0.4238,0.4706,0.5646,0.5649,0.5741,0.5741,0.5744,0.5709,0.5734,0.5572,0.5433,0.5254,0.5066,0.4962,0.4913,0.491,0.4875,0.4758,0.4891,0.4796,0.4748,0.4745,0.4619,0.4335,0.4098,0.3937,0.0,0.0,0.3891,0.3828,0.3951,0.4053,0.401,0.3684,0.3057,0.251,0.2512,0.2429,0.2092,0.1446,0.1642,0.1814,0.1771,0.0,0.1694,0.174,0.1729,0.1913,0.2662,0.2784,0.3005,0.3704,0.3768,0.3747,0.3687,0.3627,0.3542,0.3425,0.336,0.3243,0.3105,0.3033,0.2886,0.2602,0.2469,0.0,0.0,0.0,0.0,0.0,0.0,0.0,0.0,0.0,0.0,0.0,0.0,0.0,0.0,0.0,0.0,0.0,0.0,0.0,0.0,0.0,0.0,0.0,0.0,0.0,0.0,0.0,0.0,-0.2145,-0.2151,0.0,-0.176,-0.0875,-0.0204,0.0,0.087,0.1565,0.215,0.2595,0.3125,0.3732,0.4251,0.4574,0.4507,0.4571,0.4787,0.5155,0.5193,0.5397,0.5684,0.5722,0.5719,0.5681,0.5681,0.5649,0.5679,0.557,0.5477,0.5335,0.515,0.509,0.5098,0.5019,0.5003,0.5008,0.4957,0.482,0.475,0.4709,0.4572,0.4428,0.4305,0.4185,0.409,0.409,0.4076,0.4013,0.4136,0.4183,0.415,0.4018,0.3453,0.3023,0.344,0.3115,0.2859,0.2977,0.3018,0.3049,0.296,0.2928,0.2888,0.2888,0.2879,0.2961,0.3291,0.3324,0.34,0.3649,0.3651,0.3627,0.3567,0.3542,0.348,0.3362,0.3297,0.3215,0.3112,0.3058,0.2947,0.2779,0.2619,0.2439,0.0,0.0,0.0,0.0,0.0,0.0,0.0,0.0,0.0,0.0,0.0,0.0,0.0,0.0,0.0,0.0,0.0,0.0,0.0,0.0,0.0,0.0,0.0,0.0,0.0,-0.1453,-0.2098,-0.2189,-0.2281,-0.2186,-0.1741,-0.0724,0.0073,0.0456,0.1391,0.2207,0.2743,0.3278,0.3892,0.4489,0.5166,0.5474,0.5474,0.5531,0.5559,0.5561,0.5687,0.5706,0.5709,0.5662,0.5657,0.5706,0.5706,0.5684,0.5559,0.554,0.5485,0.5403,0.5281,0.5234,0.5224,0.5142,0.5112,0.5095,0.4978,0.482,0.4748,0.4681,0.4594,0.4531,0.4474,0.4387,0.4303,0.4283,0.4234,0.4191,0.4213,0.4215,0.4213,0.4191,0.3752,0.3511,0.3918,0.3616,0.3439,0.3812,0.3838,0.3689,0.363,0.355,0.3504,0.3523,0.351,0.3518,0.358,0.3589,0.3589,0.3589,0.357,0.354,0.3499,0.3461,0.3395,0.3297,0.3184,0.3114,0.3082,0.3,0.2967,0.2889,0.2643,0.2463,0.2269,0.0,0.0,0.0,0.0,0.0,0.0,0.0,0.0,0.0,0.0,0.0,0.0,0.0,0.0,0.0,0.0,0.0,0.0,0.0,0.0,0.0,0.0,0.0,-0.1173,-0.1789,-0.2262,-0.2286,-0.2375,-0.221,-0.1853,-0.0618,0.0312,0.0799,0.208,0.3152,0.3964,0.4053,0.4489,0.5382,0.5442,0.5472,0.5472,0.5526,0.5553,0.5553,0.5556,0.5556,0.5556,0.5559,0.5559,0.5556,0.5556,0.5556,0.5551,0.5496,0.5472,0.5469,0.5469,0.5398,0.5292,0.5289,0.5213,0.5093,0.4976,0.482,0.4834,0.4774,0.4785,0.4654,0.4591,0.4531,0.4471,0.4414,0.4354,0.4294,0.4232,0.4215,0.4202,0.4136,0.4076,0.397,0.397,0.3927,0.3871,0.3872,0.3872,0.3808,0.3689,0.3578,0.3521,0.3578,0.3537,0.0,0.358,0.3589,0.3586,0.3583,0.3531,0.3496,0.3491,0.3384,0.3292,0.3181,0.3117,0.3079,0.3008,0.3,0.2944,0.2785,0.2548,0.2328,0.221,0.0,0.0,0.0,0.0,0.0,0.0,0.0,0.0,0.0,0.0,0.0,0.0,0.0,0.0,0.0,0.0,0.0,0.0,0.0,0.0,0.0,0.0224,-0.0603,-0.1173,-0.1869,-0.2293,-0.2406,-0.248,-0.2218,-0.1522,0.0081,0.1383,0.213,0.3716,0.4743,0.5023,0.5023,0.5114,0.5384,0.5401,0.5409,0.5409,0.5425,0.5433,0.5433,0.5477,0.5499,0.5499,0.554,0.5537,0.5499,0.5499,0.5474,0.5431,0.5417,0.5384,0.5343,0.5343,0.5322,0.5283,0.5194,0.5112,0.503,0.491,0.4783,0.4828,0.4725,0.4752,0.4654,0.4591,0.4531,0.4471,0.4414,0.4354,0.4294,0.4232,0.4215,0.4191,0.4085,0.3983,0.3962,0.3922,0.39,0.3871,0.3872,0.3872,0.3808,0.3689,0.3613,0.3567,0.3583,0.3572,0.357,0.3586,0.3589,0.357,0.3526,0.3507,0.3463,0.3376,0.33,0.3179,0.312,0.3027,0.2951,0.3005,0.2922,0.2815,0.2785,0.2629,0.2471,0.0,0.0,0.0,0.0,0.0,0.0,0.0,0.0,0.0,0.0,0.0,0.0,0.0,0.0,0.0,0.0,0.0,0.0,0.0,0.0,0.0,0.0,0.0848,0.0259,-0.0134,-0.1126,-0.1848,-0.1933,-0.1985,-0.1618,-0.0573,0.0827,0.2082,0.3165,0.4609,0.5384,0.5384,0.5384,0.5384,0.5384,0.5384,0.5384,0.5384,0.5384,0.5384,0.5384,0.542,0.5439,0.5439,0.5472,0.5469,0.5439,0.5439,0.5417,0.5384,0.5384,0.5349,0.5294,0.0,0.0,0.0,0.0,0.5052,0.5003,0.4809,0.4769,0.4826,0.4703,0.4646,0.4619,0.4583,0.4515,0.4442,0.4409,0.4335,0.4256,0.4194,0.4158,0.4117,0.3959,0.3938,0.3927,0.3895,0.3929,0.3894,0.3894,0.3833,0.0,0.3651,0.361,0.3589,0.3589,0.3589,0.3589,0.3589,0.3589,0.3564,0.3501,0.3474,0.3422,0.333,0.3213,0.0,0.0,0.0,0.2986,0.2969,0.2903,0.0,0.0,0.0,0.0,0.0,0.0,0.0,0.0,0.2196,0.2256,0.0,0.0,0.0,0.0,0.0,0.0,0.0,0.0,0.0,0.0,0.0,0.0,0.0,0.0,0.0,0.0,0.1745,0.1448,0.145,0.0148,-0.0832,-0.094,-0.0963,-0.049,0.0744,0.1671,0.2691,0.3868,0.4878,0.5384,0.5384,0.5384,0.0,0.0,0.0,0.5384,0.5384,0.5384,0.5384,0.5384,0.5384,0.5384,0.5384,0.5384,0.5384,0.5384,0.5384,0.5382,0.5373,0.5373,0.5335,0.5273,0.5273,0.5202,0.5095,0.5041,0.5016,0.4995,0.4807,0.0,0.0,0.47,0.4624,0.4572,0.4564,0.4485,0.4398,0.439,0.4305,0.4202,0.4142,0.4079,0.3959,0.3903,0.3889,0.3889,0.3889,0.3907,0.385,0.3841,0.3725,0.3668,0.36,0.3589,0.3589,0.3589,0.3589,0.3589,0.3589,0.3589,0.3561,0.3493,0.0,0.0,0.3316,0.3205,0.3146,0.3093,0.3082,0.3047,0.2933,0.2936,0.2908,0.2804,0.2804,0.2747,0.2632,0.2638,0.267,0.2719,0.2534,0.2548,0.0,0.0,0.0,0.0,0.0,0.0,0.0,0.0,0.0,0.0,0.0,0.0,0.0,0.0,0.0,0.2841,0.2501,0.2215,0.2211,0.1962,0.1546,0.0793,0.0806,0.1062,0.1652,0.259,0.3362,0.3952,0.4878,0.5384,0.5384,0.5384,0.5384,0.5384,0.5384,0.5384,0.5384,0.5384,0.5384,0.5384,0.5384,0.0,0.5384,0.5384,0.5384,0.5384,0.5384,0.5357,0.5311,0.5311,0.5245,0.5147,0.5147,0.5104,0.5036,0.5025,0.4992,0.4943,0.4796,0.4815,0.476,0.4687,0.4624,0.4564,0.4515,0.4452,0.0,0.4338,0.4273,0.4202,0.4142,0.4079,0.3959,0.3903,0.3889,0.3889,0.3889,0.3881,0.3899,0.379,0.3819,0.3717,0.3605,0.3589,0.3589,0.3589,0.3589,0.3589,0.3589,0.3589,0.3548,0.3439,0.342,0.3368,0.3208,0.3141,0.3103,0.309,0.3082,0.3063,0.2992,0.3036,0.3033,0.2972,0.2969,0.2936,0.2823,0.2911,0.2939,0.2947,0.2722,0.2736,0.0,0.0,0.0,0.0,0.0,0.0,0.0,0.0,0.0,0.0,0.0,0.3428,0.3586,0.0,0.3584,0.3742,0.3663,0.3596,0.3592,0.3676,0.3286,0.1993,0.1846,0.2186,0.2867,0.3379,0.3886,0.4546,0.5044,0.5308,0.5338,0.5338,0.5352,0.5384,0.5384,0.5384,0.5384,0.5384,0.5384,0.5384,0.5354,0.5338,0.5338,0.5308,0.5294,0.5294,0.5294,0.5275,0.5245,0.5215,0.5166,0.5109,0.5079,0.5046,0.5016,0.4989,0.4962,0.4924,0.4831,0.4779,0.4821,0.4757,0.4602,0.4523,0.4491,0.4422,0.4346,0.4316,0.4243,0.4164,0.4134,0.3997,0.3924,0.3895,0.3889,0.3889,0.3889,0.3927,0.3888,0.3885,0.3824,0.3703,0.3643,0.3608,0.3589,0.3589,0.3589,0.3589,0.3589,0.3589,0.3553,0.3463,0.3428,0.3376,0.3283,0.3171,0.3122,0.3093,0.3112,0.3068,0.3052,0.308,0.3083,0.3052,0.305,0.3036,0.3008,0.3036,0.3066,0.3046,0.2959,0.2965,0.0,0.0,0.0,0.0,0.0,0.0,0.0,0.0,0.3196,0.3379,0.3559,0.3741,0.39,0.4147,0.4319,0.4474,0.4643,0.4774,0.482,0.4921,0.4456,0.308,0.2943,0.3287,0.4048,0.4142,0.4474,0.5121,0.5202,0.5224,0.5273,0.5275,0.5297,0.5346,0.536,0.5363,0.5349,0.536,0.536,0.5349,0.53,0.5275,0.5273,0.5226,0.5202,0.5202,0.5191,0.5185,0.518,0.512,0.5093,0.5087,0.5027,0.5006,0.5,0.4954,0.4921,0.4888,0.479,0.4821,0.4804,0.4754,0.458,0.4482,0.4482,0.4401,0.4308,0.4308,0.4229,0.4139,0.4128,0.3983,0.3903,0.3892,0.3889,0.3889,0.3889,0.3913,0.3875,0.3921,0.383,0.3692,0.3681,0.3627,0.3589,0.3589,0.3589,0.3589,0.3589,0.3589,0.3564,0.3501,0.3447,0.3384,0.3311,0.3208,0.316,0.3112,0.3109,0.3136,0.3135,0.3133,0.3133,0.3133,0.3133,0.3133,0.3133,0.3133,0.3109,0.3109,0.3109,0.3109,0.3077,0.3128,0.324,0.3191,0.33,0.3433,0.0,0.0,0.357,0.3819,0.3899,0.4027,0.4161,0.4333,0.4477,0.4551,0.4743,0.4832,0.4763,0.4823,0.4715,0.4571,0.4701,0.4875,0.496,0.501,0.5121,0.5202,0.5202,0.5204,0.5213,0.5213,0.5215,0.5224,0.5275,0.5278,0.5224,0.5278,0.5278,0.5224,0.5215,0.5213,0.5213,0.5204,0.5202,0.5199,0.5145,0.5123,0.5117,0.5055,0.503,0.5025,0.4967,0.4946,0.4946,0.4937,0.4869,0.4774,0.4835,0.4793,0.4746,0.4668,0.458,0.4482,0.4482,0.4401,0.4308,0.4308,0.4259,0.4194,0.4139,0.4076,0.3951,0.39,0.3889,0.3889,0.3889,0.3884,0.3924,0.3869,0.3866,0.3741,0.3687,0.3627,0.3589,0.3589,0.3589,0.3589,0.3589,0.3589,0.3564,0.3501,0.3447,0.3365,0.32,0.3184,0.3179,0.3171,0.3171,0.3168,0.321,0.321,0.321,0.321,0.321,0.321,0.321,0.321,0.3213,0.3171,0.3171,0.3171,0.3224,0.3338,0.348,0.3488,0.3627,0.3777,0.3834,0.3875,0.3943,0.409,0.4213,0.4322,0.4409,0.4515,0.4597,0.4621,0.4771,0.4829,0.4829,0.4807,0.4769,0.4769,0.491,0.497,0.5006,0.5063,0.5098,0.5098,0.5098,0.5112,0.5147,0.515,0.5166,0.5202,0.5226,0.5229,0.5202,0.5229,0.5229,0.5202,0.5166,0.515,0.515,0.5112,0.5098,0.5095,0.5071,0.5057,0.5057,0.503,0.5,0.497,0.4946,0.4894,0.4831,0.4831,0.4798,0.4824,0.4788,0.4757,0.466,0.4624,0.4553,0.4477,0.4444,0.4373,0.4308,0.4308,0.4264,0.4202,0.4142,0.4079,0.3959,0.3903,0.3889,0.3889,0.3889,0.3889,0.3881,0.3918,0.3834,0.3819,0.3736,0.3651,0.3589,0.3589,0.3589,0.3589,0.3589,0.3589,0.355,0.3458,0.3425,0.3362,0.3189,0.3181,0.3181,0.3181,0.3181,0.3181,0.3181,0.3181,0.3181,0.3181,0.3181,0.3181,0.3181,0.3216,0.3232,0.3283,0.3319,0.3335,0.3398,0.354,0.3698,0.3741,0.3902,0.3991,0.4079,0.4131,0.4202,0.4289,0.4376,0.4452,0.4515,0.4561,0.4602,0.4635,0.4749,0.4785,0.4801,0.4768,0.4796,0.4796,0.4812,0.4839,0.4883,0.494,0.4978,0.4997,0.4997,0.5025,0.5085,0.5087,0.5106,0.515,0.5169,0.5169,0.5153,0.5169,0.5169,0.5153,0.5106,0.5087,0.5085,0.5041,0.5022,0.5019,0.5006,0.4997,0.4997,0.4978,0.4948,0.491,0.4894,0.4834,0.4826,0.481,0.4804,0.4799,0.4752,0.4665,0.4654,0.4594,0.4531,0.4471,0.4414,0.4357,0.4308,0.4308,0.4275,0.4224,0.4145,0.4093,0.3978,0.3905,0.3889,0.3889,0.3889,0.3889,0.3889,0.3889,0.3853,0.3827,0.3827,0.3668,0.3589,0.3589,0.3589,0.3589,0.3589,0.3589,0.3542,0.3425,0.3412,0.3362,0.3189,0.3181,0.3181,0.3181,0.3181,0.3181,0.3181,0.3195,0.3205,0.3205,0.3221,0.323,0.323,0.3324,0.3346,0.3346,0.3392,0.3412,0.3548,0.3755,0.3879,0.3881,0.412,0.4281,0.4224,0.4259,0.4303,0.4308,0.4311,0.4333,0.4392,0.4406,0.4444,0.4559,0.4578,0.46,0.466,0.4668,0.467,0.467,0.4796,0.4832,0.4835,0.4815,0.4799,0.4935,0.494,0.4965,0.5022,0.5025,0.5025,0.5027,0.5085,0.5085,0.5027,0.5085,0.5085,0.5027,0.5025,0.5025,0.5025,0.5022,0.5022,0.5019,0.4962,0.494,0.4935,0.4799,0.4775,0.4767,0.4785,0.4832,0.4824,0.4763,0.4668,0.4668,0.4665,0.4665,0.4654,0.4594,0.4531,0.4471,0.4414,0.4357,0.4308,0.4308,0.4305,0.4278,0.4158,0.4125,0.4093,0.3916,0.3889,0.3889,0.3889,0.3889,0.3889,0.3889,0.3853,0.3827,0.3827,0.3668,0.3589,0.3589,0.3589,0.3589,0.3589,0.3589,0.3542,0.3425,0.3412,0.3362,0.3189,0.3181,0.3181,0.3181,0.3181,0.3181,0.3181,0.3286,0.3319,0.3319,0.3376,0.3406,0.3406,0.3409,0.3409,0.3409,0.3412,0.3412,0.3627,0.3853,0.4013,0.4117,0.4278,0.4417,0.4398,0.4409,0.4414,0.4376,0.4335,0.4313,0.4335,0.4338,0.4376,0.4493,0.4548,0.4594,0.4657,0.4665,0.4665,0.4665,0.4754,0.4768,0.4768,0.4788,0.4796,0.4932,0.4937,0.4962,0.5019,0.5022,0.5022,0.5022,0.5041,0.5041,0.5022,0.5041,0.5041,0.5022,0.5022,0.5022,0.5019,0.4981,0.4965,0.4962,0.4826,0.4801,0.4799,0.4777,0.4823,0.4785,0.4763,0.4804,0.4765,0.4673,0.4665,0.4665,0.4665,0.4638,0.4594,0.4531,0.4474,0.4417,0.4357,0.4324,0.4308,0.4308,0.4308,0.4281,0.4158,0.4125,0.4095,0.3916,0.3889,0.3889,0.3889,0.3889,0.3889,0.3889,0.3853,0.3827,0.3827,0.3668,0.3589,0.3589,0.3589,0.3589,0.3589,0.3589,0.3556,0.3477,0.3469,0.3436,0.3357,0.3352,0.3352,0.3352,0.3352,0.3352,0.3352,0.3371,0.3382,0.3382,0.3401,0.3412,0.3412,0.345,0.3469,0.3469,0.351,0.3529,0.3777,0.3995,0.4199,0.424,0.4368,0.4466,0.4401,0.4403,0.439,0.4289,0.4204,0.4155,0.4177,0.4161,0.4202,0.4362,0.4455,0.454,0.4621,0.4651,0.4665,0.4665,0.4665,0.4665,0.4665,0.4736,0.4807,0.4867,0.4891,0.4929,0.4986,0.5008,0.5022,0.5022,0.5022,0.5022,0.5022,0.5022,0.5011,0.4989,0.497,0.4959,0.4957,0.4921,0.4828,0.4826,0.4839,0.4815,0.4812,0.479,0.4758,0.4796,0.4796,0.4771,0.4665,0.4665,0.4665,0.4665,0.4665,0.4624,0.4564,0.4501,0.4444,0.4387,0.4324,0.4308,0.4308,0.4308,0.4308,0.4281,0.4158,0.4125,0.4095,0.3916,0.3889,0.3889,0.3889,0.3889,0.3889,0.3889,0.3853,0.3827,0.3827,0.3668,0.3589,0.3589,0.3589,0.3589,0.3589,0.3589,0.3564,0.3501,0.3496,0.3474,0.3417,0.3412,0.3412,0.3412,0.3412,0.3412,0.3412,0.3433,0.3441,0.3441,0.3463,0.3474,0.3474,0.3512,0.3529,0.3529,0.357,0.3589,0.3997,0.418,0.4319,0.4316,0.4401,0.4436,0.4262,0.4262,0.4245,0.4063,0.3929,0.3864,0.0,0.0,0.3929,0.4169,0.4313,0.4439,0.4556,0.4627,0.4665,0.4665,0.4665,0.4665,0.4665,0.4665,0.476,0.4821,0.4809,0.4796,0.4932,0.4989,0.5022,0.5022,0.5022,0.5019,0.5016,0.5014,0.4984,0.4932,0.4799,0.4769,0.4769,0.4767,0.4767,0.4837,0.4777,0.4824,0.4821,0.476,0.4665,0.4665,0.4665,0.4665,0.4665,0.4665,0.4665,0.4735,0.466,0.4619,0.4559,0.4501,0.4442,0.4384,0.4324,0.4308,0.4308,0.4308,0.4305,0.4275,0.4155,0.4123,0.4093,0.3916,0.3889,0.3889,0.3889,0.3889,0.3889,0.3889,0.3853,0.3824,0.3819,0.3665,0.3589,0.3589,0.3589,0.3589,0.3589,0.3589,0.362,0.3507,0.3556,0.3534,0.3425,0.3422,0.3422,0.3422,0.3422,0.3422,0.3422,0.3471,0.3501,0.3501,0.3559,0.3589,0.3589,0.3589,0.3589,0.3589,0.3589,0.3589,0.4134,0.4335,0.4496,0.445,0.4461,0.4447,0.4313,0.4226,0.4123,0.3943,0.3774,0.3662,0.3676,0.3703,0.3804,0.4044,0.4259,0.0,0.4556,0.4627,0.0,0.4665,0.4665,0.4665,0.4665,0.4665,0.467,0.476,0.4785,0.4796,0.4932,0.4989,0.5022,0.5022,0.5022,0.5,0.4959,0.4913,0.4807,0.4793,0.4777,0.4769,0.4769,0.4798,0.4779,0.4774,0.4714,0.476,0.476,0.467,0.4665,0.4665,0.4665,0.4665,0.4665,0.4665,0.4665,0.4657,0.4613,0.4556,0.4501,0.4488,0.4414,0.4327,0.4313,0.4308,0.4308,0.4308,0.4275,0.4221,0.4145,0.4093,0.3975,0.3905,0.3889,0.3889,0.3889,0.3889,0.3889,0.3889,0.3853,0.3741,0.3649,0.3608,0.3589,0.3589,0.3589,0.3589,0.3589,0.3757,0.3918,0.3901,0.412,0.4114,0.3877,0.3821,0.3763,0.3542,0.3542,0.3542,0.3542,0.3556,0.3564,0.3564,0.358,0.3589,0.3589,0.3589,0.3589,0.3589,0.3589,0.3589,0.4294,0.445,0.4559,0.4499,0.4463,0.4469,0.4427,0.4267,0.4102,0.4088,0.3813,0.3621,0.3784,0.3769,0.3889,0.0,0.0,0.0,0.4684,0.4712,0.4707,0.0,0.4883,0.0,0.5174,0.5174,0.5174,0.5174,0.4926,0.485,0.4856,0.4937,0.4973,0.4946,0.4943,0.4929,0.482,0.4837,0.4807,0.4807,0.4779,0.4766,0.4766,0.473,0.4788,0.4788,0.4752,0.4665,0.4665,0.4665,0.4665,0.4665,0.4665,0.4665,0.4665,0.4665,0.4649,0.4619,0.4586,0.4518,0.4444,0.4444,0.4384,0.4308,0.4308,0.4308,0.4308,0.4308,0.4264,0.4202,0.4142,0.4079,0.3959,0.3903,0.3889,0.3889,0.3889,0.3889,0.3943,0.4038,0.4156,0.4189,0.4141,0.4098,0.4023,0.4023,0.3996,0.3977,0.3977,0.398,0.4036,0.4204,0.4369,0.4424,0.4257,0.4092,0.3868,0.3645,0.3589,0.3589,0.3589,0.3589,0.3589,0.3589,0.3589,0.3589,0.3589,0.3589,0.3589,0.3589,0.3589,0.3589,0.445,0.454,0.4567,0.4491,0.4428,0.4389,0.4452,0.4292,0.4144,0.4211,0.3834,0.3629,0.396,0.3898,0.3971,0.4546,0.0,0.4698,0.4821,0.4698,0.4737,0.5156,0.5244,0.5465,0.5825,0.5898,0.5974,0.5974,0.5438,0.5034,0.498,0.5016,0.5052,0.4999,0.4988,0.4909,0.4909,0.4923,0.4892,0.4818,0.4763,0.4738,0.4665,0.4665,0.4665,0.4665,0.4665,0.4665,0.4665,0.4665,0.4665,0.4665,0.4665,0.4665,0.4665,0.4665,0.4627,0.4572,0.4564,0.4491,0.4398,0.4398,0.4357,0.4308,0.4308,0.4308,0.4308,0.4308,0.4259,0.4191,0.4139,0.4074,0.3948,0.39,0.3889,0.3889,0.3889,0.3951,0.4055,0.4289,0.4637,0.4857,0.4899,0.4824,0.4721,0.4707,0.4708,0.4658,0.4648,0.4316,0.426,0.4592,0.4592,0.4592,0.4592,0.4316,0.398,0.3757,0.3698,0.3698,0.3698,0.3698,0.3698,0.3698,0.3698,0.3698,0.3645,0.3645,0.3645,0.3589,0.3589,0.3589,0.4537,0.4602,0.461,0.4452,0.4368,0.4312,0.4324,0.4232,0.0,0.0,0.371,0.3536,0.3668,0.3781,0.4011,0.4327,0.4611,0.474,0.476,0.4644,0.4721,0.0,0.5502,0.5825,0.6257,0.6624,0.6773,0.6773,0.672,0.64,0.5719,0.5801,0.584,0.5827,0.5768,0.5735,0.5735,0.5663,0.5484,0.5119,0.5107,0.4956,0.4665,0.4665,0.4665,0.4665,0.4665,0.4665,0.4665,0.4665,0.4665,0.4665,0.4665,0.4665,0.4665,0.4665,0.4627,0.4567,0.4515,0.4455,0.4398,0.4398,0.4357,0.4308,0.4308,0.4308,0.4308,0.4308,0.4226,0.4139,0.4128,0.3983,0.39,0.3892,0.3889,0.3889,0.3889,0.4133,0.4419,0.4654,0.4998,0.5272,0.5483,0.5514,0.5478,0.5463,0.5439,0.5342,0.527,0.4927,0.4871,0.5202,0.5266,0.5266,0.5262,0.4927,0.4651,0.4369,0.4369,0.4369,0.4369,0.4369,0.4369,0.4369,0.4369,0.4201,0.3924,0.3924,0.3813,0.3589,0.3589,0.3589,0.4597,0.4643,0.4621,0.4444,0.4327,0.431,0.4422,0.0,0.0,0.0,0.3968,0.375,0.3876,0.404,0.0,0.4508,0.4825,0.5072,0.512,0.5072,0.5277,0.5709,0.6141,0.6551,0.6982,0.7353,0.757,0.757,0.7615,0.7275,0.6543,0.6507,0.6526,0.6526,0.6488,0.647,0.647,0.6206,0.5898,0.5538,0.532,0.5029,0.4665,0.4665,0.4665,0.4665,0.4665,0.4665,0.4665,0.4665,0.4665,0.4665,0.4665,0.4665,0.466,0.463,0.4578,0.4518,0.4461,0.4401,0.4352,0.4352,0.4333,0.4308,0.4308,0.4308,0.4308,0.4308,0.4218,0.4125,0.4125,0.3975,0.3951,0.4133,0.4318,0.4444,0.4444,0.4687,0.4981,0.5312,0.5665,0.5956,0.6275,0.6286,0.6232,0.6242,0.6089,0.6005,0.5955,0.5743,0.5712,0.5875,0.588,0.588,0.5871,0.5541,0.5262,0.4983,0.4983,0.4983,0.4983,0.4983,0.4983,0.4983,0.4815,0.4536,0.426,0.4092,0.3868,0.3589,0.3589,0.3589,0.4616,0.4654,0.4619,0.4425,0.4286,0.424,0.4493,0.4354,0.0,0.4524,0.4286,0.4042,0.4253,0.4315,0.4488,0.0,0.5161,0.5402,0.5517,0.5628,0.5845,0.0,0.6913,0.0,0.7783,0.815,0.0,0.8367,0.8367,0.8005,0.728,0.7208,0.7208,0.7208,0.7208,0.7208,0.7208,0.6841,0.6478,0.6043,0.5683,0.5247,0.4956,0.4956,0.4883,0.481,0.4883,0.4883,0.481,0.4883,0.4883,0.481,0.481,0.4729,0.464,0.4591,0.4526,0.4458,0.4414,0.436,0.4308,0.4308,0.4308,0.4308,0.4308,0.4308,0.4308,0.4308,0.4218,0.4125,0.4125,0.3975,0.4013,0.4438,0.4745,0.5056,0.5118,0.536,0.5728,0.6039,0.6403,0.6709,0.7082,0.7074,0.7005,0.6985,0.6832,0.6647,0.6598,0.6544,0.6556,0.6522,0.6396,0.6325,0.6376,0.6098,0.5824,0.5596,0.5596,0.5596,0.5596,0.5596,0.5596,0.5596,0.5262,0.4983,0.4704,0.4372,0.4042,0.3833,0.3833,0.3782,0.4564,0.4621,0.4608,0.4373,0.4224,0.4153,0.4296,0.0,0.4332,0.448,0.4426,0.4393,0.447,0.4578,0.4751,0.5023,0.0,0.5625,0.5737,0.601,0.634,0.6932,0.0,0.0,0.8584,0.8941,0.9157,0.9157,0.9157,0.8874,0.8005,0.8005,0.8005,0.8005,0.8005,0.8005,0.8005,0.7638,0.7276,0.6918,0.6486,0.6047,0.568,0.568,0.5465,0.5177,0.5538,0.5465,0.5177,0.5538,0.5465,0.5177,0.5177,0.4921,0.458,0.4575,0.4501,0.4406,0.4401,0.436,0.4308,0.4308,0.4308,0.4308,0.4308,0.4308,0.4308,0.4308,0.4218,0.4125,0.4125,0.3975,0.4071,0.4681,0.5111,0.5421,0.5724,0.6092,0.6403,0.6766,0.7077,0.7383,0.775,0.78,0.7757,0.7654,0.7622,0.7471,0.7247,0.7311,0.7327,0.7215,0.6664,0.6386,0.6659,0.6437,0.6219,0.6219,0.6219,0.6219,0.6219,0.6219,0.6219,0.6219,0.588,0.5596,0.5314,0.4983,0.4687,0.4525,0.4525,0.4389,0.5065,0.5146,0.5213,0.4906,0.4714,0.46,0.4582,0.0,0.4472,0.4515,0.4526,0.4555,0.4437,0.4658,0.4856,0.4898,0.5379,0.5751,0.5905,0.6308,0.6737,0.719,0.7781,0.0,0.0,0.0,0.9231,0.9296,0.9302,0.9157,0.8874,0.8801,0.8801,0.8801,0.8801,0.8801,0.8801,0.844,0.8073,0.7638,0.7276,0.6918,0.6482,0.6261,0.597,0.5538,0.5756,0.5657,0.5473,0.5685,0.5587,0.5408,0.5195,0.4826,0.4515,0.448,0.4439,0.4392,0.4357,0.4327,0.4308,0.4308,0.4308,0.4308,0.4308,0.4308,0.4375,0.4574,0.4481,0.4447,0.4704,0.4791,0.4933,0.536,0.5728,0.6096,0.6403,0.6591,0.6775,0.7138,0.7322,0.7505,0.7872,0.7872,0.7856,0.7812,0.7747,0.7665,0.7568,0.7535,0.7502,0.7453,0.7174,0.7002,0.7048,0.6986,0.6899,0.6831,0.6888,0.693,0.693,0.6997,0.7002,0.693,0.6591,0.6275,0.5926,0.5712,0.5419,0.5222,0.5042,0.4849,0.5587,0.579,0.5822,0.5558,0.5336,0.5125,0.5002,0.4835,0.4695,0.4645,0.4711,0.474,0.4618,0.4767,0.4935,0.4992,0.54,0.5795,0.607,0.6569,0.7069,0.0,0.0,0.8298,0.8526,0.8857,0.9182,0.9296,0.9302,0.9302,0.9302,0.9302,0.9302,0.9302,0.9302,0.9302,0.9302,0.8874,0.8579,0.8285,0.7928,0.7566,0.728,0.6914,0.6551,0.6188,0.6166,0.6051,0.5923,0.5973,0.6,0.588,0.5461,0.5032,0.4591,0.4549,0.4455,0.4365,0.4456,0.444,0.444,0.4577,0.4574,0.444,0.4577,0.4428,0.4348,0.4678,0.4847,0.4926,0.5284,0.557,0.579,0.6096,0.6464,0.6771,0.7143,0.7204,0.7266,0.7505,0.7566,0.7627,0.7872,0.7872,0.7872,0.7872,0.7801,0.7741,0.7703,0.7655,0.7611,0.7578,0.7606,0.7562,0.7347,0.7331,0.7355,0.7269,0.7339,0.7331,0.7331,0.747,0.7475,0.7336,0.7107,0.6831,0.6525,0.6322,0.6085,0.5938,0.5651,0.5341,0.6137,0.6377,0.6489,0.6207,0.5922,0.5693,0.5386,0.5134,0.4989,0.4982,0.4985,0.4979,0.4979,0.4979,0.5094,0.5333,0.5432,0.5723,0.6322,0.6866,0.7301,0.0,0.0,0.8334,0.8568,0.8921,0.9182,0.9296,0.9302,0.9302,0.9302,0.9302,0.9302,0.9302,0.9302,0.9302,0.9302,0.8874,0.8729,0.8657,0.8295,0.8078,0.8078,0.7711,0.7349,0.6982,0.6892,0.6856,0.6776,0.6691,0.6725,0.6647,0.6229,0.5625,0.4875,0.4875,0.4629,0.4375,0.4708,0.4772,0.4839,0.5245,0.5111,0.4839,0.5245,0.4863,0.4284,0.4613,0.5097,0.5526,0.581,0.6158,0.6464,0.6827,0.7138,0.7505,0.7811,0.7872,0.7872,0.7872,0.7872,0.7872,0.7872,0.7872,0.7872,0.7872,0.7872,0.7828,0.7714,0.7801,0.7823,0.7709,0.7801,0.7774,0.7535,0.7519,0.7513,0.7513,0.7513,0.7519,0.7519,0.7519,0.7519,0.7519,0.7221,0.71,0.71,0.6754,0.6636,0.6796,0.6437,0.5943,0.6348,0.6571,0.6683,0.642,0.6161,0.5857,0.5592,0.5261,0.5039,0.4994,0.4985,0.5018,0.5018,0.5018,0.5094,0.5375,0.5469,0.0,0.0,0.0,0.0,0.7535,0.8111,0.8573,0.0,0.0,0.9182,0.9296,0.9302,0.9302,0.9302,0.9302,0.9302,0.9302,0.9302,0.9302,0.9302,0.9157,0.9085,0.9085,0.9018,0.8904,0.876,0.8398,0.7998,0.7579,0.7547,0.7422,0.7355,0.7397,0.7342,0.7211,0.6605,0.5911,0.5211,0.4941,0.4591,0.4375,0.4705,0.4977,0.5245,0.5379,0.5312,0.5245,0.5379,0.4996,0.4657,0.5397,0.5902,0.6214,0.6491,0.6653,0.6837,0.7138,0.7322,0.7505,0.7811,0.7872,0.7872,0.7872,0.7872,0.7872,0.7872,0.7872,0.7872,0.7872,0.7872,0.7856,0.7823,0.785,0.7856,0.7823,0.785,0.7807,0.7655,0.7644,0.7606,0.7524,0.7595,0.7644,0.7644,0.772,0.7725,0.7644,0.7525,0.7482,0.7402,0.7364,0.7285,0.721,0.6841,0.6494,0.6598,0.6851,0.6966,0.6747,0.6473,0.6113,0.5792,0.5471,0.5203,0.509,0.5034,0.5018,0.5018,0.5018,0.5094,0.5375,0.5431,0.5665,0.0,0.0,0.0,0.7655,0.0,0.0,0.0,0.9035,0.9182,0.9296,0.9302,0.9302,0.9302,0.9302,0.9302,0.9302,0.9302,0.9302,0.9302,0.9302,0.928,0.9242,0.9242,0.9177,0.8992,0.864,0.8318,0.8045,0.7862,0.7805,0.0,0.7704,0.7646,0.765,0.6987,0.6317,0.5781,0.5376,0.4977,0.4775,0.5111,0.5446,0.5781,0.5781,0.5781,0.5778,0.5745,0.5481,0.539,0.6106,0.6554,0.6917,0.7219,0.7266,0.7327,0.7566,0.7566,0.7627,0.7872,0.7872,0.7872,0.7872,0.7872,0.7872,0.7872,0.7872,0.7872,0.7872,0.7872,0.7872,0.7872,0.7872,0.7872,0.7872,0.7872,0.7845,0.7774,0.7763,0.7731,0.7655,0.7725,0.7763,0.7763,0.7834,0.7839,0.7769,0.7763,0.7731,0.7649,0.7731,0.762,0.7388,0.7199,0.6893,0.0,0.7095,0.723,0.7002,0.6763,0.6458,0.5996,0.5659,0.0,0.523,0.5094,0.5018,0.5018,0.5023,0.5105,0.5375,0.5424,0.5643,0.0,0.6605,0.0,0.0,0.8291,0.0,0.8774,0.9003,0.9182,0.9296,0.9302,0.9302,0.9291,0.9291,0.9291,0.928,0.928,0.928,0.9291,0.9291,0.9237,0.9052,0.9052,0.8987,0.8868,0.8596,0.8452,0.8367,0.7981,0.7937,0.8209,0.7766,0.7794,0.8056,0.7388,0.6853,0.6518,0.6113,0.5781,0.5513,0.5845,0.625,0.6589,0.6589,0.6589,0.6569,0.6411,0.6255,0.6281,0.6774,0.7148,0.7516,0.7811,0.7872,0.7872,0.7872,0.7872,0.7872,0.7872,0.7872,0.7872,0.7872,0.7872,0.7872,0.7872,0.7872,0.7872,0.7872,0.7872,0.7872,0.7872,0.7872,0.7872,0.7872,0.7872,0.7872,0.7872,0.7872,0.7872,0.7872,0.7872,0.7872,0.7872,0.7872,0.7872,0.7872,0.7872,0.7872,0.7872,0.7872,0.775,0.7444,0.7444,0.7266,0.6094,0.0,0.6752,0.6559,0.6393,0.6132,0.0,0.5513,0.5257,0.5197,0.5094,0.5018,0.5018,0.5089,0.5197,0.5385,0.5523,0.5795,0.6257,0.6893,0.0,0.8372,0.8513,0.8682,0.9019,0.9101,0.9182,0.9296,0.9302,0.9264,0.9177,0.9171,0.9133,0.8965,0.8965,0.9008,0.9171,0.9171,0.9111,0.8927,0.8927,0.8932,0.8812,0.8744,0.8627,0.8536,0.8443,0.8427,0.8494,0.84,0.839,0.8456,0.7989,0.7588,0.725,0.6849,0.6518,0.625,0.6585,0.6982,0.725,0.725,0.7254,0.724,0.7135,0.6893,0.6835,0.7325,0.7515,0.7619,0.7832,0.7872,0.7872,0.7872,0.7872,0.7872,0.7872,0.7872,0.7872,0.7872,0.7872,0.7872,0.7872,0.7872,0.7872,0.7872,0.7872,0.7872,0.7872,0.7872,0.7872,0.7872,0.7872,0.7872,0.7872,0.7872,0.7872,0.7872,0.7872,0.7872,0.7872,0.7872,0.7872,0.7872,0.7872,0.7872,0.7872,0.7872,0.7872,0.7811,0.7811,0.775,0.5855,0.6094,0.6274,0.6166,0.6062,0.586,0.5621,0.5371,0.517,0.5121,0.5061,0.5034,0.5083,0.5192,0.5328,0.5507,0.5735,0.6116,0.0,0.0,0.8013,0.8677,0.8753,0.8872,0.9182,0.9209,0.9215,0.9226,0.9226,0.9177,0.8987,0.8981,0.8949,0.8884,0.8884,0.8917,0.8981,0.8981,0.8992,0.8867,0.8867,0.8807,0.8687,0.8687,0.8649,0.859,0.859,0.859,0.859,0.859,0.859,0.859,0.8256,0.7989,0.7717,0.7388,0.7121,0.6924,0.7121,0.7321,0.7522,0.7717,0.7655,0.7517,0.7654,0.7573,0.752,0.7759,0.7807,0.7843,0.7905,0.7872,0.7872,0.7872,0.7872,0.7872,0.7872,0.7872,0.7872,0.7872,0.7872,0.7872,0.7872,0.7872,0.7872,0.7872,0.7872,0.7872,0.7872,0.7872,0.7872,0.7872,0.7872,0.7872,0.7872,0.7872,0.7872,0.7872,0.7872,0.7872,0.7872,0.7872,0.7872,0.7872,0.7872,0.7872,0.7872,0.7872,0.7872,0.7872,0.7872,0.796,0.5812,0.5888,0.5909,0.5947,0.5888,0.5746,0.5485,0.0,0.0,0.0,0.0,0.0,0.0,0.5355,0.0,0.0,0.0,0.0,0.7448,0.785,0.8274,0.8809,0.8884,0.0,0.928,0.9291,0.9237,0.9144,0.9046,0.8981,0.8863,0.8852,0.8847,0.883,0.8825,0.8825,0.8825,0.8847,0.8861,0.8742,0.8742,0.8687,0.859,0.859,0.859,0.859,0.859,0.0,0.859,0.859,0.859,0.859,0.8256,0.8189,0.8123,0.7794,0.766,0.766,0.766,0.766,0.7727,0.8056,0.7922,0.7727,0.8056,0.8189,0.8193,0.8135,0.8174,0.8147,0.7959,0.7926,0.7926,0.7926,0.7926,0.7926,0.7926,0.7926,0.7926,0.7926,0.7926,0.7926,0.7926,0.7926,0.7921,0.7899,0.796,0.7955,0.7872,0.7872,0.7872,0.7872,0.7872,0.7872,0.7872,0.7872,0.7872,0.7872,0.7872,0.7872,0.7872,0.7872,0.7872,0.7872,0.7872,0.7872,0.7872,0.7872,0.7883,0.796,0.796,0.8026,0.5692,0.5828,0.5953,0.6159,0.6198,0.6094,0.5757,0.554,0.0,0.0,0.0,0.0,0.0,0.5676,0.5866,0.0,0.0,0.7073,0.0,0.0,0.8274,0.8809,0.0,0.8976,0.928,0.9215,0.9155,0.9133,0.8971,0.8927,0.8807,0.8796,0.8753,0.8644,0.8644,0.8644,0.8644,0.8747,0.8736,0.8617,0.8617,0.8606,0.859,0.859,0.859,0.859,0.859,0.859,0.859,0.859,0.859,0.859,0.8523,0.8523,0.8523,0.8456,0.8456,0.8456,0.8456,0.8456,0.8456,0.8523,0.8456,0.8456,0.8523,0.8523,0.8491,0.8405,0.8361,0.8334,0.8209,0.8176,0.8176,0.8176,0.8176,0.8176,0.8176,0.8176,0.8176,0.8176,0.8176,0.8176,0.8176,0.8176,0.8144,0.8103,0.8086,0.8048,0.7944,0.7872,0.7872,0.7872,0.7872,0.7872,0.7872,0.7872,0.7872,0.7872,0.7872,0.7872,0.7872,0.7872,0.7872,0.7872,0.7872,0.7872,0.7872,0.7872,0.7988,0.8086,0.8086,0.8089,0.5626,0.5817,0.5964,0.6257,0.6317,0.629,0.5991,0.5828,0.5708,0.0,0.0,0.0,0.0,0.0,0.6339,0.6785,0.0,0.7535,0.8002,0.8176,0.8399,0.8807,0.8856,0.8921,0.9095,0.8998,0.9008,0.8943,0.8883,0.8802,0.8677,0.8671,0.8644,0.859,0.859,0.859,0.859,0.8644,0.8644,0.859,0.859,0.859,0.859,0.859,0.859,0.859,0.0,0.859,0.859,0.859,0.859,0.859,0.859,0.859,0.859,0.859,0.859,0.859,0.859,0.859,0.859,0.859,0.859,0.859,0.859,0.859,0.8579,0.8524,0.8465,0.8388,0.8205,0.8172,0.8172,0.8172,0.8172,0.8172,0.8172,0.8172,0.8172,0.8172,0.8172,0.8172,0.8172,0.8172,0.8214,0.816,0.8149,0.8133,0.8073,0.8068,0.8068,0.8068,0.8068,0.8068,0.8068,0.8068,0.8013,0.7877,0.7993,0.8032,0.8032,0.803,0.8068,0.8068,0.8068,0.8068,0.8068,0.8068,0.8095,0.8149,0.8149,0.822,0.5588,0.5729,0.5926,0.6203,0.6382,0.6381,0.6219,0.6116,0.604,0.5874,0.0,0.0,0.0,0.6426,0.0,0.7459,0.766,0.7867,0.8225,0.8361,0.8508,0.8742,0.8769,0.8818,0.8874,0.8857,0.8872,0.878,0.8742,0.8687,0.8595,0.859,0.859,0.859,0.859,0.859,0.859,0.859,0.859,0.859,0.859,0.859,0.859,0.859,0.859,0.859,0.859,0.859,0.859,0.859,0.859,0.859,0.859,0.859,0.859,0.859,0.859,0.859,0.859,0.859,0.859,0.859,0.859,0.859,0.859,0.859,0.859,0.859,0.8524,0.8437,0.8339,0.8318,0.8318,0.8318,0.8318,0.8318,0.8318,0.8318,0.8318,0.8318,0.8318,0.8318,0.8318,0.8318,0.8307,0.828,0.828,0.8205,0.8178,0.8172,0.8172,0.8172,0.8172,0.8172,0.8172,0.8172,0.8155,0.797,0.8046,0.8095,0.8095,0.8187,0.8172,0.8172,0.8172,0.8172,0.8172,0.8172,0.8183,0.828,0.828,0.8339,0.5486,0.561,0.5828,0.6181,0.6442,0.6573,0.6392,0.6441,0.6535,0.636,0.6425,0.0,0.0,0.6866,0.7287,0.7622,0.7785,0.7986,0.8356,0.841,0.8508,0.8742,0.8769,0.8818,0.8874,0.8851,0.878,0.8769,0.8666,0.8595,0.859,0.859,0.859,0.859,0.859,0.859,0.859,0.859,0.859,0.859,0.859,0.859,0.859,0.859,0.859,0.859,0.859,0.859,0.859,0.859,0.859,0.859,0.859,0.859,0.859,0.859,0.859,0.859,0.859,0.859,0.859,0.859,0.859,0.859,0.859,0.859,0.859,0.859,0.8584,0.8573,0.8562,0.8562,0.8562,0.8562,0.8562,0.8562,0.8562,0.8562,0.8562,0.8562,0.8562,0.8562,0.8562,0.8562,0.8524,0.8421,0.8405,0.8361,0.8183,0.8172,0.8172,0.8172,0.8172,0.8172,0.8172,0.8172,0.8161,0.8209,0.8214,0.822,0.822,0.8167,0.8172,0.8172,0.8172,0.8172,0.8172,0.8172,0.8296,0.8405,0.8405,0.8465,0.5588,0.5653,0.5756,0.6083,0.6333,0.6551,0.6736,0.6866,0.6959,0.6937,0.6975,0.7007,0.7007,0.0,0.7589,0.7872,0.8019,0.8198,0.8481,0.8524,0.8557,0.8644,0.8655,0.8677,0.872,0.8682,0.8655,0.8655,0.8611,0.859,0.859,0.859,0.8557,0.8486,0.8481,0.8443,0.8367,0.8367,0.8367,0.8372,0.8519,0.859,0.859,0.859,0.859,0.859,0.859,0.859,0.859,0.859,0.859,0.859,0.859,0.859,0.859,0.859,0.859,0.859,0.859,0.859,0.859,0.859,0.859,0.859,0.859,0.859,0.859,0.859,0.859,0.859,0.859,0.859,0.859,0.859,0.859,0.859,0.859,0.859,0.859,0.859,0.859,0.859,0.859,0.859,0.8573,0.853,0.8524,0.8508,0.8459,0.8454,0.8454,0.8454,0.8454,0.8454,0.8454,0.8454,0.8454,0.8454,0.8388,0.835,0.835,0.8416,0.8454,0.8454,0.8454,0.8454,0.8454,0.8454,0.8475,0.8524,0.8524,0.8546,0.5621,0.5659,0.5745,0.6029,0.0,0.0,0.6997,0.7187,0.7307,0.7426,0.7453,0.7453,0.7453,0.7589,0.778,0.8075,0.8155,0.8318,0.8552,0.859,0.859,0.859,0.859,0.859,0.859,0.859,0.8573,0.8535,0.8535,0.8519,0.8481,0.8475,0.8443,0.8361,0.8361,0.8318,0.8172,0.8172,0.8172,0.8172,0.8399,0.8475,0.8475,0.8475,0.8475,0.8481,0.8519,0.8535,0.8535,0.8573,0.859,0.859,0.859,0.859,0.859,0.859,0.859,0.859,0.859,0.859,0.859,0.859,0.859,0.859,0.859,0.859,0.859,0.859,0.859,0.859,0.859,0.859,0.859,0.859,0.859,0.859,0.859,0.859,0.859,0.859,0.859,0.859,0.859,0.859,0.859,0.859,0.859,0.859,0.859,0.859,0.859,0.859,0.859,0.859,0.859,0.859,0.859,0.859,0.8513,0.847,0.847,0.8546,0.859,0.859,0.859,0.859,0.859,0.859,0.859,0.859,0.859,0.859,0.5545,0.5599,0.575,0.6029,0.0,0.0,0.7147,0.7432,0.7557,0.7682,0.7709,0.7709,0.7703,0.7703,0.7785,0.8081,0.8155,0.8318,0.8557,0.859,0.859,0.859,0.859,0.859,0.8584,0.8584,0.8535,0.8426,0.8416,0.8361,0.8178,0.8172,0.8172,0.8172,0.8172,0.8167,0.8167,0.8167,0.8167,0.8167,0.8167,0.8167,0.8172,0.8172,0.8172,0.8178,0.8361,0.8416,0.8426,0.8541,0.859,0.859,0.859,0.859,0.859,0.859,0.859,0.859,0.859,0.859,0.859,0.859,0.859,0.859,0.859,0.859,0.859,0.859,0.859,0.859,0.859,0.859,0.859,0.859,0.859,0.859,0.859,0.859,0.859,0.859,0.859,0.859,0.859,0.859,0.859,0.859,0.859,0.859,0.859,0.859,0.859,0.859,0.859,0.859,0.859,0.859,0.859,0.859,0.859,0.859,0.859,0.859,0.859,0.859,0.859,0.859,0.859,0.859,0.859,0.859,0.859,0.859,0.5784,0.5888,0.0,0.6274,0.0,0.0,0.0,0.7622,0.0,0.0,0.8204,0.8155,0.7981,0.8019,0.81,0.8171,0.8285,0.8416,0.8568,0.859,0.859,0.859,0.859,0.8557,0.8475,0.847,0.8416,0.8296,0.8291,0.8274,0.8172,0.8172,0.8198,0.8111,0.8106,0.8068,0.7981,0.7981,0.7981,0.7981,0.7981,0.8068,0.8172,0.8172,0.8172,0.8172,0.8274,0.8339,0.8426,0.8541,0.859,0.859,0.859,0.859,0.859,0.859,0.859,0.859,0.859,0.859,0.859,0.859,0.859,0.859,0.859,0.859,0.859,0.859,0.859,0.859,0.859,0.859,0.859,0.859,0.859,0.859,0.859,0.859,0.859,0.859,0.859,0.859,0.859,0.859,0.859,0.859,0.859,0.859,0.859,0.859,0.859,0.859,0.859,0.859,0.859,0.859,0.859,0.859,0.859,0.859,0.859,0.859,0.859,0.859,0.859,0.859,0.859,0.859,0.859,0.859,0.859,0.859,0.5871,0.6062,0.0,0.6524,0.6855,0.7258,0.7758,0.0,0.0,0.0,0.8448,0.8372,0.8225,0.822,0.8188,0.8301,0.8372,0.8459,0.8573,0.859,0.859,0.859,0.8546,0.8492,0.8426,0.8372,0.8296,0.8171,0.816,0.8144,0.8095,0.8089,0.8057,0.8048,0.8043,0.801,0.7872,0.7872,0.7872,0.7872,0.7872,0.7948,0.8089,0.8089,0.8089,0.8095,0.8144,0.8258,0.8421,0.8492,0.8546,0.859,0.859,0.859,0.859,0.859,0.859,0.859,0.859,0.859,0.859,0.859,0.859,0.859,0.859,0.859,0.859,0.859,0.859,0.859,0.859,0.859,0.859,0.859,0.859,0.859,0.859,0.859,0.859,0.859,0.859,0.859,0.859,0.859,0.859,0.859,0.859,0.859,0.859,0.859,0.859,0.859,0.859,0.859,0.859,0.859,0.859,0.859,0.859,0.859,0.859,0.859,0.859,0.859,0.859,0.859,0.859,0.859,0.859,0.859,0.859,0.859,0.5866,0.617,0.0,0.6757,0.7111,0.0,0.8274,0.8432,0.8465,0.8568,0.0,0.8432,0.8432,0.8339,0.8301,0.8416,0.8432,0.847,0.8573,0.859,0.8584,0.8573,0.8481,0.841,0.8388,0.8285,0.8166,0.8108,0.8097,0.8054,0.7877,0.7872,0.7872,0.7872,0.7872,0.7872,0.7872,0.7872,0.7872,0.7872,0.7872,0.7872,0.7872,0.7872,0.7872,0.7877,0.8065,0.8182,0.8388,0.841,0.8481,0.8573,0.8584,0.859,0.859,0.859,0.859,0.859,0.859,0.859,0.859,0.859,0.859,0.859,0.859,0.859,0.859,0.859,0.859,0.859,0.859,0.859,0.859,0.859,0.859,0.859,0.859,0.859,0.859,0.859,0.859,0.859,0.859,0.859,0.859,0.859,0.859,0.859,0.859,0.859,0.859,0.859,0.859,0.859,0.859,0.859,0.859,0.859,0.859,0.859,0.859,0.859,0.859,0.859,0.859,0.859,0.859,0.859,0.859,0.859,0.859,0.859,0.5822,0.6236,0.0,0.0,0.7426,0.8013,0.8448,0.8552,0.8557,0.8584,0.8568,0.8552,0.8552,0.853,0.8519,0.8546,0.8552,0.8557,0.8584,0.859,0.8557,0.8465,0.8432,0.8345,0.8149,0.8106,0.804,0.7982,0.7971,0.796,0.7872,0.7872,0.7872,0.7872,0.7872,0.7872,0.7872,0.7872,0.7872,0.7872,0.7872,0.7872,0.7872,0.7872,0.7872,0.7877,0.8065,0.8147,0.8149,0.8339,0.8432,0.8465,0.8552,0.859,0.859,0.859,0.859,0.859,0.859,0.859,0.859,0.859,0.859,0.859,0.859,0.859,0.859,0.859,0.859,0.859,0.859,0.859,0.859,0.859,0.859,0.859,0.859,0.859,0.859,0.859,0.859,0.859,0.859,0.859,0.859,0.859,0.859,0.859,0.859,0.859,0.859,0.859,0.859,0.859,0.859,0.859,0.859,0.859,0.859,0.859,0.859,0.859,0.859,0.859,0.859,0.859,0.859,0.859,0.859,0.859,0.859,0.859,0.579,0.0,0.0,0.7366,0.0,0.822,0.8519,0.859,0.859,0.859,0.859,0.859,0.859,0.859,0.859,0.859,0.859,0.859,0.859,0.8541,0.8486,0.8426,0.8312,0.8193,0.813,0.8065,0.7999,0.7877,0.7872,0.7872,0.7872,0.7872,0.7872,0.7872,0.7872,0.7872,0.7872,0.7872,0.7872,0.7872,0.7872,0.7872,0.7872,0.7872,0.7872,0.7877,0.7999,0.8059,0.8125,0.8193,0.828,0.8334,0.8394,0.8454,0.8508,0.8508,0.8541,0.859,0.859,0.859,0.859,0.859,0.859,0.859,0.859,0.859,0.859,0.859,0.859,0.859,0.859,0.859,0.859,0.859,0.859,0.859,0.859,0.859,0.859,0.859,0.859,0.859,0.859,0.859,0.859,0.859,0.859,0.859,0.859,0.859,0.859,0.859,0.859,0.859,0.859,0.859,0.859,0.859,0.859,0.859,0.859,0.859,0.859,0.859,0.859,0.859,0.859,0.859,0.859,0.859,0.859,0.859,0.5687,0.0,0.7024,0.7884,0.8111,0.0,0.8475,0.8541,0.8557,0.8557,0.8573,0.859,0.859,0.859,0.8579,0.8562,0.8557,0.8552,0.853,0.8448,0.8378,0.8356,0.8176,0.8108,0.8086,0.7993,0.7872,0.7872,0.7872,0.7861,0.7845,0.7839,0.7834,0.7812,0.7812,0.7812,0.7812,0.7834,0.7839,0.7839,0.7861,0.7872,0.7872,0.7872,0.7872,0.7872,0.7872,0.7988,0.8086,0.8108,0.8111,0.8204,0.8225,0.8312,0.8416,0.8416,0.8492,0.859,0.859,0.859,0.859,0.859,0.859,0.859,0.859,0.859,0.859,0.859,0.859,0.859,0.859,0.859,0.859,0.859,0.859,0.859,0.859,0.859,0.859,0.859,0.859,0.859,0.859,0.859,0.859,0.859,0.859,0.859,0.859,0.859,0.859,0.859,0.859,0.859,0.859,0.859,0.859,0.859,0.859,0.859,0.859,0.859,0.859,0.859,0.859,0.859,0.859,0.859,0.859,0.859,0.859,0.859,0.5339,0.0,0.7111,0.0,0.8048,0.8111,0.0,0.0,0.8443,0.0,0.8519,0.859,0.859,0.859,0.8557,0.8454,0.8443,0.8405,0.8296,0.8269,0.822,0.818,0.8136,0.8075,0.7966,0.7883,0.7872,0.7872,0.7872,0.7828,0.7731,0.7725,0.7676,0.7568,0.7568,0.7568,0.7568,0.7671,0.7725,0.7725,0.7823,0.7872,0.7872,0.7872,0.7872,0.7872,0.7872,0.7883,0.7966,0.807,0.8125,0.8089,0.8193,0.8312,0.8416,0.8416,0.8492,0.859,0.859,0.859,0.859,0.859,0.859,0.859,0.859,0.859,0.859,0.859,0.859,0.859,0.859,0.859,0.859,0.859,0.859,0.859,0.859,0.859,0.859,0.859,0.859,0.859,0.859,0.859,0.859,0.859,0.859,0.859,0.859,0.859,0.859,0.859,0.859,0.859,0.859,0.859,0.859,0.859,0.859,0.859,0.859,0.859,0.859,0.859,0.859,0.859,0.859,0.859,0.859,0.859,0.859,0.859,0.5709,0.6366,0.704,0.0,0.7971,0.8002,0.8193,0.0,0.8318,0.8318,0.8356,0.841,0.8481,0.8492,0.8454,0.8334,0.8318,0.8296,0.8178,0.8176,0.8111,0.8125,0.8054,0.7993,0.7877,0.7872,0.7845,0.778,0.7774,0.7725,0.7606,0.76,0.7573,0.7519,0.7519,0.7519,0.7519,0.7573,0.7633,0.7703,0.7818,0.7872,0.7872,0.7872,0.7872,0.7872,0.7872,0.7872,0.7877,0.7988,0.8015,0.8021,0.8008,0.8149,0.8318,0.8318,0.8432,0.859,0.859,0.859,0.859,0.859,0.859,0.859,0.859,0.859,0.859,0.859,0.859,0.859,0.859,0.859,0.859,0.859,0.859,0.859,0.859,0.859,0.859,0.859,0.859,0.859,0.859,0.859,0.8611,0.8677,0.8687,0.8715,0.878,0.8791,0.8791,0.8791,0.8731,0.872,0.8785,0.8731,0.872,0.8785,0.8791,0.8791,0.8791,0.8791,0.8791,0.8791,0.8655,0.859,0.859,0.859,0.859,0.859,0.859,0.859,0.5833,0.6344,0.6779,0.7437,0.7644,0.7747,0.0,0.0,0.8144,0.0,0.8193,0.8253,0.8312,0.835,0.8329,0.8209,0.8187,0.8176,0.8149,0.8062,0.807,0.807,0.7988,0.7861,0.7828,0.7828,0.778,0.7665,0.7655,0.76,0.7481,0.747,0.7459,0.7426,0.7426,0.7426,0.7426,0.7459,0.7551,0.7703,0.7785,0.7845,0.7872,0.7872,0.7872,0.7872,0.7872,0.7872,0.7872,0.7872,0.7872,0.7872,0.7872,0.8019,0.8172,0.8172,0.8383,0.859,0.859,0.859,0.859,0.859,0.859,0.859,0.859,0.859,0.859,0.859,0.859,0.859,0.859,0.859,0.859,0.859,0.8611,0.8628,0.8595,0.859,0.859,0.859,0.859,0.859,0.859,0.859,0.8628,0.8753,0.8769,0.8812,0.8868,0.8884,0.8884,0.8884,0.8872,0.8851,0.8874,0.8867,0.8856,0.8879,0.8884,0.8884,0.8884,0.8884,0.8884,0.8884,0.8774,0.8682,0.8682,0.8649,0.8633,0.8633,0.86,0.859,0.5405,0.585,0.6241,0.6736,0.7024,0.0,0.0,0.0,0.7888,0.7888,0.8073,0.8204,0.8158,0.8166,0.8204,0.8147,0.8125,0.8086,0.7905,0.7883,0.7883,0.7883,0.7877,0.7828,0.772,0.7709,0.766,0.7535,0.7529,0.7475,0.7293,0.7288,0.729,0.7232,0.7232,0.7232,0.7232,0.7285,0.7464,0.7703,0.7709,0.7769,0.7872,0.7872,0.7872,0.7872,0.7872,0.7872,0.7872,0.7872,0.7872,0.7872,0.7872,0.8019,0.8172,0.8172,0.8383,0.859,0.859,0.859,0.859,0.859,0.859,0.859,0.859,0.859,0.859,0.859,0.859,0.859,0.859,0.859,0.859,0.859,0.8677,0.8731,0.8611,0.859,0.859,0.859,0.859,0.859,0.859,0.859,0.8628,0.8753,0.8769,0.8812,0.8868,0.8884,0.8884,0.8884,0.8879,0.8874,0.8884,0.8879,0.8874,0.8884,0.8884,0.8884,0.8884,0.8884,0.8884,0.8884,0.8868,0.8863,0.8863,0.8818,0.8758,0.8758,0.8638,0.859,0.4887,0.5235,0.0,0.6105,0.6458,0.6768,0.7046,0.7328,0.7573,0.7731,0.7834,0.7899,0.7932,0.8035,0.8079,0.8021,0.7999,0.7982,0.7877,0.7872,0.7845,0.7769,0.7763,0.7714,0.7595,0.7584,0.7535,0.741,0.7342,0.735,0.7225,0.722,0.7198,0.721,0.721,0.721,0.721,0.7274,0.732,0.747,0.7627,0.7725,0.7763,0.7839,0.7872,0.7872,0.7872,0.7872,0.7872,0.7872,0.7872,0.7872,0.7872,0.8019,0.8172,0.8172,0.8383,0.859,0.859,0.859,0.859,0.859,0.859,0.859,0.859,0.859,0.859,0.859,0.859,0.859,0.859,0.8644,0.8725,0.8802,0.8856,0.8872,0.8829,0.8823,0.8823,0.8823,0.8823,0.8823,0.8823,0.8823,0.8861,0.8986,0.9003,0.9046,0.916,0.9177,0.9177,0.9177,0.9111,0.9101,0.9171,0.9111,0.9101,0.9171,0.9177,0.9177,0.9177,0.9177,0.9177,0.9177,0.9177,0.9106,0.8884,0.8829,0.8769,0.8769,0.8644,0.859,0.4635,0.4892,0.0,0.0,0.0,0.6187,0.66,0.0,0.7165,0.741,0.7524,0.7616,0.7731,0.7818,0.7872,0.7872,0.7872,0.7856,0.7818,0.7812,0.7769,0.7655,0.7638,0.7589,0.747,0.7459,0.7404,0.7285,0.7274,0.7241,0.7215,0.721,0.721,0.721,0.721,0.721,0.721,0.7236,0.7296,0.7282,0.7502,0.7622,0.7703,0.778,0.7834,0.7872,0.7872,0.7872,0.7872,0.7872,0.7872,0.7872,0.7872,0.8019,0.8172,0.8172,0.8383,0.859,0.859,0.859,0.859,0.859,0.859,0.859,0.859,0.859,0.859,0.859,0.8617,0.8649,0.8649,0.8736,0.8861,0.8917,0.8944,0.8954,0.8992,0.8938,0.8884,0.8884,0.8884,0.8884,0.8884,0.8884,0.8922,0.9046,0.9133,0.9177,0.9291,0.9302,0.9302,0.9302,0.9237,0.922,0.9296,0.9237,0.9226,0.9302,0.9302,0.9302,0.9302,0.9302,0.9302,0.9302,0.9302,0.9226,0.8998,0.891,0.8834,0.8829,0.8666,0.859,0.0,0.0,0.0,0.0,0.0,0.0,0.5986,0.0,0.6671,0.6926,0.7165,0.7309,0.7497,0.7519,0.7595,0.7823,0.7861,0.7823,0.7709,0.7698,0.7649,0.7529,0.7513,0.7464,0.7288,0.7271,0.7279,0.7221,0.721,0.721,0.721,0.721,0.721,0.721,0.721,0.721,0.721,0.721,0.7214,0.7271,0.7277,0.7464,0.7698,0.7698,0.7763,0.7872,0.7872,0.7872,0.7872,0.7872,0.7872,0.7872,0.7872,0.8019,0.8167,0.8172,0.8383,0.8584,0.8584,0.859,0.859,0.859,0.859,0.859,0.859,0.859,0.859,0.859,0.8677,0.8774,0.878,0.8867,0.8917,0.9041,0.9139,0.9171,0.928,0.9122,0.889,0.889,0.889,0.889,0.889,0.889,0.8933,0.9052,0.9139,0.9182,0.9291,0.9302,0.9302,0.9302,0.9302,0.9302,0.9302,0.9302,0.9302,0.9302,0.9302,0.9302,0.9302,0.9302,0.9302,0.9302,0.9302,0.9302,0.9302,0.8998,0.8884,0.8879,0.8698,0.859,0.4126,0.0,0.0,0.0,0.0,0.0,0.0,0.0,0.6246,0.6747,0.6975,0.7171,0.7464,0.7519,0.754,0.7606,0.7616,0.7606,0.7573,0.7568,0.7524,0.7342,0.7331,0.7339,0.7214,0.7203,0.7248,0.0,0.721,0.721,0.721,0.721,0.721,0.721,0.721,0.721,0.721,0.721,0.7226,0.7203,0.7296,0.7415,0.7573,0.766,0.7763,0.7872,0.7872,0.7872,0.7872,0.7872,0.7872,0.7872,0.7872,0.7964,0.8117,0.8204,0.8334,0.8475,0.8557,0.859,0.859,0.859,0.859,0.859,0.859,0.859,0.8606,0.8693,0.8742,0.8812,0.8986,0.9057,0.9041,0.9231,0.9258,0.9264,0.9296,0.9253,0.9204,0.9204,0.9204,0.9204,0.9204,0.9204,0.922,0.9253,0.9258,0.9269,0.9302,0.9302,0.9302,0.9302,0.9302,0.9302,0.9302,0.9302,0.9302,0.9302,0.9302,0.9302,0.9302,0.9302,0.9302,0.9302,0.9302,0.9302,0.9302,0.8998,0.8884,0.8879,0.8698,0.859,0.4235,0.4284,0.4394,0.4499,0.0,0.0,0.5201,0.5466,0.5746,0.0,0.6491,0.6703,0.7008,0.7067,0.7084,0.7133,0.7143,0.7214,0.7415,0.7442,0.7394,0.7274,0.7258,0.723,0.7215,0.721,0.721,0.721,0.721,0.721,0.721,0.721,0.721,0.721,0.721,0.721,0.721,0.721,0.721,0.721,0.7225,0.735,0.7524,0.7595,0.7714,0.7872,0.7872,0.7872,0.7872,0.7872,0.7872,0.7872,0.7872,0.801,0.813,0.8193,0.8312,0.8437,0.8546,0.859,0.859,0.859,0.859,0.859,0.859,0.859,0.8611,0.8736,0.8845,0.8965,0.9155,0.9204,0.922,0.9291,0.9302,0.9302,0.9302,0.9302,0.9302,0.9302,0.9302,0.9302,0.9302,0.9302,0.9302,0.9302,0.9302,0.9302,0.9302,0.9302,0.9302,0.9302,0.9302,0.9302,0.9302,0.9302,0.9302,0.9302,0.9302,0.9302,0.9302,0.9302,0.9302,0.9302,0.9302,0.9258,0.9155,0.8949,0.883,0.8796,0.8655,0.859,0.4728,0.4753,0.4779,0.4912,0.4859,0.0,0.5058,0.5156,0.527,0.0,0.585,0.6083,0.6284,0.6327,0.6365,0.654,0.6573,0.6747,0.723,0.7239,0.7258,0.7204,0.7193,0.7188,0.7172,0.7172,0.7172,0.7172,0.7182,0.7199,0.721,0.721,0.721,0.721,0.721,0.721,0.721,0.721,0.721,0.721,0.721,0.7279,0.7519,0.7519,0.7649,0.7872,0.7872,0.7872,0.7872,0.7872,0.7872,0.7872,0.7872,0.7999,0.8114,0.8187,0.8301,0.8416,0.8546,0.859,0.859,0.859,0.859,0.859,0.859,0.859,0.8617,0.8753,0.8959,0.916,0.9275,0.9302,0.9302,0.9302,0.9302,0.9302,0.9302,0.9302,0.9302,0.9302,0.9302,0.9302,0.9302,0.9302,0.9302,0.9302,0.9302,0.9302,0.9302,0.9302,0.9302,0.9302,0.9302,0.9302,0.9302,0.9302,0.9302,0.9302,0.9302,0.9302,0.9302,0.9302,0.9302,0.9302,0.9302,0.9188,0.8884,0.8868,0.8812,0.859,0.859,0.859,0.4947,0.4984,0.5064,0.5255,0.5258,0.0,0.5237,0.5231,0.5231,0.0,0.5409,0.561,0.5947,0.6007,0.6045,0.617,0.6274,0.6502,0.6986,0.7056,0.7046,0.7018,0.7018,0.698,0.6883,0.6872,0.6872,0.6872,0.6964,0.7111,0.7204,0.721,0.721,0.721,0.721,0.721,0.721,0.721,0.721,0.721,0.721,0.7279,0.7519,0.7519,0.7649,0.7872,0.7872,0.7872,0.7872,0.7872,0.7872,0.7872,0.7872,0.7944,0.7932,0.8155,0.8188,0.8301,0.8513,0.859,0.859,0.859,0.859,0.859,0.859,0.859,0.8633,0.8856,0.8954,0.916,0.9275,0.9302,0.9302,0.9302,0.9302,0.9302,0.9302,0.9302,0.9302,0.9302,0.9302,0.9302,0.9302,0.9302,0.9302,0.9302,0.9302,0.9302,0.9302,0.9302,0.9302,0.9302,0.9302,0.9302,0.9302,0.9302,0.9302,0.9302,0.9302,0.9302,0.9302,0.9302,0.9302,0.9302,0.9302,0.9188,0.8884,0.8856,0.8731,0.859,0.859,0.859,0.5636,0.5707,0.5829,0.5914,0.589,0.0,0.0,0.541,0.5326,0.5292,0.5427,0.5612,0.5886,0.5944,0.5961,0.5985,0.6144,0.6409,0.6895,0.6861,0.6823,0.6888,0.6893,0.6872,0.6806,0.6801,0.6801,0.6801,0.6861,0.6948,0.7117,0.7122,0.715,0.721,0.721,0.721,0.721,0.721,0.721,0.721,0.721,0.7279,0.7519,0.7519,0.7649,0.7872,0.7872,0.7872,0.7872,0.7872,0.7872,0.7872,0.7872,0.7872,0.7899,0.8144,0.8172,0.8269,0.8508,0.859,0.859,0.859,0.859,0.859,0.859,0.8628,0.8715,0.883,0.8971,0.916,0.9275,0.9302,0.9302,0.9302,0.9302,0.9302,0.9302,0.9302,0.9302,0.9302,0.9302,0.9302,0.9302,0.9302,0.9302,0.9302,0.9302,0.9302,0.9302,0.9302,0.9302,0.9302,0.9302,0.9302,0.9302,0.9302,0.9302,0.9302,0.9302,0.9302,0.9302,0.9302,0.9302,0.9302,0.9247,0.9128,0.8884,0.8829,0.8709,0.859,0.859,0.859,0.6716,0.6788,0.6836,0.6812,0.6701,0.647,0.0,0.0,0.0,0.556,0.5689,0.0,0.0,0.0,0.0,0.0,0.0,0.0,0.0,0.6875,0.0,0.6878,0.6802,0.675,0.675,0.675,0.6761,0.673,0.6783,0.6848,0.6942,0.6975,0.7029,0.7177,0.7199,0.721,0.721,0.721,0.721,0.721,0.7265,0.7398,0.7577,0.7635,0.7822,0.8116,0.8116,0.8055,0.7994,0.7994,0.7933,0.7872,0.7872,0.7872,0.7899,0.8144,0.8172,0.8269,0.8508,0.859,0.859,0.859,0.859,0.859,0.859,0.8655,0.8758,0.8883,0.8986,0.909,0.9204,0.9237,0.9237,0.9237,0.9237,0.9237,0.9237,0.9237,0.9237,0.9237,0.9237,0.9253,0.9296,0.9302,0.9302,0.9302,0.9302,0.9302,0.9302,0.9302,0.9302,0.9302,0.9302,0.9302,0.9302,0.9302,0.9302,0.9302,0.9302,0.9302,0.9302,0.9302,0.9302,0.9302,0.9215,0.9025,0.8884,0.8851,0.8731,0.859,0.859,0.859,0.8244,0.8192,0.8041,0.7886,0.76,0.723,0.6697,0.0,0.6478,0.6171,0.0,0.0,0.0,0.0,0.0,0.0,0.0,0.0,0.7364,0.7518,0.7511,0.7276,0.6862,0.6617,0.6617,0.6617,0.6564,0.6469,0.6681,0.6788,0.6812,0.6926,0.6991,0.7002,0.7155,0.721,0.721,0.721,0.721,0.721,0.7438,0.768,0.7921,0.8212,0.8473,0.8793,0.8793,0.861,0.8366,0.8366,0.8183,0.7872,0.7872,0.7872,0.7899,0.8144,0.8172,0.8269,0.8508,0.859,0.859,0.859,0.859,0.859,0.859,0.8595,0.8633,0.8758,0.8802,0.884,0.8959,0.8922,0.8922,0.8922,0.8922,0.8922,0.8922,0.8922,0.8922,0.8922,0.8922,0.8987,0.9269,0.9302,0.9302,0.9302,0.9302,0.9302,0.9302,0.9302,0.9302,0.9302,0.9302,0.9302,0.9302,0.9302,0.9302,0.9302,0.9302,0.9302,0.9302,0.9302,0.9302,0.9302,0.9291,0.9177,0.8884,0.8868,0.8812,0.859,0.859,0.859,0.9021,0.8947,0.8801,0.8377,0.826,0.8005,0.7241,0.7224,0.732,0.7076,0.0,0.0,0.0,0.0,0.0,0.0,0.7212,0.0,0.0,0.0,0.7628,0.0,0.0,0.0,0.6807,0.6714,0.6685,0.6697,0.6703,0.6851,0.7031,0.6931,0.691,0.698,0.715,0.721,0.721,0.721,0.7265,0.7438,0.7881,0.8314,0.8673,0.9218,0.9607,0.9813,0.9963,0.9822,0.9457,0.9098,0.8732,0.836,0.8055,0.7872,0.796,0.8397,0.8556,0.859,0.9102,0.9256,0.9256,0.9256,0.9256,0.9256,0.9256,0.9256,0.9285,0.934,0.9375,0.9342,0.9267,0.9226,0.9179,0.9041,0.8987,0.9003,0.9144,0.9155,0.9155,0.9155,0.9101,0.9019,0.9188,0.9144,0.9101,0.9101,0.9101,0.9122,0.9198,0.9204,0.9231,0.9296,0.9242,0.9231,0.9296,0.9242,0.9231,0.9302,0.9302,0.9302,0.9302,0.9302,0.9302,0.9302,0.9302,0.9188,0.8884,0.8884,0.8823,0.859,0.859,0.859,0.9887,0.9769,0.9516,0.8879,0.8736,0.8534,0.7651,0.7776,0.8123,0.8106,0.83,0.0,0.0,0.0,0.0,0.0,0.0,0.8165,0.0,0.8224,0.0,0.0,0.0,0.0,0.0,0.6988,0.6989,0.7041,0.6891,0.6935,0.7118,0.6912,0.6844,0.6931,0.7133,0.721,0.721,0.7265,0.7493,0.7881,0.8484,0.9022,0.961,1.0249,1.0646,1.0852,1.1034,1.0906,1.055,0.9883,0.9396,0.9031,0.8421,0.8299,0.8451,0.8902,0.9124,0.9288,1.0024,1.0253,1.0253,1.0253,1.0253,1.0253,1.0253,1.0253,1.0272,1.0303,1.0328,1.0287,1.0054,0.9805,0.9635,0.9352,0.9176,0.9068,0.9182,0.9204,0.9204,0.9204,0.9111,0.9035,0.9035,0.8917,0.8884,0.8884,0.8884,0.8927,0.9046,0.9133,0.9177,0.9291,0.9231,0.9215,0.9296,0.9226,0.9215,0.9296,0.9302,0.9302,0.9302,0.9302,0.9302,0.9302,0.9302,0.9188,0.8884,0.8884,0.8823,0.859,0.859,0.859,1.1187,1.0877,1.0357,0.9484,0.9126,0.8798,0.7966,0.824,0.8817,0.9251,0.9666,1.0079,1.0512,1.0268,0.9841,0.9583,0.0,0.0,0.0,0.0,0.0,0.0,0.0,0.0,0.0,0.749,0.7591,0.0,0.724,0.7131,0.6991,0.6867,0.6801,0.6806,0.7089,0.721,0.721,0.7438,0.7881,0.8484,0.9085,0.9861,1.0755,1.1051,1.1419,1.1752,1.1752,1.1571,1.1216,1.0543,1.0065,0.97,0.9098,0.9214,0.9734,0.9777,0.9945,1.0367,1.1388,1.1762,1.1762,1.1762,1.1762,1.1762,1.1762,1.1762,1.1762,1.1769,1.1769,1.1637,1.1247,1.0651,1.0092,0.9832,0.9257,0.8812,0.8868,0.8895,0.8895,0.8895,0.8867,0.878,0.878,0.8878,0.8884,0.8884,0.8884,0.8927,0.9046,0.9133,0.9177,0.9291,0.9302,0.9302,0.9302,0.9302,0.9302,0.9302,0.9302,0.9302,0.9302,0.9302,0.9302,0.9302,0.9302,0.9188,0.8884,0.8884,0.8823,0.859,0.859,0.859,1.1713,1.159,1.1301,1.0419,1.0194,0.9916,0.904,0.9332,0.9862,1.0182,1.0624,1.1068,1.155,1.1325,1.092,1.0372,1.0047,0.0,0.0,0.0,0.0,0.0,0.0,0.0,0.0,0.0,0.0,0.801,0.7445,0.0,0.7313,0.6807,0.6632,0.6796,0.6959,0.7188,0.7438,0.7937,0.8484,0.9085,1.0076,1.0873,1.1572,1.2148,1.2583,1.2844,1.303,1.2844,1.2483,1.1812,1.139,1.1027,1.0429,1.0429,1.0769,1.0531,1.0834,1.1385,1.2172,1.2487,1.2487,1.2487,1.2487,1.2487,1.2487,1.2487,1.2487,1.2487,1.2487,1.2355,1.2025,1.1372,1.0778,1.034,0.9785,0.9221,0.9215,0.9182,0.9182,0.9182,0.909,0.9014,0.9014,0.891,0.8802,0.8725,0.8709,0.8785,0.8917,0.8944,0.909,0.928,0.9237,0.922,0.9296,0.9302,0.9302,0.9302,0.9302,0.9302,0.9302,0.9302,0.9302,0.9302,0.9302,0.9188,0.8884,0.8884,0.8823,0.859,0.859,0.859,1.2242,1.2224,1.2162,1.1546,1.1295,1.1013,1.0218,1.0444,1.0907,1.1286,1.1708,1.2206,1.2761,1.2513,1.1963,1.1191,0.0,0.0,0.0,0.921,0.0,0.0,0.0,0.0,0.0,0.0,0.8663,0.855,0.7853,0.0,0.0,0.6949,0.6687,0.6887,0.7059,0.7368,0.7937,0.854,0.9196,1.0021,1.0852,1.1649,1.2364,1.2833,1.3221,1.3504,1.3627,1.3564,1.3324,1.2664,1.2294,1.2053,1.1398,1.1429,1.189,1.1619,1.2115,1.2956,1.3396,1.3547,1.3547,1.3547,1.3547,1.3547,1.3547,1.3547,1.3547,1.3547,1.3547,1.3473,1.3144,1.2495,1.1836,1.1356,1.0528,0.9781,0.9615,0.9385,0.9258,0.9296,0.9209,0.9133,0.9133,0.8932,0.8758,0.872,0.8682,0.8742,0.8917,0.8944,0.909,0.928,0.9237,0.9226,0.9296,0.9302,0.9302,0.9302,0.9302,0.9302,0.9302,0.9302,0.9302,0.9302,0.9302,0.9188,0.8884,0.8884,0.8823,0.859,0.859,0.859]}]]